GFSSE_sfc_rhum_000.txt.gz
RH
66 83 82 78 76 75 77 74 71 66 65 59 56 60 66 66 60 57 60 60 54 52 57 63 62 67 69 71 69 66 68 70 65 65 68 71 68 66 66 66 61 60 59
62 74 83 80 76 76 75 74 70 68 66 60 54 58 53 54 54 52 56 56 55 52 57 60 64 63 66 67 63 60 59 60 62 65 71 76 72 64 57 58 60 62 71
51 65 74 83 81 78 76 74 70 67 63 61 53 51 49 52 51 57 58 56 53 54 59 60 59 61 60 67 66 65 62 58 58 64 71 81 69 63 60 63 60 61 67
47 62 66 85 81 79 78 74 71 68 63 59 55 58 58 55 55 57 54 51 58 59 60 62 61 61 62 64 65 64 63 61 62 68 75 55 52 64 59 59 58 58 62
43 54 73 85 83 80 77 74 71 69 66 61 58 56 62 62 65 60 58 55 62 61 60 61 61 60 61 62 62 63 63 63 69 71 73 60 69 53 61 59 59 60 58
44 76 87 86 84 84 81 78 74 71 68 66 62 62 60 66 69 68 64 68 66 64 62 62 62 63 64 63 61 58 61 66 75 75 67 63 57 53 56 60 63 62 62
46 76 84 87 84 84 83 80 76 73 68 66 62 61 60 70 71 69 70 69 67 64 63 62 57 61 66 69 66 66 65 74 78 72 67 66 63 50 52 58 63 63 63
48 59 79 85 84 86 84 82 79 75 72 71 64 59 61 70 71 72 74 70 66 64 66 65 64 63 65 69 71 70 74 79 72 73 65 67 67 57 56 57 63 64 64
48 54 65 78 84 90 88 85 83 80 78 75 71 66 74 74 71 71 73 70 70 68 69 72 70 67 65 66 68 74 81 83 91 80 62 67 69 56 58 60 60 62 65
53 53 59 66 71 84 86 87 86 83 83 80 79 81 85 85 80 76 79 78 74 73 71 69 70 71 71 70 72 80 84 86 94 80 69 64 64 56 56 60 63 63 63
54 57 56 58 65 66 68 80 86 83 85 84 83 85 86 86 70 73 76 79 78 76 75 74 73 74 80 84 83 81 84 90 82 70 68 67 64 53 54 57 62 64 64
59 59 57 58 62 63 52 82 79 74 85 83 77 81 84 67 72 63 75 76 79 82 84 79 78 81 85 84 76 78 89 83 75 69 69 70 64 58 58 59 62 64 67
50 57 56 61 62 65 65 71 72 72 73 68 63 63 63 61 70 78 81 80 92 87 91 80 89 89 88 76 71 71 71 72 70 70 65 72 68 61 61 64 67 66 68
44 52 56 59 66 67 71 75 71 68 69 69 66 61 68 74 75 74 75 76 78 79 80 79 80 72 67 68 65 65 68 71 73 70 71 75 75 68 63 64 70 71 69
44 47 53 59 69 71 73 76 75 71 69 68 68 66 69 76 79 77 78 77 73 68 70 69 65 64 61 62 68 63 59 70 70 67 72 77 80 80 73 67 66 67 68
44 47 48 52 63 69 76 76 76 74 70 69 72 71 68 76 80 80 74 71 72 70 68 67 66 61 58 65 61 64 66 66 62 62 63 70 76 80 79 73 69 68 69
45 43 43 48 54 67 70 74 74 70 68 73 71 66 66 70 76 73 72 71 68 71 64 62 60 62 64 62 67 63 63 66 65 65 60 58 63 75 83 77 76 72 71
46 52 54 44 53 62 69 71 69 68 71 70 71 63 66 66 68 54 60 54 52 54 53 54 54 55 57 56 50 52 58 42 42 57 53 50 57 55 71 81 72 71 69
47 54 58 55 57 63 66 66 66 65 60 45 42 46 43 43 44 50 50 49 48 55 55 54 53 60 53 51 46 39 42 54 40 37 43 40 37 41 44 60 76 81 72
51 57 61 62 64 64 64 64 49 46 47 51 48 44 40 40 41 49 49 48 48 53 54 48 46 46 53 56 34 42 42 38 43 52 43 32 38 37 40 43 46 61 81
58 58 62 64 64 65 71 58 57 60 55 52 46 38 38 37 39 43 48 44 45 48 46 39 44 47 52 49 55 42 51 47 43 34 32 40 32 35 33 37 48 38 42
60 63 65 63 57 56 58 59 58 56 55 53 50 43 35 32 32 29 38 40 38 47 43 44 45 55 53 50 54 54 59 41 38 41 44 31 38 32 31 31 25 23 31
61 60 56 57 57 55 53 50 54 58 55 54 53 50 38 30 29 31 34 37 38 44 49 47 47 50 62 52 48 50 59 63 43 48 38 42 28 36 28 29 26 27 24
63 60 56 54 54 53 52 55 51 53 55 54 50 45 39 30 29 29 32 36 38 44 44 46 38 49 55 59 54 37 47 46 51 48 48 35 34 28 31 35 29 31 27
62 61 55 50 48 47 45 46 53 53 52 48 44 37 32 32 31 30 32 35 37 44 42 42 44 47 55 54 54 54 47 49 42 45 50 40 34 33 41 33 34 30 27
66 62 57 52 51 50 49 48 50 50 48 45 39 38 34 35 38 32 31 33 35 38 40 43 40 44 48 50 50 48 48 44 41 43 44 40 41 36 38 32 36 26 28

GFSSE_sfc_rhum_003.txt.gz
RH
95 95 85 80 80 79 79 76 69 69 64 59 61 66 74 65 61 59 60 57 54 57 54 60 67 68 71 72 72 67 73 69 67 66 70 73 67 62 66 68 60 66 63
92 92 86 81 79 78 78 75 72 70 65 59 57 56 57 57 54 55 57 55 53 53 55 57 60 62 64 67 65 63 62 63 61 64 70 78 73 65 62 59 61 67 69
88 85 83 85 83 81 80 75 73 70 66 60 55 54 53 53 54 59 58 54 53 58 58 59 58 59 60 64 65 65 64 62 61 65 71 82 84 68 61 66 64 61 66
78 84 82 86 84 82 79 76 72 69 65 62 57 57 50 58 52 51 57 56 59 59 59 61 59 57 61 64 64 65 64 66 66 70 80 76 61 60 62 61 61 59 62
74 75 79 87 85 84 78 76 74 73 67 64 60 58 63 64 69 64 61 54 62 62 61 61 61 62 60 59 59 61 62 66 72 75 82 83 70 57 66 62 62 61 63
80 74 88 88 88 86 82 77 74 73 70 68 66 64 63 68 72 74 69 70 68 67 64 61 62 63 66 66 65 62 60 64 76 90 83 73 66 54 54 62 64 64 65
93 87 87 89 88 87 84 81 77 74 71 69 68 64 65 72 73 73 70 72 70 68 66 64 60 61 64 68 72 69 69 75 85 90 80 73 73 62 56 56 62 65 66
88 88 86 89 89 88 88 85 81 77 73 71 65 64 64 70 72 74 76 72 69 65 65 68 67 68 64 67 70 74 77 82 80 86 79 75 69 61 62 59 60 62 66
77 91 94 93 91 90 89 88 85 82 80 76 73 69 77 76 72 73 78 74 71 69 69 72 72 70 69 68 69 75 82 86 93 90 77 79 72 64 61 60 62 62 62
68 78 95 96 95 97 96 90 87 84 84 84 82 84 85 86 82 78 82 80 74 75 75 72 70 71 73 74 75 80 85 89 96 95 87 81 73 67 62 60 60 61 63
63 71 81 91 92 96 92 88 88 85 87 86 85 86 87 92 84 82 85 84 81 77 75 74 75 76 82 86 86 86 87 93 95 90 84 79 73 67 60 61 61 59 62
71 67 70 79 86 86 68 90 94 88 96 95 91 91 93 90 81 77 82 81 77 81 84 80 80 85 88 96 95 86 87 92 92 83 79 77 72 63 63 68 70 66 64
67 70 67 73 78 79 86 92 92 91 94 94 91 88 89 72 78 80 88 88 88 90 93 88 88 94 94 93 84 77 71 83 86 82 74 77 71 66 64 69 72 73 73
66 67 67 71 78 79 82 86 85 86 84 82 78 72 78 84 85 84 86 86 87 83 85 80 78 72 72 73 74 73 81 84 85 84 84 83 78 71 69 70 72 73 74
60 68 70 75 81 84 89 87 91 85 79 77 78 73 79 86 90 89 90 89 80 76 75 73 73 70 77 76 74 74 74 75 80 81 89 88 86 82 73 69 68 68 70
56 64 70 73 83 86 93 92 93 89 75 81 82 79 76 85 89 89 77 74 75 80 79 70 69 67 69 71 64 61 67 75 76 75 67 67 80 80 74 72 70 66 63
56 57 64 75 83 88 90 91 90 80 77 81 75 70 74 74 84 74 56 58 64 65 60 58 55 60 60 55 57 59 62 58 58 59 62 76 81 83 81 69 72 68 65
61 63 59 60 82 85 88 88 84 82 83 82 64 41 42 48 56 58 56 56 57 62 60 57 60 59 60 64 66 57 53 56 56 47 56 57 58 52 60 70 68 60 68
65 66 64 70 79 82 80 66 55 50 48 50 45 42 45 42 46 54 57 54 52 61 57 51 52 56 58 59 42 48 52 51 53 51 55 42 48 53 53 57 68 75 66
65 73 75 77 75 68 50 46 48 48 53 47 44 42 43 42 42 49 50 47 50 55 51 47 46 48 58 57 40 42 45 55 54 48 46 40 46 46 46 50 65 44 50
72 77 78 72 69 55 54 55 58 61 58 52 44 39 37 37 38 41 47 43 48 50 47 44 49 52 55 55 63 40 60 55 46 31 33 47 38 30 40 30 28 29 32
78 79 76 72 70 60 59 67 60 54 58 55 51 38 32 32 33 34 41 42 44 50 46 48 51 58 61 59 61 61 60 53 43 32 47 33 40 33 33 27 33 32 29
70 68 64 62 58 55 51 51 58 61 61 61 55 46 35 30 32 36 39 41 46 51 52 50 53 54 66 61 58 55 63 67 45 49 27 42 26 45 32 39 35 27 35
70 66 64 62 57 55 53 57 53 56 59 59 57 48 38 31 32 35 38 40 43 48 46 48 41 54 56 60 57 45 53 57 60 53 50 33 47 31 40 40 32 37 24
64 63 59 55 53 53 54 53 57 57 58 56 48 43 37 36 33 35 36 39 41 46 43 43 43 48 54 57 62 62 55 57 53 55 51 47 39 38 45 40 45 28 31
64 60 60 55 56 55 55 54 53 52 48 45 41 41 42 43 41 35 33 36 37 41 42 45 43 43 44 50 53 56 54 49 42 50 43 42 46 38 43 41 35 36 29

GFSSE_sfc_rhum_006.txt.gz
RH
97 96 86 81 81 79 78 73 71 69 63 64 64 67 70 68 64 63 62 56 57 56 55 59 63 67 72 74 72 69 72 65 62 63 67 72 69 63 63 66 64 68 67
92 96 87 83 82 80 78 73 73 69 64 60 61 62 64 61 56 58 57 56 53 55 55 57 61 64 64 68 67 65 66 61 62 64 69 73 76 69 63 60 63 68 68
95 90 84 85 83 81 78 75 73 70 63 59 57 55 58 54 60 60 58 54 58 57 57 58 58 58 61 64 65 65 63 62 62 66 70 85 86 72 66 64 66 63 63
91 90 87 86 84 82 78 75 73 69 66 61 59 54 56 56 52 49 57 58 58 59 59 59 59 56 58 63 64 63 63 66 67 70 82 80 76 62 66 64 66 62 61
90 87 86 88 86 83 78 75 73 70 66 62 61 60 63 64 62 61 59 56 62 64 62 61 61 63 64 62 60 59 62 64 74 78 85 88 86 61 64 63 64 64 62
90 91 91 89 87 86 83 76 75 72 68 66 62 64 65 72 72 72 67 72 70 68 65 62 62 63 65 68 69 67 65 64 76 92 93 83 77 66 55 62 66 65 64
85 88 90 89 89 86 82 79 76 73 72 68 66 64 69 70 72 72 73 75 70 68 65 64 64 64 64 67 69 73 72 78 87 93 92 84 78 67 62 60 59 63 66
85 88 88 90 89 87 84 83 80 75 74 70 68 66 69 69 71 74 73 72 70 67 64 67 68 71 69 67 67 70 78 84 86 93 91 87 78 68 63 61 63 62 62
89 95 96 94 91 92 90 88 86 82 78 75 71 69 73 75 70 72 78 75 72 69 70 72 72 69 69 72 72 73 82 86 94 97 88 88 78 72 66 64 63 62 64
95 94 97 97 95 96 96 91 88 85 85 83 82 84 87 85 82 77 84 81 74 75 76 73 71 71 73 75 76 82 86 87 95 96 96 91 80 75 70 67 64 63 62
89 95 97 97 97 97 96 92 90 88 88 88 86 87 87 93 88 85 86 84 84 77 75 75 76 77 84 87 87 88 88 97 95 96 93 84 78 74 70 67 65 64 63
80 88 94 96 95 97 81 93 96 91 96 95 94 92 95 93 89 75 86 86 82 82 83 79 80 86 89 97 98 92 82 79 95 88 84 81 77 73 71 70 73 71 69
68 75 82 92 92 96 86 97 99 98 98 97 94 94 94 84 86 87 90 91 91 88 93 90 91 92 92 91 96 95 88 88 96 91 84 80 77 73 70 70 72 74 72
74 70 74 82 90 93 94 94 97 98 97 98 96 92 94 91 92 90 92 84 85 95 86 82 78 67 70 75 82 81 78 85 94 94 93 87 80 65 66 60 67 70 71
70 72 76 80 84 88 91 95 93 93 90 87 86 82 87 93 94 92 95 93 84 78 68 62 66 65 64 64 62 62 66 77 76 78 85 81 75 70 66 61 62 62 65
67 72 76 80 88 90 92 95 96 91 75 86 88 85 84 91 94 78 49 53 60 67 62 60 60 62 60 63 55 60 60 61 65 62 63 71 74 71 58 51 51 59 64
68 78 77 85 90 93 94 94 92 73 73 76 75 63 70 66 51 48 48 57 66 64 56 54 52 52 57 53 57 55 51 53 58 55 60 56 62 66 60 50 58 46 49
65 69 78 75 90 94 95 90 84 74 71 52 43 42 42 46 54 51 55 58 61 56 53 51 54 50 58 59 58 51 51 54 54 54 53 46 55 52 51 56 44 42 42
69 67 76 91 90 93 90 65 53 46 45 44 47 43 44 46 49 51 51 54 54 52 51 50 46 55 60 56 49 50 45 56 60 39 43 44 54 50 45 51 51 48 44
73 74 84 89 85 62 51 45 43 43 51 49 48 44 43 42 43 48 46 48 50 49 51 49 47 52 59 61 47 40 46 61 52 29 38 39 42 37 48 37 44 34 50
86 87 93 79 59 54 50 45 44 56 52 48 42 38 38 38 39 43 46 46 51 49 50 49 53 56 59 62 62 51 62 55 38 25 44 29 42 25 41 29 37 34 35
89 92 87 69 59 57 53 62 56 52 58 52 45 36 34 36 37 38 44 47 49 50 47 51 56 58 64 66 63 69 65 57 42 28 39 37 28 37 35 30 38 41 36
90 86 79 69 64 61 56 52 60 56 61 56 49 41 36 34 38 41 42 45 49 52 52 51 54 56 61 63 57 54 65 68 46 50 36 41 30 49 34 48 35 37 35
81 76 69 63 61 56 51 51 46 54 58 62 56 44 37 34 38 39 41 42 44 49 46 47 42 54 54 56 61 50 58 59 60 56 53 35 47 31 45 47 45 44 30
74 75 71 64 60 64 62 57 61 62 64 61 51 41 36 37 37 37 38 40 41 47 44 42 44 44 53 52 59 63 57 59 58 64 50 50 36 35 40 43 52 37 35
69 68 66 62 63 62 58 59 59 58 54 50 49 47 45 43 42 36 34 37 38 40 42 45 42 41 43 48 50 52 56 55 44 46 45 46 42 38 45 39 47 37 42

GFSSE_sfc_rhum_009.txt.gz
RH
93 94 84 80 80 80 79 72 70 68 66 64 64 67 71 74 70 66 62 58 58 55 53 59 64 67 73 73 72 71 71 65 60 63 66 68 70 66 61 62 64 70 69
90 95 88 83 80 80 79 73 72 67 65 64 62 66 69 64 61 59 57 56 54 55 54 57 60 62 66 69 68 66 67 66 63 65 70 74 75 71 64 65 63 69 67
90 96 89 86 85 81 78 75 72 67 63 60 59 63 58 54 59 59 57 56 57 57 57 57 59 59 63 65 67 67 65 64 63 66 70 88 87 72 67 65 64 64 64
94 96 92 88 83 81 79 76 73 67 62 59 57 57 57 56 57 56 55 57 54 59 60 59 60 59 58 61 64 64 63 63 68 72 86 83 80 70 64 64 66 65 62
96 96 90 88 85 83 79 76 73 70 65 61 60 60 62 58 54 54 57 59 60 63 63 62 61 64 65 66 64 61 58 60 73 81 91 92 91 69 61 60 67 65 66
97 96 93 90 88 86 82 77 73 70 67 62 62 63 64 70 69 66 65 72 70 68 65 62 63 62 62 67 69 71 69 69 77 92 94 92 86 71 64 60 58 67 63
96 95 95 91 88 87 83 79 76 72 69 66 62 65 68 69 71 70 75 76 70 69 65 64 65 67 68 66 67 67 71 79 88 92 93 93 86 72 63 63 60 59 60
89 91 95 92 90 89 84 82 79 74 74 70 67 65 69 69 70 74 73 73 70 67 66 66 69 71 71 70 69 68 75 84 90 95 95 95 85 74 68 64 63 63 64
86 94 97 96 94 90 87 86 84 80 79 75 72 69 73 76 70 73 78 75 73 71 70 72 74 70 68 70 73 76 82 86 94 97 93 97 86 78 74 70 68 66 63
97 96 98 98 96 96 95 92 90 84 80 81 79 79 85 86 82 77 87 82 75 74 75 75 72 72 74 76 77 83 87 89 95 96 97 96 83 77 74 72 71 68 67
97 98 98 98 97 97 97 93 92 88 87 86 85 88 88 93 90 88 87 85 82 79 76 75 76 78 84 86 87 89 89 92 92 97 95 87 81 76 74 74 73 71 71
98 98 98 98 98 98 87 96 96 93 96 96 94 93 96 94 91 78 87 88 83 84 84 80 81 84 88 95 98 93 98 94 96 96 95 83 79 72 66 68 71 72 71
90 95 96 98 97 97 95 98 99 99 99 98 95 94 95 91 92 94 94 94 95 90 92 92 94 84 82 87 87 88 81 89 96 98 91 78 66 61 58 63 64 65 68
80 80 86 95 97 97 98 98 98 99 98 98 97 94 96 96 94 94 96 84 84 96 92 76 59 64 59 60 64 63 65 71 78 81 80 72 67 60 59 56 58 62 66
71 78 82 91 96 97 97 98 98 98 98 96 96 94 92 95 96 96 77 66 66 57 61 61 59 54 57 55 53 58 58 62 61 63 72 70 65 54 51 53 59 55 54
41 72 82 85 93 95 97 96 97 97 93 87 93 89 87 96 90 56 52 55 56 63 59 55 53 56 55 55 49 52 54 51 61 60 64 62 59 51 55 53 49 48 47
60 79 84 86 90 93 95 95 92 83 77 81 73 70 65 50 46 48 50 54 60 55 51 46 47 53 51 47 50 50 51 53 60 49 54 52 61 53 54 46 46 45 46
68 87 90 79 92 95 96 86 79 74 58 48 47 45 43 44 44 44 50 59 53 50 50 47 53 54 56 56 56 54 52 52 49 36 44 46 59 42 51 42 46 43 48
75 89 94 95 95 96 92 65 57 48 45 43 43 43 44 41 43 48 55 55 49 51 52 48 49 58 60 52 48 52 50 60 48 28 42 38 48 41 50 40 48 44 44
78 82 96 95 96 74 57 49 47 45 44 42 42 41 43 43 43 48 50 50 48 50 53 50 50 54 64 63 50 44 53 65 45 37 49 32 39 34 52 37 50 43 44
85 90 97 93 70 60 56 49 45 47 42 40 38 39 40 41 42 45 51 50 51 50 53 49 55 57 60 63 64 59 61 58 45 34 48 42 36 37 42 38 40 42 44
90 95 94 74 64 59 55 58 47 41 46 46 44 40 39 40 40 40 48 50 48 49 47 49 56 57 59 65 66 72 64 57 51 27 42 44 37 46 35 34 42 42 50
95 96 77 69 65 62 54 48 47 44 54 47 44 42 40 40 42 43 44 46 48 51 52 51 54 52 55 55 61 50 53 66 56 52 33 44 29 49 36 48 45 42 44
96 93 72 67 65 55 48 43 37 43 48 56 50 42 40 39 40 42 42 43 46 49 46 46 43 52 54 54 60 47 56 58 64 62 54 33 48 33 44 53 46 52 42
90 85 74 69 62 61 55 48 52 58 64 60 46 40 37 39 38 39 39 40 42 48 45 43 44 43 52 51 58 62 58 60 62 70 47 48 38 36 34 38 56 37 44
87 81 72 66 69 65 58 60 56 62 56 47 47 45 43 43 43 37 36 38 38 41 42 45 42 41 44 47 50 50 54 54 54 54 53 47 45 36 44 37 38 49 45

GFSSE_sfc_rhum_012.txt.gz
RH
91 92 85 81 80 79 78 72 69 67 66 64 63 66 69 74 67 65 59 60 60 56 54 61 66 69 72 71 74 74 71 65 62 64 68 69 69 67 63 61 63 68 64
84 90 86 81 81 79 77 73 71 69 68 63 62 64 69 72 66 65 59 56 56 55 53 56 61 63 67 71 70 68 66 68 64 65 70 77 74 68 66 62 64 69 62
88 92 93 86 85 82 77 75 72 66 66 62 62 71 66 54 60 59 57 56 55 57 59 57 58 59 64 67 67 66 65 66 66 68 74 88 86 68 64 64 64 62 61
92 96 95 88 86 82 78 76 72 66 62 60 58 62 56 57 57 56 53 57 55 58 61 60 60 60 59 59 59 62 61 61 65 75 90 86 82 72 65 60 66 65 63
98 97 94 89 85 82 79 77 73 67 62 60 59 57 58 58 58 57 58 60 60 62 63 62 62 64 66 66 66 64 62 61 71 82 92 93 93 76 65 60 65 66 61
99 97 93 89 87 86 82 77 74 70 66 61 63 64 64 63 66 60 65 70 70 67 64 62 63 62 62 65 67 68 71 68 78 90 92 91 89 75 62 63 62 57 63
99 97 96 90 87 87 82 79 75 70 68 63 62 63 64 69 68 66 74 76 69 68 65 64 65 67 69 69 67 67 68 78 90 93 94 94 93 76 68 63 62 62 63
97 97 96 91 90 88 84 82 78 73 70 66 64 64 65 69 70 75 75 75 71 68 67 66 69 71 70 69 70 71 75 83 91 95 96 96 90 80 74 70 66 64 64
93 96 98 97 95 92 88 86 83 78 77 74 70 68 72 76 71 77 77 74 72 72 70 72 74 71 70 72 74 77 84 87 94 97 93 98 89 81 75 72 72 70 67
95 96 98 98 98 97 95 90 88 85 80 80 80 79 83 87 83 76 86 82 75 73 74 75 74 75 76 78 79 83 88 88 94 96 97 98 83 79 75 74 73 73 71
96 98 98 99 99 98 97 94 92 89 84 83 83 86 89 93 91 88 87 84 80 78 76 77 78 81 85 88 89 89 89 97 95 97 98 87 80 73 69 67 70 71 73
95 92 94 91 98 99 92 97 96 94 96 95 94 93 95 93 91 82 88 88 82 83 81 80 83 81 82 93 91 80 89 88 91 95 96 73 64 60 58 59 64 64 63
94 98 91 91 98 98 97 99 99 99 99 98 95 95 95 93 94 96 97 96 95 92 97 91 69 65 64 65 66 67 68 75 83 80 76 68 62 56 54 56 58 68 67
86 94 96 97 99 99 99 99 99 99 99 99 97 94 97 97 95 95 97 82 78 80 58 65 61 54 53 50 55 55 59 58 64 71 69 70 58 54 54 58 58 56 56
75 82 93 97 98 98 98 99 99 98 99 97 97 96 97 96 97 96 65 56 56 62 58 54 52 50 48 46 47 52 48 52 65 65 68 68 54 58 57 52 51 52 52
48 61 84 94 96 97 98 98 98 98 97 96 97 95 92 90 72 55 54 53 51 56 50 47 53 52 48 48 43 51 48 63 56 52 56 65 51 55 50 50 48 49 53
41 46 88 89 96 96 97 97 98 90 85 82 82 81 76 51 48 51 50 48 52 50 44 46 49 52 46 43 45 52 48 59 39 46 45 56 55 52 48 50 47 49 49
59 80 91 80 94 96 97 90 92 91 72 62 57 51 44 44 44 46 46 48 49 50 48 48 53 55 49 52 50 55 50 61 35 41 40 51 45 45 47 47 46 46 47
69 88 95 95 96 96 90 82 74 62 64 52 47 46 40 38 41 44 51 51 49 51 50 48 51 62 56 48 43 52 52 65 40 34 38 44 37 46 48 43 44 45 44
83 94 98 97 97 84 67 61 63 51 50 44 42 40 36 37 44 51 50 48 47 50 49 47 50 53 66 62 48 44 58 69 45 42 46 40 37 44 47 42 51 48 45
88 99 98 96 84 68 67 64 59 53 44 39 37 36 36 41 45 49 52 49 49 50 49 48 54 54 56 64 59 55 60 58 57 47 44 47 39 41 43 41 42 49 51
89 99 99 90 75 67 60 59 52 42 41 39 40 38 42 42 43 43 48 48 46 48 47 49 52 52 53 63 58 71 59 49 48 31 45 42 38 46 41 31 42 41 51
92 99 94 79 65 60 50 48 42 37 38 39 39 46 45 43 44 44 44 46 48 51 52 52 51 50 52 52 65 45 44 54 66 54 44 48 33 50 40 47 42 39 51
95 96 83 71 61 52 50 46 38 38 34 44 46 46 44 42 43 43 43 44 46 49 45 45 42 52 51 53 57 46 54 56 57 60 52 34 47 33 47 50 39 49 52
98 91 80 71 58 51 51 42 41 41 52 52 45 42 40 41 40 41 40 41 43 49 44 41 43 43 52 50 56 58 57 60 67 72 49 51 38 36 38 42 53 42 37
97 90 80 66 59 56 53 43 43 49 44 42 46 45 45 45 45 38 37 39 39 42 42 44 42 41 45 46 51 52 53 52 55 57 61 47 48 43 40 38 42 50 52

GFSSE_sfc_rhum_015.txt.gz
RH
68 68 86 81 80 79 75 71 68 66 65 64 63 65 74 72 69 64 61 60 60 57 55 62 65 74 70 65 76 73 69 65 65 65 69 70 65 63 62 60 61 53 62
59 67 87 83 80 78 75 72 71 70 67 64 62 64 69 71 69 66 60 56 59 55 55 56 61 64 69 72 71 69 68 68 65 68 74 73 72 67 64 62 63 55 61
63 68 71 84 84 82 76 74 72 69 67 61 61 66 65 56 63 60 58 57 54 59 59 57 58 60 64 67 67 65 63 64 66 70 75 57 60 69 64 62 65 61 58
64 67 69 86 85 83 77 76 71 66 64 61 66 67 56 62 56 52 55 56 56 60 60 59 60 61 59 59 58 58 58 58 63 76 57 58 57 66 64 62 60 66 64
69 70 75 88 87 83 79 76 71 66 62 61 60 62 57 59 58 55 55 57 57 62 62 62 63 64 65 66 66 66 65 64 70 68 62 63 61 58 64 63 60 66 62
79 77 84 89 87 84 83 77 73 67 62 61 60 58 61 58 58 59 64 69 69 66 63 62 64 65 66 66 66 66 70 69 74 64 66 66 65 71 66 59 62 59 55
86 80 77 89 88 86 84 79 74 70 66 62 64 63 61 67 68 69 72 76 69 68 64 64 67 68 70 70 68 67 68 80 64 66 66 68 69 79 73 69 64 63 63
83 84 79 86 89 88 85 82 77 71 69 64 63 62 63 70 68 77 74 74 71 68 67 66 70 71 69 68 69 72 76 84 68 65 67 67 77 80 76 74 73 68 66
80 84 81 76 82 91 88 85 82 77 75 72 70 68 71 76 72 79 77 74 71 71 70 72 73 72 73 74 76 78 84 87 66 64 67 64 80 80 75 72 71 72 71
80 80 82 83 79 79 76 89 87 84 81 81 79 78 81 84 81 78 86 82 75 73 74 75 76 78 81 84 86 86 86 82 62 66 63 64 83 76 70 70 70 71 74
79 81 84 82 84 84 80 79 87 88 83 83 80 84 81 70 70 69 81 84 80 77 78 78 82 81 83 80 73 71 71 48 48 53 56 76 72 66 62 59 60 66 64
79 78 83 85 87 86 82 80 78 75 72 69 71 74 71 70 62 64 79 86 81 82 84 77 63 59 53 42 42 51 40 42 39 42 46 66 60 57 56 56 59 66 66
72 78 82 82 88 89 83 84 84 81 80 78 75 74 72 70 66 66 67 67 70 83 57 46 40 37 38 36 36 34 35 33 36 42 58 63 57 54 54 60 60 59 60
72 80 80 82 88 89 82 82 82 81 80 79 76 73 73 67 69 68 68 62 56 49 43 39 35 32 30 28 32 30 27 35 39 40 53 63 60 59 58 56 55 55 59
60 66 79 84 88 90 87 84 82 79 79 75 76 73 72 70 73 67 48 50 48 38 34 34 31 26 25 25 29 28 32 33 32 35 42 65 60 54 54 53 51 56 55
46 55 64 81 88 88 86 84 80 78 75 76 75 74 76 78 67 57 49 46 38 32 31 31 29 26 24 23 29 29 32 26 28 30 32 36 55 53 53 51 51 52 50
32 34 49 69 82 86 84 81 78 76 75 75 82 79 78 56 53 50 46 37 36 32 27 28 30 27 24 22 25 29 30 23 26 29 27 30 34 48 49 47 46 48 48
35 40 45 62 83 83 81 79 85 86 86 82 75 63 47 47 48 44 43 38 32 31 30 29 32 31 26 26 25 30 29 29 25 24 27 26 33 28 36 44 43 44 46
38 46 66 74 83 85 80 83 87 79 73 66 55 48 43 43 40 39 35 36 30 30 31 28 30 34 29 29 26 27 32 36 26 24 26 28 32 32 28 36 42 41 42
48 59 73 82 87 82 74 69 68 63 54 56 46 40 38 38 35 36 34 33 29 30 28 29 28 32 34 34 26 24 40 44 31 29 24 25 27 30 30 30 28 27 39
65 77 86 87 86 73 76 66 69 62 52 45 41 36 36 37 34 36 34 32 32 30 30 26 32 30 33 36 28 28 32 36 36 35 25 28 28 28 29 25 24 23 24
65 87 89 85 77 76 68 63 58 50 43 41 42 38 38 37 33 33 33 34 32 32 32 31 32 31 32 40 29 37 31 22 26 21 29 28 25 24 26 22 24 24 26
72 91 88 83 75 70 61 49 43 40 40 41 40 42 40 33 33 33 34 32 34 35 35 35 36 35 32 36 36 22 27 28 32 29 27 29 22 27 23 27 25 24 25
74 91 85 76 68 59 55 53 46 45 40 34 38 40 35 32 33 32 33 32 33 33 34 33 31 35 33 36 35 29 30 29 30 29 29 25 28 23 27 27 25 25 26
82 91 80 68 61 57 55 51 48 44 37 39 39 36 33 33 32 32 31 33 32 33 32 32 33 33 35 30 35 36 34 33 38 43 31 28 26 27 28 28 28 27 26
88 86 79 69 60 56 54 45 44 42 35 38 37 34 32 32 33 32 31 32 32 32 33 34 35 36 34 34 33 34 32 30 28 33 32 32 36 30 31 30 29 28 29

GFSSE_sfc_rhum_018.txt.gz
RH
47 54 88 81 78 78 74 71 67 67 66 64 63 70 74 72 68 64 62 62 59 54 56 62 66 80 63 63 73 71 68 65 66 68 71 67 62 62 62 58 62 48 60
43 50 89 84 81 76 74 71 70 69 67 64 63 65 72 72 70 64 61 57 56 57 55 58 62 67 72 74 72 69 70 68 66 70 71 67 67 66 62 64 64 51 58
42 47 60 85 83 80 75 73 72 70 64 62 64 64 69 67 67 63 58 58 56 60 57 57 60 60 64 66 67 65 63 63 66 73 71 43 42 64 62 62 64 61 56
41 47 49 86 85 81 77 75 72 70 64 63 73 64 58 60 56 53 55 56 58 62 60 60 62 63 61 61 60 57 58 58 65 72 42 35 37 57 66 66 59 65 63
42 46 52 87 86 82 78 75 70 66 63 62 66 61 61 59 52 50 54 56 60 64 62 63 64 64 64 66 67 67 67 65 70 64 46 48 48 44 60 62 61 60 66
41 44 77 88 87 84 82 75 70 65 62 62 62 62 59 58 56 59 60 64 65 67 62 63 64 68 69 69 66 65 70 73 74 48 50 51 55 68 71 67 61 61 61
44 46 59 88 87 86 82 76 72 67 63 62 63 62 60 66 68 72 67 72 69 68 64 65 68 68 69 68 68 69 70 76 52 50 51 53 55 74 74 72 70 67 64
46 51 52 84 88 87 84 80 76 71 66 64 65 63 62 70 68 75 73 71 71 68 68 67 70 72 70 71 72 74 77 83 57 50 52 53 69 77 74 75 73 73 71
44 51 51 55 74 91 87 84 81 75 72 68 65 64 66 76 74 77 78 73 70 72 71 73 74 73 74 77 81 83 84 84 55 44 47 48 81 78 71 70 72 72 73
48 50 51 49 56 61 66 88 86 83 82 80 78 77 83 83 77 84 84 80 75 74 75 77 82 82 83 82 79 76 72 72 41 46 43 51 79 74 67 64 62 64 68
49 51 51 49 51 55 56 70 86 88 84 84 77 84 80 47 50 54 80 82 78 79 79 81 76 72 72 67 65 62 64 35 34 34 35 66 64 60 59 58 58 63 66
48 48 50 51 52 55 56 61 56 51 56 51 52 55 47 49 42 49 72 84 81 81 78 65 56 48 53 33 33 45 30 30 28 31 33 66 57 53 53 63 63 62 63
41 45 51 58 61 60 58 59 55 51 53 52 54 54 46 45 49 49 53 53 58 74 47 42 36 31 32 29 28 24 24 23 24 28 49 64 57 52 62 59 58 60 61
40 47 50 55 68 73 57 60 56 51 52 54 54 53 48 48 52 50 52 53 47 39 36 34 30 27 24 21 22 20 20 24 24 27 45 69 62 58 57 56 56 59 58
38 43 50 56 66 74 63 61 57 53 52 51 54 50 46 48 51 53 44 39 39 34 30 29 26 20 18 17 19 19 19 20 23 25 33 66 59 57 56 56 57 56 55
29 33 39 53 62 75 64 62 57 52 49 54 54 51 53 50 55 49 43 41 32 28 25 22 19 18 16 16 18 18 19 19 21 26 25 39 56 53 52 51 51 50 51
20 22 28 40 51 74 65 62 55 53 52 57 54 53 56 59 51 45 41 36 28 22 19 20 20 18 17 16 16 18 19 18 20 22 22 24 29 49 48 47 46 46 46
24 24 24 28 41 55 58 62 56 54 54 56 56 62 60 51 46 42 38 30 22 22 22 20 21 21 19 18 18 18 18 20 20 19 19 20 24 20 28 44 44 43 44
24 24 27 34 35 44 52 60 61 61 63 69 69 58 50 44 39 36 34 25 21 23 22 19 21 20 20 21 18 16 20 24 22 17 20 22 25 25 22 26 35 32 39
24 24 27 35 42 47 59 73 67 64 61 59 55 48 43 37 32 28 24 23 21 23 21 21 20 22 23 22 17 17 29 29 24 24 22 17 21 24 23 25 22 22 30
27 29 32 41 51 56 75 73 67 70 57 51 44 40 36 32 30 26 25 23 23 22 22 19 21 24 25 23 20 21 22 25 28 28 24 16 21 21 20 20 18 19 19
28 33 40 48 65 60 61 70 69 66 53 43 44 39 36 32 30 25 25 24 24 24 24 23 24 25 24 25 22 26 23 19 19 23 17 20 17 18 19 18 20 21 22
31 39 49 58 71 62 65 66 58 51 44 40 42 43 39 30 27 25 26 24 26 26 27 27 27 26 25 26 25 18 22 24 22 19 21 17 19 18 19 22 22 21 22
35 44 58 74 66 69 61 59 57 57 52 39 39 42 35 29 25 24 24 23 25 25 27 25 22 25 24 28 26 20 21 20 24 24 20 20 18 19 22 23 22 22 22
36 55 71 75 65 64 60 58 61 55 52 36 39 34 31 26 25 24 24 25 24 24 25 24 26 25 25 22 26 26 23 24 23 29 30 24 20 20 22 23 23 22 21
40 62 77 70 65 60 59 58 58 50 41 40 37 34 29 25 25 24 24 24 24 25 26 26 28 29 27 26 24 24 23 23 22 24 25 26 26 24 23 24 24 23 23

GFSSE_sfc_rhum_021.txt.gz
RH
40 60 86 79 77 76 74 70 67 66 65 64 68 74 74 70 67 65 64 62 57 56 56 63 69 79 65 67 75 71 68 68 68 71 68 61 60 63 64 60 63 52 60
39 56 88 82 79 76 74 70 69 69 66 64 63 69 72 71 66 65 61 61 59 59 57 60 65 69 73 79 73 72 69 68 68 72 70 66 64 65 62 62 68 55 55
39 50 65 84 84 79 74 72 71 69 64 62 63 67 73 73 68 61 60 56 62 59 59 60 62 62 64 64 65 65 63 62 66 72 71 49 40 60 62 65 62 65 59
37 47 52 87 84 80 75 74 72 67 62 65 68 66 61 64 62 57 58 59 64 60 61 62 64 64 64 66 65 61 60 60 66 68 48 34 34 59 55 63 64 60 64
36 42 55 87 85 81 78 74 71 68 62 73 66 63 61 53 52 51 56 58 65 63 64 65 66 66 67 67 66 67 70 66 69 69 45 49 53 61 63 59 58 63 66
35 39 81 88 86 84 81 74 69 65 63 67 65 60 60 57 54 56 58 61 68 66 63 65 68 68 70 70 68 66 68 73 75 46 47 51 53 70 71 68 67 63 62
35 41 62 88 87 86 81 75 70 65 63 62 64 62 64 67 66 68 65 70 70 68 65 66 68 70 70 68 69 70 73 77 60 48 47 50 70 72 72 69 72 71 69
35 41 56 85 88 87 83 78 74 68 64 65 64 63 65 69 69 73 74 71 71 68 68 68 72 72 72 73 75 76 79 83 57 52 56 51 75 72 71 67 72 73 72
35 40 47 63 79 89 86 84 80 74 71 69 70 66 69 73 78 76 75 74 72 72 72 74 76 75 78 81 81 81 80 81 60 45 44 48 77 73 68 66 65 64 66
38 39 41 50 63 67 69 88 85 82 80 77 76 78 86 81 84 82 84 80 76 75 77 81 82 80 80 77 70 65 67 73 43 39 38 58 67 66 63 60 59 61 66
39 40 39 40 52 55 59 70 85 86 85 83 78 85 81 50 52 62 82 83 79 80 80 76 68 67 68 67 58 54 64 35 33 31 34 67 61 56 56 60 66 63 64
40 40 40 39 44 51 55 61 57 54 64 57 54 58 47 41 43 48 71 84 81 82 73 62 51 48 55 36 38 50 29 27 26 30 47 68 60 52 65 63 60 66 63
35 37 40 42 42 45 56 66 52 46 56 46 46 48 40 40 46 50 57 61 70 82 52 52 42 35 34 32 30 25 24 24 23 28 60 70 58 58 61 59 63 62 61
31 36 40 42 46 47 52 57 53 45 48 46 48 47 42 41 46 45 46 65 53 44 41 39 35 31 27 22 20 20 19 23 22 27 59 68 62 60 58 60 59 58 59
29 33 39 42 49 55 52 53 56 50 44 48 51 47 41 42 45 44 48 44 41 37 35 34 30 24 19 18 16 18 17 18 20 25 45 68 61 58 57 57 56 55 55
26 29 34 40 44 51 52 53 51 51 44 47 60 52 42 42 46 49 45 42 37 34 30 25 20 19 18 17 17 17 17 18 20 25 28 48 56 53 51 50 48 48 47
19 22 27 36 42 49 53 52 53 52 43 51 62 48 46 51 53 49 43 39 35 27 21 21 20 20 20 18 17 18 18 18 21 22 26 30 44 50 46 45 44 44 44
20 20 20 25 36 47 62 49 50 50 45 62 62 54 55 52 49 44 40 38 28 25 24 23 23 23 23 22 20 20 20 22 19 20 23 22 29 23 43 37 38 39 41
19 21 22 24 28 35 52 49 51 60 65 63 61 60 56 50 44 40 38 34 24 25 24 20 23 24 25 27 23 20 24 26 24 19 21 23 27 29 30 34 30 33 31
17 20 22 24 28 28 39 46 63 72 74 72 62 58 51 43 36 38 33 26 24 26 24 23 23 24 25 27 18 20 31 31 29 26 23 20 22 27 28 31 31 28 33
18 20 22 23 30 32 41 57 73 82 83 69 61 52 46 37 34 36 30 26 26 26 25 22 24 27 29 26 29 30 29 24 29 29 30 24 23 25 24 25 24 26 25
23 23 24 24 32 39 46 65 73 73 66 57 56 42 37 34 34 34 28 28 27 29 28 27 30 30 30 29 27 34 33 25 24 23 24 21 22 24 23 22 24 26 29
24 26 25 28 37 45 56 70 70 60 55 53 47 41 39 35 34 34 29 28 29 32 34 33 33 33 34 32 27 22 33 34 26 26 25 23 22 24 24 26 25 26 27
25 34 32 35 45 50 57 68 67 64 68 63 53 38 35 32 34 31 27 28 29 30 32 31 26 30 32 35 31 21 23 23 29 30 27 25 23 20 24 26 25 26 26
25 36 40 42 54 54 60 63 64 65 62 49 38 35 34 34 34 31 26 29 28 29 28 29 30 28 28 24 29 30 24 29 25 33 37 31 26 24 25 25 26 26 25
27 40 49 52 59 61 65 60 65 64 50 58 40 38 36 36 34 28 26 28 28 29 31 31 31 31 28 27 26 25 25 26 26 27 30 32 32 29 27 27 27 28 28

GFSSE_sfc_rhum_024.txt.gz
RH
79 83 83 78 77 76 73 70 69 68 68 70 75 75 73 69 68 67 65 60 60 56 60 66 74 74 73 79 75 72 71 71 71 71 66 60 61 62 64 65 68 57 61
73 78 84 81 78 76 73 70 71 71 68 66 69 73 72 69 68 64 61 60 58 58 59 64 67 69 74 76 74 70 69 69 69 71 72 73 69 60 62 63 65 65 57
69 74 77 84 82 79 72 72 72 70 66 65 65 72 74 70 67 62 60 62 58 59 60 64 65 65 66 65 63 62 61 61 63 69 75 79 73 59 62 67 62 61 63
61 70 74 86 83 79 75 74 71 65 68 68 70 70 69 66 62 60 62 65 61 62 62 64 64 64 66 67 66 66 66 64 67 75 75 55 53 58 53 57 62 60 66
60 61 76 86 84 80 77 75 72 65 72 74 70 67 62 59 55 60 61 66 66 64 66 67 69 69 68 68 67 68 72 69 78 77 67 68 70 66 68 66 63 62 63
54 68 88 87 85 84 81 75 71 65 70 70 71 68 63 59 58 57 62 68 70 66 66 69 70 71 71 70 68 67 68 71 78 71 61 66 80 70 70 64 67 68 64
69 80 85 88 87 85 80 76 70 66 67 69 64 65 66 69 67 67 72 72 71 69 68 69 71 73 72 71 71 72 74 81 80 70 57 68 73 69 69 64 71 73 72
71 71 81 88 88 86 82 79 75 68 66 67 68 66 72 70 70 72 74 73 72 71 70 73 74 74 74 77 77 78 81 85 74 68 58 83 75 68 65 63 67 65 66
50 70 78 84 87 88 85 82 79 74 73 74 74 73 79 79 81 76 76 75 73 72 75 78 78 78 80 79 78 76 79 80 86 64 58 78 72 64 63 61 61 63 70
51 61 74 82 85 85 87 87 85 82 78 78 78 81 85 82 87 85 84 82 77 77 80 81 79 79 78 72 63 61 68 72 72 52 69 74 61 58 57 59 67 65 68
51 54 61 77 79 76 80 85 88 86 84 82 81 87 88 80 82 84 87 85 84 81 81 75 69 72 72 72 64 61 64 50 41 56 75 68 60 52 66 66 66 68 64
55 54 52 66 73 69 67 84 85 80 85 80 76 90 83 70 73 69 86 88 84 84 77 65 55 59 64 58 60 59 40 33 39 61 80 66 56 62 65 65 66 64 63
51 53 51 55 57 65 63 74 70 69 77 72 68 73 70 65 74 77 91 90 95 86 75 64 58 48 42 39 37 34 33 36 42 75 73 69 63 64 60 66 62 62 62
48 51 52 53 58 60 67 68 61 64 69 68 65 63 58 67 69 72 79 81 77 83 58 56 51 40 33 26 28 28 26 35 35 72 78 72 63 62 62 61 60 58 59
44 50 52 55 61 58 63 67 63 64 60 67 66 63 59 65 68 67 71 66 60 58 54 50 38 30 28 25 25 27 25 29 32 64 81 72 61 59 56 55 54 51 50
34 44 50 53 60 68 65 61 60 64 61 59 62 62 57 62 67 64 63 60 59 50 42 34 29 31 31 28 26 25 26 29 30 45 66 71 58 53 49 48 46 45 46
29 38 46 51 55 64 68 63 62 66 62 70 62 60 54 64 58 64 63 58 52 38 32 34 33 33 33 29 31 27 25 29 30 35 48 56 58 52 43 41 41 42 42
30 31 38 41 51 60 64 64 62 65 59 67 66 73 59 58 56 60 59 53 43 38 38 37 36 38 38 39 36 32 32 31 28 30 29 37 44 45 45 36 34 35 36
27 30 33 43 50 55 67 68 74 65 72 72 68 71 67 56 57 56 52 46 34 41 39 33 38 39 40 40 32 28 39 37 32 24 30 31 37 37 38 35 37 36 31
23 27 32 38 40 51 68 70 75 71 76 72 74 69 56 54 46 49 42 35 37 42 38 38 38 40 41 41 26 28 43 45 39 38 35 28 34 32 35 34 39 38 36
29 26 32 37 38 38 61 70 75 90 92 87 80 62 56 45 40 43 41 35 42 42 38 34 38 41 45 43 45 42 43 34 43 43 42 44 34 30 30 33 36 38 38
33 32 28 33 37 37 41 62 82 94 88 71 76 58 51 44 39 37 35 38 40 43 41 41 43 45 45 43 41 47 47 41 36 31 39 31 30 30 29 27 31 31 37
31 32 35 36 40 42 60 83 71 72 63 61 54 49 48 43 39 34 35 37 45 52 52 46 44 42 49 45 37 36 44 48 40 38 33 34 28 36 33 33 32 32 35
26 32 38 40 40 54 80 82 79 80 77 71 65 63 66 38 39 34 35 37 47 51 47 44 39 43 44 47 46 30 34 35 44 47 43 39 37 29 35 39 35 34 33
26 42 45 40 51 64 82 79 82 79 75 62 55 46 36 36 35 34 35 37 45 49 39 40 41 39 40 40 43 44 36 42 39 47 53 48 40 38 38 38 39 38 34
33 36 57 51 68 73 81 78 78 78 68 60 54 49 39 44 38 36 38 37 43 45 44 45 43 41 41 40 40 38 38 40 41 43 48 47 47 42 42 40 40 41 39

GFSSE_sfc_rhum_027.txt.gz
RH
94 85 83 78 76 75 73 72 72 74 78 77 76 74 72 70 69 66 62 60 58 60 64 70 69 75 78 77 73 73 72 72 70 67 65 62 60 60 63 66 68 63 59
90 82 83 81 77 75 72 71 72 72 75 74 74 73 71 70 66 61 61 58 58 60 64 68 70 73 75 73 71 70 69 68 67 68 71 71 69 59 62 67 64 66 56
86 80 79 83 82 78 73 73 72 70 67 69 72 72 71 70 64 62 60 59 59 61 64 66 66 68 68 66 64 62 60 59 61 65 73 82 74 57 62 66 62 59 61
81 80 80 84 83 78 75 74 69 67 68 69 76 76 72 65 61 63 65 61 61 62 63 64 64 66 67 67 66 71 68 66 68 77 79 66 58 62 56 54 59 62 66
83 78 82 85 83 79 76 73 68 71 70 75 72 71 67 63 63 64 68 65 65 67 68 68 69 69 68 68 68 70 71 70 77 76 78 74 82 68 67 65 65 62 62
78 82 88 86 84 82 81 75 68 75 74 69 72 69 67 60 61 64 69 70 68 69 70 71 71 72 72 71 69 68 68 70 79 76 68 72 80 69 63 60 70 70 69
81 87 86 86 86 84 82 79 72 73 71 69 67 65 64 67 67 66 72 73 71 70 70 72 74 73 73 74 73 73 75 82 83 83 65 73 73 68 64 67 70 68 70
86 85 84 87 88 85 82 78 75 73 73 71 71 71 73 70 69 71 74 74 72 71 72 75 74 75 77 78 78 78 80 85 79 80 78 88 76 64 61 64 63 64 71
83 86 87 88 87 87 84 80 77 74 75 76 75 77 77 82 80 76 76 75 74 73 77 79 78 78 79 78 74 70 74 74 84 74 64 79 69 58 59 60 65 70 68
85 87 95 94 90 88 86 85 82 79 80 80 81 87 83 88 86 82 85 82 76 78 82 81 80 78 77 70 60 64 66 66 66 74 78 77 59 52 59 68 66 68 65
83 90 92 96 95 95 93 86 87 85 84 85 85 90 86 93 93 88 89 87 84 82 81 77 75 75 74 73 64 64 57 40 65 78 80 69 56 68 66 71 67 65 67
76 85 89 92 90 90 78 93 95 87 92 92 91 94 93 88 93 84 90 90 87 86 80 70 60 62 68 63 59 51 36 38 66 80 87 68 59 65 69 67 65 63 65
63 68 84 86 84 84 81 91 93 95 96 90 86 93 92 79 88 92 98 96 97 89 87 71 60 50 41 39 36 33 33 43 80 85 81 74 67 61 66 63 62 63 62
60 57 70 79 81 78 80 79 81 82 87 85 81 81 81 84 86 93 97 97 97 93 86 73 57 42 29 26 30 29 28 40 80 84 84 75 64 63 62 60 58 56 55
58 57 58 70 73 72 80 75 69 74 79 80 74 74 64 73 78 84 89 92 83 72 62 50 34 31 30 27 27 28 28 36 76 80 89 74 65 59 56 53 49 48 47
51 56 54 58 64 69 76 73 66 66 70 68 71 66 58 69 72 80 69 65 63 51 41 33 32 34 34 30 30 28 29 34 64 76 78 77 61 52 48 45 44 44 44
36 54 55 58 66 68 73 70 62 61 68 67 62 57 53 68 74 66 66 64 53 39 36 36 38 36 37 34 35 33 29 31 40 67 66 67 62 57 44 39 39 39 40
35 43 54 50 62 69 71 71 66 64 74 70 66 69 58 64 62 66 60 55 44 41 39 37 40 42 43 42 38 35 36 34 33 39 52 58 57 54 44 36 35 35 35
31 33 51 54 62 65 67 72 84 80 83 82 77 66 60 58 55 58 59 52 41 42 40 36 43 42 42 42 35 32 43 40 34 30 36 39 43 46 43 34 39 38 36
23 32 38 53 57 64 68 70 95 88 84 75 69 70 65 58 52 51 49 43 40 40 42 42 41 46 44 43 29 36 47 49 43 37 36 33 38 36 38 38 40 38 34
32 32 34 47 56 62 77 82 96 91 93 90 84 64 59 54 49 41 40 41 38 39 40 38 44 41 45 46 42 43 50 41 43 44 46 46 37 34 34 36 38 39 39
36 37 36 42 50 59 68 73 92 98 97 91 81 67 54 48 43 38 38 39 36 41 43 42 44 49 49 48 41 54 45 41 36 36 45 33 34 34 32 29 32 33 40
39 39 37 38 46 44 75 91 87 87 88 79 75 62 54 46 42 39 35 35 36 42 52 46 46 47 51 48 40 37 42 46 44 42 40 37 35 40 37 41 35 34 36
32 44 38 41 45 46 85 86 87 87 91 94 86 86 64 45 41 41 39 35 41 49 49 48 44 47 50 48 49 36 38 37 41 38 44 42 42 35 41 43 43 39 37
30 34 44 42 47 58 83 82 88 91 92 84 84 75 55 41 43 38 40 40 42 44 40 42 43 42 44 45 49 45 39 46 45 49 50 49 44 41 42 46 44 42 40
44 40 45 52 48 85 86 87 87 85 81 82 76 68 55 42 44 40 38 46 41 36 40 49 45 41 43 43 44 42 41 41 43 45 51 53 51 49 47 46 47 47 47

GFSSE_sfc_rhum_030.txt.gz
RH
94 90 84 78 78 78 77 78 79 80 80 78 75 71 72 70 66 65 62 59 63 64 71 66 62 66 74 72 73 73 73 70 64 64 66 66 61 61 64 68 67 65 61
91 86 84 80 76 75 75 75 78 81 81 78 75 71 70 68 62 62 60 59 60 63 69 73 76 79 76 73 72 71 68 64 64 68 70 70 69 60 64 64 66 64 58
89 82 80 82 81 76 73 73 73 74 76 76 74 70 70 66 63 59 58 59 61 63 67 69 70 69 68 67 65 60 58 59 64 67 72 80 76 58 60 65 61 61 60
83 82 82 84 81 75 74 74 72 69 71 74 73 73 70 65 63 60 60 60 62 64 67 67 68 69 68 67 69 70 66 67 72 79 80 73 63 63 58 56 59 62 65
85 82 82 85 81 76 75 71 68 69 70 76 77 75 66 63 64 66 62 64 65 66 66 67 66 67 67 68 70 70 70 70 76 73 79 75 85 68 64 64 67 64 61
90 87 87 86 83 81 78 73 73 71 74 74 77 74 68 65 66 69 68 67 69 70 70 70 71 71 72 70 68 68 69 74 80 78 77 71 77 67 61 63 72 73 72
92 92 87 86 84 82 78 76 78 74 72 69 69 67 64 64 67 71 73 71 70 71 72 73 74 74 74 74 73 73 76 83 84 87 77 78 80 64 62 69 67 67 69
91 89 86 87 86 85 82 78 79 79 75 73 71 69 66 67 68 70 75 73 71 71 74 75 74 76 78 77 77 77 78 82 76 82 83 87 74 61 62 62 64 74 74
86 88 88 88 88 87 84 80 79 80 76 76 76 77 78 78 77 73 76 75 73 72 76 76 76 78 77 75 72 67 69 74 84 76 70 78 70 56 60 64 71 67 68
91 89 92 93 91 88 86 84 81 83 80 79 83 85 84 88 87 81 84 82 74 77 81 80 79 77 76 68 58 64 63 74 80 80 82 79 59 57 67 69 69 68 68
92 93 89 92 96 96 94 87 86 86 86 86 90 88 92 96 93 90 90 87 84 82 82 79 78 76 72 66 65 61 50 67 80 81 83 70 68 67 72 69 67 68 66
91 87 89 91 97 96 80 93 95 88 95 94 95 94 91 96 96 89 93 89 88 87 84 73 68 69 65 64 44 46 41 69 84 90 90 70 67 70 68 65 64 66 64
95 95 89 94 96 93 85 97 98 97 98 96 94 96 95 90 97 98 98 98 97 93 92 73 62 54 43 41 37 33 43 79 92 94 87 77 63 66 65 62 62 62 61
89 92 93 94 93 92 85 92 93 93 95 96 93 95 97 96 98 98 99 98 98 97 87 77 60 37 29 29 32 30 39 81 93 94 89 76 67 62 60 58 55 53 51
69 82 91 91 90 88 90 88 87 87 88 87 88 87 86 90 91 95 97 98 98 97 75 57 36 33 30 28 30 29 38 80 90 91 95 76 67 59 55 51 49 48 46
63 64 83 86 86 84 86 85 84 80 81 85 84 83 74 78 83 89 94 97 82 74 55 37 34 35 35 33 32 30 36 66 86 87 87 82 63 52 47 44 42 42 42
46 57 66 83 80 82 84 82 82 75 76 82 82 77 68 69 78 85 85 78 61 43 36 38 37 38 39 36 36 33 34 48 78 79 78 68 64 60 44 39 38 38 39
39 44 58 61 73 77 80 78 76 73 73 76 74 72 63 64 73 76 72 62 47 43 41 41 43 44 44 40 37 35 38 38 58 67 64 61 61 56 44 37 34 35 38
34 38 63 62 71 73 75 78 83 77 78 75 72 69 58 70 68 66 62 52 43 43 41 38 44 42 42 41 36 37 45 43 41 41 58 50 54 54 48 40 38 36 33
28 35 45 62 65 73 81 86 94 92 91 79 76 67 64 67 59 56 56 42 41 44 43 42 42 47 44 44 31 40 52 53 44 42 41 38 46 41 42 39 40 39 32
35 35 40 55 62 73 87 95 95 92 92 94 83 79 67 60 55 52 46 39 41 40 42 40 47 41 46 48 44 48 53 47 47 49 50 48 41 38 39 38 40 42 41
37 38 38 45 55 64 74 82 92 90 97 91 95 81 67 61 54 46 39 37 40 42 38 43 45 52 49 48 44 56 46 41 40 39 48 38 38 38 36 33 36 36 41
40 40 40 42 52 66 72 98 98 96 96 96 94 86 77 66 51 41 38 38 36 37 41 44 48 48 51 48 42 40 50 46 44 42 43 41 39 43 44 43 39 39 40
33 37 41 43 45 60 91 92 89 88 96 97 89 94 88 77 54 39 38 34 36 44 42 49 48 52 50 49 51 38 40 38 38 33 43 45 44 36 42 47 46 43 42
35 36 39 45 50 53 84 88 90 81 86 97 95 89 82 79 62 47 37 38 41 52 45 41 43 47 49 50 52 47 42 50 47 49 44 48 46 45 46 47 47 49 46
55 52 49 45 48 58 84 90 86 87 94 93 91 87 81 79 68 56 44 42 43 46 41 46 41 39 43 44 46 43 42 41 44 46 50 53 52 50 50 49 49 50 51

GFSSE_sfc_rhum_033.txt.gz
RH
98 94 84 78 75 74 78 79 79 81 79 75 72 74 72 69 67 64 61 63 65 68 63 61 66 69 69 71 72 73 69 63 62 66 70 67 62 61 66 66 68 65 62
93 89 82 81 77 75 80 80 84 85 83 77 72 69 68 66 65 62 60 60 63 65 69 74 70 71 77 73 73 70 62 62 66 69 70 74 71 63 64 64 66 62 59
92 84 80 82 81 79 78 81 82 82 81 77 73 73 66 64 61 59 59 60 62 65 72 73 72 73 72 70 64 57 57 63 69 73 74 79 75 60 58 65 62 64 58
87 85 83 83 80 77 75 76 78 79 79 77 72 69 68 65 60 59 60 62 62 68 68 71 71 70 68 68 69 65 67 71 75 77 79 74 67 65 60 58 59 61 65
87 85 84 84 80 75 75 74 72 73 74 76 76 73 68 64 61 61 62 63 65 67 67 66 67 67 67 70 70 69 70 72 77 76 79 79 86 68 63 65 69 66 62
94 90 88 85 82 80 77 70 69 69 73 75 78 72 66 65 66 63 65 68 69 69 69 69 69 70 70 69 68 68 74 78 80 87 81 74 79 66 63 73 72 73 74
96 94 88 86 81 79 74 76 75 72 77 80 76 69 68 67 69 69 68 70 71 72 71 71 72 73 74 74 73 75 78 77 90 90 86 88 83 62 64 66 68 74 75
96 92 89 87 85 83 77 80 80 78 74 76 76 72 69 68 70 74 72 71 71 72 73 72 74 76 76 76 75 73 71 76 79 85 87 87 73 61 62 62 72 71 70
92 93 93 91 89 87 83 82 84 79 76 75 75 73 73 75 76 75 76 74 71 73 76 75 76 77 76 73 66 61 67 78 84 79 72 79 68 58 62 73 68 70 68
96 94 96 96 95 95 94 85 86 82 81 79 79 83 84 84 84 80 84 81 74 76 78 78 78 77 75 61 58 59 78 76 83 80 82 79 61 64 70 70 70 67 66
89 91 93 95 97 97 95 88 87 87 86 87 90 90 90 96 94 90 92 87 82 81 82 80 79 77 69 69 64 55 66 78 83 80 80 74 67 71 70 67 69 66 62
89 90 84 84 95 97 83 93 94 91 96 95 96 93 97 97 97 91 94 90 87 87 86 78 76 68 60 55 44 47 64 84 91 92 92 76 70 68 65 67 66 62 59
82 84 83 82 90 96 87 97 99 98 98 98 96 96 95 96 98 98 99 98 98 95 96 74 63 53 43 41 35 39 75 88 96 98 89 74 68 64 64 62 62 60 59
85 82 83 83 89 95 88 94 94 93 98 99 97 96 97 98 99 99 99 98 98 98 92 75 60 37 31 33 32 39 75 91 97 97 90 78 66 62 60 56 54 52 50
94 88 84 83 89 94 94 92 92 92 92 92 96 96 97 98 99 99 98 99 98 97 87 70 40 34 30 30 32 36 72 90 92 96 96 77 69 59 54 52 49 46 46
88 94 94 89 91 93 92 93 90 88 85 87 88 89 94 92 97 98 98 98 98 97 68 44 36 36 35 34 33 35 64 88 91 91 91 83 67 55 48 44 44 42 43
62 71 92 94 93 94 92 92 88 83 82 84 83 88 83 85 94 94 97 98 92 76 42 38 38 40 40 37 37 35 45 85 86 88 83 70 69 61 46 41 39 39 41
43 57 72 82 91 92 90 92 85 90 88 84 84 83 81 77 84 95 95 94 64 46 44 43 44 44 43 40 38 37 42 61 79 78 70 63 66 56 46 38 37 36 36
39 40 66 73 88 90 90 92 88 89 85 91 85 82 81 74 81 85 86 75 47 46 41 42 45 41 41 42 37 40 48 46 68 59 65 58 62 52 52 40 38 36 33
36 39 44 70 72 87 89 93 94 95 91 93 83 79 79 72 75 75 67 53 43 41 40 39 42 47 44 43 34 43 58 55 48 59 57 42 55 46 44 42 42 41 38
40 41 42 65 70 77 94 98 98 96 96 94 90 81 78 74 70 73 56 41 39 37 36 38 44 39 45 50 47 53 54 52 50 52 49 50 45 42 42 40 42 42 43
39 39 41 45 72 75 82 85 91 92 91 91 93 92 75 73 68 61 49 41 38 42 40 43 45 51 49 48 46 58 51 44 44 42 53 45 44 42 38 38 39 40 44
41 40 39 43 51 72 77 94 99 98 98 99 98 96 84 77 72 61 50 42 37 39 40 37 41 49 51 49 45 45 53 48 48 43 45 44 44 46 46 44 42 42 44
38 38 40 43 47 57 87 94 93 88 91 96 91 94 93 86 81 70 58 51 47 41 40 39 44 52 49 49 52 37 41 43 40 36 44 47 46 38 43 48 47 46 45
38 40 39 39 45 52 84 92 94 88 83 96 98 96 92 93 84 71 63 66 55 46 45 39 46 53 52 51 53 50 46 52 47 45 40 45 48 47 48 49 50 50 47
52 50 51 46 44 51 72 94 94 92 96 98 99 97 95 89 81 74 65 62 64 61 60 54 45 47 48 48 44 44 43 42 44 47 48 51 52 50 52 52 52 52 53

GFSSE_sfc_rhum_036.txt.gz
RH
96 94 85 81 80 80 81 80 80 81 80 77 73 74 71 69 66 64 65 66 66 66 63 65 67 70 69 70 72 70 64 62 66 68 71 67 63 66 66 66 65 66 62
95 93 84 80 77 77 80 81 84 84 81 74 70 72 69 67 65 63 61 64 67 67 67 65 69 74 72 72 71 63 62 66 68 70 72 74 75 62 62 65 66 62 64
91 87 79 83 81 78 83 82 83 83 80 77 72 70 66 65 61 60 60 62 62 70 76 78 78 77 73 68 60 58 64 70 73 73 71 79 75 59 58 65 65 66 56
90 87 85 82 82 80 83 83 84 83 80 76 75 66 66 62 60 60 62 62 64 73 74 71 72 70 70 70 64 68 71 74 75 74 79 73 70 66 61 59 58 62 65
92 88 84 84 83 80 79 81 82 81 81 77 73 70 67 61 61 61 64 64 69 68 70 70 70 69 70 71 69 70 72 76 78 77 79 81 88 67 64 71 71 69 63
96 94 88 85 83 80 78 75 74 75 76 75 76 72 66 62 63 64 66 68 69 69 68 67 69 69 70 70 68 73 76 75 78 89 82 76 85 66 69 69 71 74 75
98 96 90 85 81 79 77 74 73 72 74 75 78 70 67 66 64 66 69 72 72 71 70 71 72 75 76 75 75 77 74 82 92 89 92 90 86 62 63 69 75 74 75
95 96 91 86 84 82 78 77 78 75 76 78 78 71 69 69 70 69 69 71 73 73 72 74 75 76 77 76 73 70 72 76 82 90 88 86 74 62 60 71 71 68 69
96 97 96 94 90 86 82 84 82 78 81 83 80 77 75 76 76 74 73 70 72 73 76 75 77 78 76 66 61 63 74 79 84 82 73 80 69 60 72 71 69 67 67
98 97 98 98 96 95 93 88 88 83 81 82 82 81 81 82 82 82 83 79 73 76 78 77 79 77 68 60 60 77 77 76 83 79 80 79 66 70 72 71 68 64 63
88 93 98 99 98 97 95 90 88 86 85 85 86 90 90 93 92 89 92 86 82 80 81 81 80 75 68 71 58 70 71 80 83 80 83 80 71 68 68 70 67 63 60
84 88 90 97 98 98 89 94 94 93 95 95 95 94 95 96 97 93 94 90 86 87 86 79 78 68 65 44 49 61 80 89 93 93 89 78 69 65 67 68 63 61 60
80 79 80 84 88 98 94 98 99 99 99 98 97 96 95 98 98 98 98 98 97 95 97 76 62 51 43 40 37 63 85 92 98 98 88 77 65 60 60 61 61 60 58
82 82 79 79 83 94 95 97 97 97 99 97 97 96 97 99 99 99 99 99 99 98 94 72 58 34 34 33 37 64 86 95 98 98 92 77 66 62 59 56 54 52 52
79 76 80 81 84 88 97 96 97 95 96 89 94 97 97 98 99 99 99 99 99 98 88 69 40 34 32 33 34 55 88 92 93 97 97 78 71 59 55 53 49 47 48
87 77 79 81 84 86 91 96 93 93 94 96 98 97 97 97 98 99 99 99 99 98 84 56 39 36 36 34 34 50 88 92 92 92 92 84 68 58 50 46 45 43 46
90 92 85 82 85 88 88 95 93 89 89 89 91 96 96 96 96 98 99 99 98 97 54 40 39 40 40 37 37 41 76 90 92 90 82 74 72 62 49 42 43 42 42
53 84 94 87 87 89 85 90 92 93 92 87 86 88 90 92 94 97 98 98 97 75 46 43 44 45 43 40 39 42 50 85 88 87 72 68 68 58 50 40 39 37 37
39 45 75 88 94 88 90 92 94 95 94 95 93 87 88 84 88 93 96 97 73 59 49 41 45 42 41 42 38 46 49 60 80 66 68 60 66 54 54 45 43 40 34
41 41 43 72 90 95 94 94 97 97 96 94 94 86 91 83 85 89 94 86 58 52 50 40 38 42 44 43 34 50 61 55 63 72 67 49 61 48 47 43 43 42 45
43 44 43 46 73 92 94 94 94 94 97 96 95 88 90 84 87 88 92 77 53 44 40 35 39 36 46 51 55 57 55 56 50 53 54 52 50 46 43 41 43 45 45
39 42 44 44 49 77 92 92 92 91 94 94 94 92 90 88 88 83 87 74 51 46 43 39 40 50 48 54 49 60 54 48 48 46 58 52 50 45 40 40 41 42 47
43 42 42 45 47 68 80 94 99 99 99 100 99 97 94 87 86 78 80 76 56 50 44 39 37 42 51 50 50 49 56 53 54 47 46 46 46 48 47 45 43 44 45
40 42 43 43 48 54 89 95 94 91 96 97 94 94 95 86 86 81 73 72 67 62 48 52 39 43 44 50 50 38 42 48 48 42 47 49 47 41 44 50 48 46 48
44 45 43 41 45 52 67 94 96 94 91 96 97 96 96 94 87 84 78 79 70 68 70 58 55 47 47 45 55 52 46 51 46 45 42 50 50 50 49 49 52 50 48
64 63 62 51 43 47 64 92 95 95 94 98 99 99 98 97 93 86 78 74 74 72 77 70 66 61 52 45 46 44 46 43 44 46 45 51 49 47 54 55 54 54 55

GFSSE_sfc_rhum_039.txt.gz
RH
72 74 85 84 81 81 82 80 81 82 81 80 76 72 71 69 68 68 68 66 66 65 64 63 68 68 67 68 69 64 63 66 67 70 71 70 66 65 65 62 60 52 62
68 72 86 84 82 82 83 84 86 86 83 80 77 70 69 67 65 63 65 66 65 66 63 65 73 69 72 68 64 62 66 67 68 70 74 77 73 62 62 67 63 55 62
71 69 70 84 81 84 85 85 86 83 80 74 73 71 67 64 61 61 64 63 68 80 68 72 80 73 69 63 60 65 68 71 70 69 71 55 53 57 63 65 67 60 55
73 66 57 78 77 84 86 84 84 81 77 77 73 64 66 61 59 60 61 61 71 75 74 75 72 70 69 64 66 70 72 72 72 71 54 58 58 66 61 59 58 62 64
70 64 60 78 77 85 84 84 84 82 78 77 74 68 66 60 60 62 62 65 66 72 72 72 71 71 70 68 70 71 73 76 77 62 58 64 63 63 71 73 71 69 63
73 65 73 82 84 86 85 83 82 82 79 77 76 71 64 61 62 64 66 70 72 71 68 68 68 70 70 70 71 74 74 74 74 58 57 63 64 65 64 73 74 76 75
75 70 65 84 83 81 79 79 80 78 80 75 75 70 66 63 65 67 69 71 71 70 69 69 72 74 74 74 75 73 77 82 60 60 64 64 61 63 62 72 69 70 75
77 74 64 84 84 83 81 80 79 79 78 78 78 71 69 67 66 68 71 73 73 72 72 73 74 76 76 74 70 70 75 78 66 64 62 59 67 59 67 70 68 66 68
78 76 71 69 77 87 83 82 80 79 79 82 81 77 76 78 75 70 70 72 73 74 74 76 78 76 70 64 63 68 77 76 54 55 51 51 72 67 71 69 66 65 65
83 77 77 76 73 71 66 88 86 82 86 86 83 82 82 83 83 80 81 77 74 77 78 78 79 72 62 61 74 78 78 72 50 52 51 52 71 71 70 69 66 62 62
83 80 81 78 77 74 71 76 86 86 85 86 83 88 84 66 67 77 82 84 82 80 79 81 79 69 68 67 72 71 66 47 43 51 61 78 68 68 68 67 63 62 59
82 80 81 82 82 79 72 71 74 72 70 64 66 68 68 70 69 72 82 89 85 86 86 81 75 69 46 33 38 56 46 50 49 61 59 78 66 67 66 64 62 62 61
76 74 74 78 82 83 76 73 77 82 79 69 69 72 72 74 75 74 77 75 74 88 69 67 51 38 37 29 34 43 51 55 58 64 68 75 64 61 59 62 60 58 56
75 74 73 77 83 85 83 76 72 84 82 77 77 75 74 77 84 82 79 80 78 77 68 55 40 31 30 26 31 43 52 59 63 64 65 76 65 61 58 56 54 53 53
74 72 77 76 79 84 88 85 76 71 78 77 77 80 72 75 81 82 79 80 79 78 67 51 34 26 25 24 28 42 51 60 64 62 58 79 72 59 55 53 49 48 50
72 70 70 76 82 83 86 89 82 71 70 76 77 76 77 71 77 82 81 82 79 76 66 47 32 26 25 24 26 41 52 60 62 62 57 56 71 62 52 48 44 45 46
73 71 69 70 76 82 83 89 82 78 73 71 75 76 75 74 74 79 79 82 77 75 62 40 29 28 28 25 26 38 53 58 60 58 54 51 50 63 52 45 43 42 44
44 74 74 73 74 81 80 86 87 82 77 73 71 73 75 75 73 75 80 80 76 74 54 39 33 32 30 28 26 30 47 57 58 55 50 45 45 39 45 43 41 38 37
32 37 67 79 75 77 78 85 91 88 89 86 77 70 72 75 76 73 75 76 76 73 50 37 34 32 32 32 29 31 34 51 56 51 43 44 45 41 38 45 45 40 34
35 34 36 60 78 80 81 87 93 94 91 84 86 72 72 72 76 76 77 74 75 70 54 39 35 34 33 32 23 33 38 36 52 50 42 37 42 40 41 40 31 32 46
38 38 36 37 53 76 84 91 93 96 93 94 89 80 75 73 74 77 82 75 72 68 59 40 36 37 37 40 39 42 39 39 37 46 45 37 41 36 34 31 28 28 29
35 36 38 39 38 52 72 74 79 82 86 88 90 86 78 78 75 74 78 79 70 66 56 42 37 40 42 40 36 42 41 37 36 36 39 36 35 34 32 30 28 31 33
36 39 38 39 41 43 61 81 91 93 95 96 96 91 87 81 79 76 77 83 70 63 56 48 43 44 43 44 41 34 46 42 40 36 38 38 36 35 31 32 31 32 32
44 48 43 43 44 44 57 81 86 81 84 85 84 86 89 86 82 82 79 82 78 69 62 60 44 43 44 47 42 35 34 36 41 38 35 36 35 33 33 34 30 32 34
57 60 55 44 41 45 48 68 87 83 76 80 87 88 88 92 85 84 79 82 78 76 73 70 61 49 45 41 43 42 36 36 31 35 36 38 36 34 32 32 32 30 33
57 60 61 54 50 45 46 58 81 85 83 92 92 93 92 93 89 85 81 79 80 78 75 75 69 61 52 47 40 34 35 39 34 30 30 36 35 36 36 36 35 34 35

GFSSE_sfc_rhum_042.txt.gz
RH
52 52 86 82 80 81 80 81 82 83 81 80 77 73 73 72 72 70 67 64 65 64 63 65 69 66 67 66 65 64 66 68 69 72 71 69 65 63 61 60 54 45 64
48 50 86 85 83 82 83 83 86 86 84 81 76 72 70 67 65 67 64 65 66 64 62 70 67 70 67 66 64 66 66 66 68 72 73 74 72 62 67 68 66 52 63
48 49 58 86 86 86 86 85 85 82 81 79 74 71 68 65 62 64 64 70 77 69 66 75 74 71 67 63 66 66 68 67 67 70 64 41 43 60 63 64 65 56 59
47 47 49 84 87 87 86 84 83 80 76 76 74 69 64 61 61 63 62 71 76 78 77 74 71 67 63 66 69 70 70 70 70 66 45 43 42 66 64 61 59 63 64
48 44 48 78 85 87 86 85 82 81 78 76 71 69 62 61 61 62 62 68 75 75 74 73 72 70 67 70 70 71 72 74 69 57 49 53 53 63 70 72 69 64 61
45 42 63 77 81 88 88 87 84 80 78 75 74 70 63 62 63 63 68 74 73 72 70 69 70 71 71 71 73 72 72 72 72 45 49 56 51 62 70 74 76 77 73
45 43 49 79 85 86 86 84 84 82 80 74 72 68 63 63 65 67 70 73 72 69 68 69 71 72 73 74 73 72 78 74 45 46 48 47 53 60 70 70 73 72 74
47 46 50 79 85 84 82 83 82 81 80 76 76 70 65 66 68 70 71 72 70 70 71 72 74 76 76 73 70 71 77 76 52 48 48 47 63 61 69 68 65 68 72
48 47 51 56 67 88 86 84 83 82 81 82 80 77 76 75 72 70 72 73 72 71 72 75 77 74 68 64 64 72 75 71 43 45 40 40 70 69 70 67 64 65 63
52 48 44 46 51 52 55 86 85 84 84 86 83 82 84 84 82 75 80 77 75 76 77 80 77 65 63 69 75 78 75 70 40 42 36 45 71 71 70 67 64 63 62
59 50 46 45 47 47 47 61 83 88 88 89 83 87 83 51 59 68 73 82 82 80 79 81 74 65 66 76 73 70 66 33 31 33 37 78 69 68 68 64 62 61 62
74 56 48 48 48 50 48 50 50 49 54 57 58 58 48 44 46 51 70 88 84 83 86 81 72 62 56 30 36 55 30 32 30 36 42 76 69 67 65 64 63 62 62
69 67 62 57 50 51 52 49 47 47 47 46 49 48 44 46 53 56 58 60 53 82 60 65 59 40 35 29 30 30 32 31 29 36 60 75 65 62 62 62 60 58 57
69 68 66 65 67 58 50 52 46 49 50 48 45 44 44 48 51 49 51 55 51 50 51 52 44 36 33 28 28 27 29 31 32 36 58 76 66 60 58 56 55 54 55
66 66 64 65 70 67 60 54 50 49 53 50 51 46 44 47 50 51 52 59 52 48 48 48 41 32 28 23 24 26 27 31 35 37 43 81 72 59 56 53 51 51 53
54 59 63 66 68 67 68 72 58 52 48 51 52 52 52 46 49 53 57 63 57 53 48 45 40 31 26 23 23 25 27 31 34 38 39 53 72 64 54 49 46 49 48
33 41 50 56 61 69 71 75 70 62 53 51 52 50 51 51 50 54 53 59 57 54 50 47 38 30 26 23 23 25 29 31 35 37 39 40 51 65 56 47 45 45 46
21 26 34 45 55 61 66 69 71 71 67 58 53 57 52 51 52 52 54 54 53 56 54 46 38 33 29 26 24 24 28 34 34 35 38 37 37 34 48 49 44 42 39
20 21 24 36 44 51 55 69 79 69 75 63 59 58 57 55 54 52 52 53 53 57 56 49 41 35 33 30 27 24 26 32 36 35 35 37 37 34 30 49 49 40 37
22 22 22 24 33 42 48 69 87 88 76 77 64 58 58 56 57 59 52 53 53 59 58 50 43 36 34 32 22 23 26 28 34 36 33 30 32 35 32 35 36 33 44
24 25 26 26 26 31 43 77 89 92 86 88 82 69 60 60 60 62 58 54 54 59 59 52 45 41 36 31 31 32 30 29 29 34 34 30 32 31 30 32 25 23 28
22 23 24 26 27 28 32 47 62 67 71 72 83 85 70 63 62 62 63 65 55 59 59 57 49 45 39 33 35 37 39 32 29 30 34 32 29 29 28 27 24 25 27
26 27 26 27 28 30 30 38 52 61 68 71 82 81 80 71 65 64 64 67 64 60 62 65 54 50 47 38 33 35 46 44 35 31 33 34 31 30 28 28 26 26 26
40 44 39 33 30 30 34 36 46 56 67 61 59 67 75 80 75 70 68 65 72 66 62 64 63 54 49 46 39 34 31 30 38 40 33 33 31 29 30 29 26 27 27
45 48 44 40 36 31 32 34 40 52 53 51 56 63 63 70 83 82 78 73 71 70 71 65 66 60 50 43 45 42 35 33 29 34 38 38 33 31 29 28 27 26 27
43 46 45 39 36 38 37 33 38 44 52 54 61 66 68 73 82 86 84 80 78 76 73 70 70 66 60 54 51 41 34 34 30 27 29 34 35 32 32 30 29 27 28

GFSSE_sfc_rhum_045.txt.gz
RH
44 56 87 82 80 81 81 80 81 83 82 80 76 76 74 73 72 69 65 65 64 63 63 71 68 66 67 66 66 67 67 68 70 71 71 70 64 61 60 63 66 50 60
42 51 87 84 82 82 82 84 86 87 83 81 77 72 70 68 68 66 64 68 65 63 63 69 67 69 68 65 67 66 65 67 70 68 75 75 72 66 68 70 64 56 62
42 50 58 86 86 86 86 84 85 84 82 79 76 72 68 65 64 64 69 76 72 64 75 75 71 69 65 67 67 66 65 66 67 65 68 43 50 61 60 64 60 62 62
40 47 50 86 88 87 87 84 83 81 80 76 73 70 65 62 63 63 72 78 77 78 77 72 68 65 66 68 69 69 69 66 64 67 42 38 48 71 69 64 60 62 63
39 42 58 87 89 88 86 84 82 80 78 77 71 68 62 60 62 63 74 77 77 76 74 73 70 67 69 70 71 71 71 66 65 58 46 63 65 62 71 74 68 58 62
37 37 74 84 88 89 89 86 81 78 77 74 72 66 63 63 63 65 75 75 75 74 72 72 70 70 71 72 72 71 70 68 74 44 47 56 58 68 71 75 77 75 77
35 40 50 76 87 90 89 88 86 81 78 72 72 65 64 65 66 70 74 74 72 70 69 69 70 71 73 75 71 73 74 72 51 44 44 56 58 66 71 70 73 73 74
37 42 50 77 86 89 87 86 86 83 79 76 74 66 66 66 68 71 73 72 70 69 69 71 73 74 75 72 70 72 73 73 49 43 45 52 65 68 68 66 65 68 71
38 39 50 58 73 86 87 87 86 85 83 81 79 75 75 74 72 71 72 72 71 71 73 75 76 73 68 65 67 72 71 72 48 43 37 45 74 71 67 65 63 63 65
42 39 47 48 50 54 59 87 86 86 87 87 82 83 84 81 80 76 81 77 72 73 76 79 74 66 64 70 73 74 71 69 38 40 37 58 75 69 68 66 63 62 64
45 42 40 40 44 43 43 61 83 86 87 89 83 87 84 53 58 67 73 82 80 79 79 79 69 65 74 78 75 70 73 35 31 33 49 79 71 69 65 63 60 61 63
54 43 38 38 40 40 39 52 48 47 54 63 68 68 51 44 45 48 69 86 83 82 85 80 72 66 69 38 45 58 37 33 30 36 59 76 68 66 65 64 63 62 61
65 48 41 42 40 41 43 43 43 43 46 50 60 58 48 40 47 49 59 60 60 85 68 73 66 45 36 32 33 32 33 30 29 37 69 77 67 66 63 62 60 58 57
60 63 58 44 45 44 43 44 40 42 43 41 42 42 42 42 45 47 55 54 50 53 56 58 51 42 39 34 31 31 29 30 30 36 67 75 68 62 60 57 56 56 56
53 56 61 58 55 53 49 44 42 42 44 43 41 40 39 42 45 45 44 60 47 44 45 46 46 39 35 31 28 28 27 28 31 36 56 80 73 62 57 55 53 54 54
46 49 53 60 65 66 59 51 47 44 44 47 45 45 41 41 44 47 46 57 63 45 44 44 43 38 33 28 27 27 27 28 30 35 49 61 74 68 58 52 50 52 50
36 39 45 51 55 62 66 66 70 56 51 47 48 46 45 44 44 46 48 60 68 50 46 45 41 37 34 29 27 28 29 28 32 34 39 52 60 70 63 50 49 49 50
23 25 31 40 48 51 55 65 71 69 60 50 47 48 48 47 47 47 50 50 60 52 50 49 47 41 37 33 30 30 31 31 31 32 38 40 50 44 58 56 50 48 45
20 21 22 27 34 43 47 56 68 72 73 65 54 49 50 50 48 49 49 49 46 51 54 54 50 42 41 39 36 32 32 34 33 31 35 39 42 42 43 61 59 52 44
17 17 18 20 21 27 35 43 64 82 79 71 60 52 53 53 52 54 52 50 47 53 57 56 52 46 44 42 32 30 36 35 36 37 36 33 38 42 40 47 51 44 47
20 21 21 22 21 21 28 37 61 77 85 84 75 60 56 55 56 59 58 53 51 54 56 56 55 51 49 42 42 39 40 34 32 39 39 37 38 40 40 42 42 34 43
19 20 21 22 24 24 25 28 36 61 73 76 84 84 71 62 59 58 62 62 54 57 57 58 57 56 50 44 45 51 52 42 35 32 38 36 34 37 36 36 35 35 37
26 28 25 24 26 26 30 29 33 43 59 66 77 79 78 72 65 63 63 66 63 58 62 62 61 59 57 49 44 47 61 60 45 37 37 39 35 38 36 37 33 33 34
39 43 38 35 30 28 31 32 34 38 51 57 56 58 66 68 74 73 67 68 72 67 64 66 66 63 60 59 55 40 42 41 55 53 42 40 38 33 37 38 33 33 36
42 47 43 37 34 33 30 30 34 37 40 46 50 52 51 56 67 75 73 73 68 74 72 71 71 66 63 59 65 59 48 47 41 52 53 48 40 38 36 35 36 34 35
42 44 44 37 33 33 36 34 34 41 38 43 51 51 52 55 63 70 77 81 80 76 77 79 75 77 72 71 56 55 51 48 42 41 44 48 44 40 39 39 37 37 37

GFSSE_sfc_rhum_048.txt.gz
RH
71 82 85 83 85 87 85 83 83 84 84 81 79 77 75 74 72 68 67 66 67 65 72 70 68 70 68 68 68 67 67 68 67 69 72 70 67 64 67 66 69 59 67
65 70 86 84 85 85 85 85 87 87 84 81 77 74 71 70 69 66 69 68 66 65 70 69 71 67 68 67 66 65 66 67 66 71 78 77 76 68 66 64 69 61 63
61 70 77 87 87 87 88 87 88 85 83 79 76 71 69 66 66 67 76 73 65 72 75 72 69 67 68 67 67 65 64 65 66 71 77 70 72 65 61 65 64 66 63
56 63 70 89 89 89 88 87 86 82 79 77 74 70 65 63 65 74 79 77 75 78 74 70 67 68 69 69 70 68 64 63 67 74 65 60 61 73 72 69 62 64 65
56 55 78 90 90 90 88 87 85 81 78 74 72 67 63 63 64 76 78 78 76 75 74 71 69 70 70 72 71 70 66 64 72 66 67 66 70 71 75 75 70 67 68
52 73 87 91 90 90 89 86 84 80 77 74 70 65 64 64 66 77 77 78 77 77 74 71 70 72 74 74 72 71 68 69 76 56 64 69 77 71 73 77 78 78 77
62 69 76 90 90 90 89 87 85 81 77 75 68 65 66 65 68 76 76 75 74 72 71 70 71 73 76 74 72 72 70 76 71 57 70 67 74 68 67 72 72 73 73
61 59 66 85 89 89 90 89 85 84 79 76 71 67 67 68 70 75 75 73 71 70 71 72 73 75 75 72 71 72 74 79 64 58 69 73 76 69 66 66 65 65 68
50 58 63 77 80 86 90 89 87 85 82 81 76 75 77 76 74 74 74 72 71 72 75 77 76 73 69 68 70 70 74 74 76 55 56 81 79 68 67 65 64 64 67
52 58 64 74 75 79 88 89 88 89 85 84 82 83 83 82 81 79 82 80 76 78 79 79 73 68 67 70 72 71 73 76 62 53 80 86 74 68 67 64 61 61 64
53 57 60 62 64 66 74 83 88 88 90 90 85 88 85 80 81 84 82 83 82 83 84 79 70 68 78 80 77 76 74 66 51 62 86 82 72 67 64 62 61 60 63
69 55 54 55 58 58 49 82 81 80 89 90 79 82 77 73 70 64 84 86 84 84 88 80 72 72 77 74 74 70 64 53 48 75 86 78 69 67 65 64 63 63 62
77 69 51 53 54 55 56 69 66 64 68 75 77 73 77 62 74 73 90 90 94 94 92 90 84 72 61 59 58 53 51 46 50 76 83 78 68 66 64 63 62 60 59
77 74 65 56 57 56 58 64 59 58 63 68 77 74 68 67 67 70 79 81 81 88 89 94 85 72 64 49 48 50 42 45 48 83 89 80 72 65 62 59 59 58 58
72 73 72 72 65 62 62 62 61 59 61 61 68 66 62 66 67 69 71 74 69 73 74 82 78 68 56 50 46 43 41 42 46 78 89 81 76 66 59 57 57 57 57
62 66 70 72 74 74 78 69 59 60 60 64 63 62 56 62 66 69 69 72 77 73 66 70 68 62 55 51 41 40 42 43 47 76 83 85 76 71 60 56 55 56 54
55 56 63 68 70 69 79 80 80 78 62 70 68 60 58 58 64 65 70 84 83 75 67 65 64 59 55 45 44 40 43 43 46 54 76 80 79 75 68 54 53 54 53
37 38 50 53 64 71 72 72 75 84 82 77 65 66 61 59 61 66 71 81 84 78 79 73 71 66 60 51 48 46 47 45 45 48 61 72 73 65 69 63 55 53 53
29 29 32 33 54 63 65 70 82 81 78 83 80 60 63 61 64 64 70 72 78 77 74 75 76 65 62 58 50 51 49 51 48 42 52 60 70 67 66 69 66 63 54
27 28 29 33 32 33 51 68 84 93 84 83 76 77 70 70 71 76 71 70 68 76 79 80 76 69 64 62 41 44 50 52 52 54 53 49 56 57 62 63 65 54 58
29 30 31 32 33 35 39 49 84 94 94 94 89 75 75 63 70 77 84 82 75 71 70 76 80 73 72 64 59 54 55 45 45 55 56 55 53 52 58 60 59 55 56
28 32 34 34 35 36 39 41 52 88 90 89 92 82 79 89 76 68 77 89 79 76 79 75 73 81 74 70 63 67 66 59 50 44 57 52 50 54 49 54 54 49 56
53 55 47 42 39 40 41 46 48 51 84 95 95 93 83 78 82 82 72 74 91 89 80 79 82 78 76 78 55 66 82 75 60 51 46 57 49 54 50 47 47 39 48
58 60 55 48 45 39 41 45 49 55 60 75 90 89 90 90 87 82 85 85 82 82 82 87 90 87 84 71 81 55 71 62 65 59 51 51 52 46 48 50 42 39 39
57 62 60 54 47 45 46 45 52 54 55 57 64 75 83 89 87 86 83 87 86 84 84 89 92 89 84 74 71 88 83 63 55 69 68 58 51 52 49 44 42 42 40
61 61 60 53 49 48 49 51 50 51 56 58 61 73 75 75 83 89 87 83 78 93 90 90 91 90 86 84 73 87 78 67 62 64 78 72 57 48 50 46 41 41 44

GFSSE_sfc_rhum_051.txt.gz
RH
93 90 87 88 85 86 84 83 84 85 84 80 78 77 75 73 69 68 68 69 67 75 73 70 68 69 69 68 66 66 65 65 63 67 73 74 68 67 68 67 66 67 76
87 85 87 87 87 87 86 85 88 87 85 82 76 75 72 70 67 71 70 68 67 72 69 69 68 69 68 66 65 65 66 66 67 73 80 79 76 65 63 65 66 65 68
81 80 83 87 88 88 88 87 87 80 82 80 74 72 68 67 67 75 72 68 72 74 73 69 69 68 68 66 65 63 66 68 68 71 76 79 82 66 64 66 68 66 61
79 80 83 88 89 90 88 86 85 82 80 78 73 70 65 65 76 77 72 71 77 76 72 69 70 69 69 70 67 63 63 65 68 76 69 70 72 73 73 63 66 69 74
75 77 87 90 91 89 89 87 84 81 77 74 72 67 65 66 77 78 76 78 76 75 71 70 69 69 72 72 69 66 65 68 78 69 75 84 88 74 76 74 72 74 77
73 88 94 92 91 90 89 88 84 78 75 72 68 65 65 68 77 78 79 79 78 79 72 71 71 74 75 74 70 68 68 71 76 69 80 82 85 72 74 76 78 76 74
84 84 90 92 91 90 89 87 86 82 76 71 67 66 66 70 76 77 78 77 76 75 72 71 72 75 75 73 71 69 71 78 72 77 76 82 79 66 70 70 71 72 73
81 80 86 92 91 90 89 88 86 83 79 72 70 68 68 70 75 76 76 75 73 72 71 72 74 76 74 72 69 69 74 78 67 76 79 88 77 66 67 66 68 68 66
69 76 90 85 83 90 92 90 86 84 82 78 76 75 75 77 77 76 75 73 72 72 74 76 76 74 71 70 69 67 73 76 67 72 74 91 77 68 66 65 65 65 65
68 70 91 89 75 82 95 91 90 86 86 81 82 85 85 84 83 81 82 80 77 78 80 79 74 69 68 70 69 73 76 77 68 86 94 91 73 69 64 63 62 64 65
69 71 82 89 87 89 94 90 93 90 89 87 87 88 87 90 88 87 88 84 84 85 83 79 72 71 79 80 76 74 77 69 66 94 96 83 71 67 64 62 62 64 64
78 73 74 77 78 82 71 94 96 91 96 95 90 90 85 88 89 78 88 88 85 87 88 80 73 76 78 82 79 74 69 63 78 94 95 81 71 68 66 64 64 64 63
85 78 68 70 70 71 71 89 93 96 98 98 93 87 88 78 85 85 97 95 96 95 98 91 87 81 77 74 69 59 57 55 80 92 86 80 70 68 66 64 63 62 62
85 86 78 64 64 69 74 74 74 77 84 91 87 84 89 89 83 91 90 96 97 98 97 98 97 84 71 64 65 58 54 48 76 96 92 83 74 68 65 62 62 60 60
85 79 78 78 74 65 73 71 71 66 72 74 87 82 82 85 78 81 85 87 88 93 95 98 97 90 80 66 53 54 49 46 74 96 97 86 80 71 63 60 61 60 59
82 78 74 76 79 78 80 72 68 64 65 72 78 81 79 77 71 77 82 84 83 81 81 90 93 88 75 61 53 48 47 48 62 93 94 90 81 76 64 59 60 60 60
74 72 76 75 74 81 82 86 87 79 69 74 71 68 70 68 72 73 79 87 80 80 74 82 85 75 64 58 51 46 48 49 62 93 90 89 84 80 71 59 58 59 58
59 70 73 64 72 79 82 85 89 88 89 83 68 72 63 62 67 72 78 86 82 79 84 80 80 76 67 60 53 50 48 50 52 86 87 83 84 77 77 67 61 59 58
35 36 56 69 77 78 87 80 85 84 91 92 91 86 63 63 66 70 76 81 88 82 85 86 84 74 70 64 54 53 53 54 52 51 85 82 82 79 78 76 72 69 64
34 34 34 35 63 75 77 81 92 96 95 92 87 90 86 75 69 74 77 76 86 88 83 92 86 79 70 65 46 48 56 56 58 57 64 73 76 74 72 75 79 75 71
27 32 37 35 36 39 46 73 98 92 96 98 97 84 88 92 77 77 91 87 85 84 80 82 87 80 75 74 63 62 60 55 56 59 61 64 70 68 71 72 69 64 66
55 54 49 43 41 41 47 49 60 96 97 90 94 93 86 92 94 90 78 85 90 89 89 86 89 94 90 86 78 66 60 57 55 49 62 59 61 60 64 62 58 56 60
64 65 58 54 49 46 44 47 52 58 79 98 98 97 94 91 91 94 94 91 89 92 90 93 93 93 89 94 78 74 84 72 68 61 49 68 59 64 58 58 55 51 53
63 63 61 59 54 48 47 48 52 56 60 76 95 96 96 93 91 89 91 95 95 95 92 89 93 94 94 91 95 67 85 72 69 66 62 60 66 53 56 55 54 48 46
58 63 62 57 52 52 53 51 54 56 63 66 66 69 89 96 94 93 92 93 96 98 94 94 93 96 94 92 86 92 92 89 67 76 73 81 73 70 61 48 50 47 46
64 63 61 57 55 57 58 58 60 62 60 62 62 64 67 81 92 96 94 94 94 95 97 97 97 96 93 88 82 89 86 82 76 82 90 90 86 77 62 55 55 51 47

GFSSE_sfc_rhum_054.txt.gz
RH
97 95 90 86 83 83 83 82 83 84 84 80 78 77 75 71 69 67 68 68 74 74 71 68 69 70 69 66 65 65 65 63 66 72 74 73 69 67 66 67 71 78 74
95 91 90 87 86 86 86 86 88 87 86 82 79 76 71 68 70 69 68 72 74 68 68 68 68 68 67 64 64 67 66 67 68 73 79 79 76 64 63 65 68 72 71
89 86 88 89 89 89 88 87 89 86 84 80 74 72 70 66 74 71 70 72 73 70 70 69 68 67 65 64 66 69 68 66 69 72 76 88 80 65 67 69 67 62 62
84 86 83 90 90 89 88 86 82 77 78 77 74 70 66 73 75 70 71 76 77 72 71 70 68 68 68 66 66 66 67 67 70 76 76 82 76 73 65 69 70 74 75
88 85 83 90 91 89 87 84 80 80 76 75 72 68 68 76 76 72 72 79 75 72 72 69 68 70 70 69 68 67 68 72 77 75 86 93 90 75 69 72 76 78 76
94 96 90 92 91 90 89 86 83 78 74 72 69 68 70 78 78 79 80 80 76 77 72 70 72 74 74 71 69 68 71 73 77 88 94 86 88 74 75 77 76 73 77
96 96 95 92 91 90 89 87 83 77 74 69 66 67 71 77 77 77 80 79 78 74 72 72 74 75 74 72 68 69 72 76 77 86 90 89 80 69 67 72 71 71 72
90 94 94 93 92 90 89 89 85 81 74 70 68 68 70 75 78 79 79 78 76 73 72 73 74 75 74 70 68 70 73 75 73 82 90 92 76 65 66 69 69 67 66
84 93 96 94 90 93 91 91 87 84 79 77 76 75 76 80 78 78 77 76 74 72 73 75 76 75 73 70 67 68 73 76 79 83 85 92 78 68 66 66 65 64 64
86 93 97 95 79 81 94 92 89 87 83 80 81 84 84 84 84 81 83 81 76 77 78 79 77 73 71 70 70 71 73 75 86 93 96 92 73 66 63 64 63 65 65
80 91 96 95 84 85 95 92 90 91 88 87 88 88 89 94 92 89 90 85 85 84 82 79 74 72 79 80 76 74 74 72 90 97 98 84 72 67 64 63 63 63 64
89 88 91 94 94 95 82 96 97 91 96 94 93 93 96 95 95 88 92 90 87 88 88 81 75 78 82 86 84 77 74 66 95 98 98 82 70 67 66 63 65 64 64
90 84 84 86 87 91 86 99 99 99 99 98 94 94 93 88 96 96 98 96 97 96 98 94 91 89 86 79 73 70 62 64 97 98 92 83 72 68 66 65 64 64 62
87 83 78 82 85 89 90 95 97 99 99 99 96 91 96 97 94 96 98 98 98 98 99 98 98 92 79 70 72 68 60 59 95 98 95 85 75 69 67 64 64 63 62
85 84 84 75 82 77 87 84 86 89 94 96 97 90 87 95 89 92 94 98 98 98 98 99 98 97 91 77 68 66 61 56 78 98 98 89 83 74 66 63 63 62 62
86 81 81 82 79 80 83 81 75 76 79 84 91 88 86 86 85 86 87 89 92 92 95 97 97 97 96 84 68 58 55 54 70 95 98 96 86 80 70 63 62 62 61
86 81 77 78 82 83 83 82 84 79 73 79 80 87 84 84 81 82 84 86 85 84 89 95 97 97 96 80 67 51 48 51 59 95 97 97 92 85 77 64 62 62 62
86 82 77 66 76 83 87 87 90 93 91 78 78 82 82 80 80 79 80 82 84 86 83 89 91 96 90 80 66 56 49 54 54 93 96 93 94 85 80 72 65 62 62
67 72 84 82 80 82 88 88 92 92 96 94 93 86 74 71 71 74 74 78 90 86 84 86 90 86 87 76 66 58 55 56 56 64 95 94 92 88 88 80 77 72 69
40 40 42 74 85 87 87 92 95 96 96 96 95 93 89 82 74 79 80 81 88 94 90 95 90 91 82 73 56 52 60 59 61 65 86 85 89 86 84 81 85 80 77
47 44 44 41 42 65 86 96 97 97 96 97 98 93 94 91 90 90 92 93 94 92 87 91 93 94 91 88 85 64 64 61 60 65 67 84 86 81 82 77 80 80 81
61 61 57 52 46 42 50 54 72 96 97 97 96 96 95 94 96 95 92 93 94 84 87 95 95 96 96 93 91 78 64 62 58 56 67 63 78 81 77 77 76 71 75
66 67 61 60 57 52 45 49 53 59 71 97 98 98 97 95 95 96 96 96 96 96 94 94 95 95 92 97 93 89 81 77 73 66 56 64 65 75 77 76 72 67 65
65 69 64 59 55 53 54 52 51 54 58 68 86 93 92 95 96 95 94 97 96 97 96 95 93 94 96 96 97 86 92 83 74 80 66 66 74 65 69 75 70 67 59
63 67 67 59 60 60 60 62 62 60 64 67 68 64 67 77 89 96 96 95 98 98 96 97 97 98 96 93 94 93 93 95 90 87 81 82 88 79 73 62 69 66 56
66 67 68 65 66 67 68 68 69 73 75 73 71 72 74 74 82 90 94 98 97 97 98 98 98 98 97 96 96 91 86 88 80 92 91 92 88 88 81 69 63 68 66

GFSSE_sfc_rhum_057.txt.gz
RH
95 97 89 84 82 82 82 81 82 83 82 79 78 76 72 71 68 68 68 74 78 71 69 68 68 68 67 64 66 65 65 67 71 74 75 74 68 64 68 72 79 80 73
94 96 88 86 84 84 85 85 88 87 86 80 77 74 70 69 70 67 73 76 69 68 67 66 68 67 65 66 68 68 68 70 72 74 78 80 75 63 65 68 72 74 71
93 92 88 88 88 88 88 86 87 86 84 80 74 73 68 72 72 68 74 74 70 70 69 67 67 66 64 69 70 68 68 69 71 76 81 91 80 66 67 68 64 63 65
92 92 90 90 90 89 87 86 86 83 77 75 74 70 65 75 71 71 74 75 70 72 70 67 68 67 66 69 69 68 68 69 68 75 83 88 81 66 69 71 74 74 68
92 91 91 91 90 88 87 86 82 80 76 75 72 68 74 75 69 72 78 78 74 73 70 68 68 68 68 68 69 69 70 73 80 81 93 94 92 68 71 76 75 78 78
96 94 91 92 91 90 87 84 82 77 76 73 70 69 75 74 72 72 81 78 78 76 69 69 71 72 72 71 69 70 71 74 82 93 95 88 89 75 75 76 74 74 78
97 93 83 92 91 90 87 86 82 76 73 70 68 70 77 74 77 77 77 77 77 74 70 72 73 74 73 71 70 70 72 80 87 94 93 90 86 68 71 71 72 72 72
96 96 85 92 92 91 88 86 83 76 73 69 68 69 78 77 79 76 80 80 76 73 71 71 73 72 71 69 68 70 73 78 78 91 92 91 76 65 67 68 68 66 66
96 97 98 96 94 94 92 89 86 81 78 76 76 76 76 81 81 76 79 78 75 72 72 72 74 73 71 69 67 70 76 80 82 91 88 93 78 62 65 67 64 63 63
97 90 94 97 95 96 96 94 90 86 83 81 82 84 86 84 83 81 84 82 76 74 75 76 75 73 72 70 69 72 74 78 87 92 96 94 72 63 63 63 63 63 64
95 98 99 98 93 94 96 95 93 90 88 87 88 89 91 95 93 90 91 85 83 83 81 80 76 72 79 80 78 75 72 77 92 97 98 86 71 65 64 63 64 63 63
97 97 98 97 95 95 86 96 96 93 96 95 94 93 96 95 96 91 93 90 87 88 87 82 77 79 85 86 85 77 77 69 87 97 98 87 71 67 65 62 64 63 63
93 95 96 96 96 96 95 99 99 99 98 97 95 95 95 92 97 97 98 97 97 96 98 95 92 94 89 81 76 75 68 65 94 98 94 87 73 68 66 64 64 63 63
92 92 93 93 95 96 98 99 99 99 99 99 97 95 97 98 98 98 98 98 98 98 98 99 98 95 89 78 80 73 65 65 83 99 96 90 80 69 68 66 65 63 62
92 89 88 91 94 95 96 98 99 99 99 98 98 96 96 97 97 97 97 98 98 98 99 99 99 98 95 87 72 68 69 67 64 98 98 94 86 77 70 66 65 63 63
90 89 87 84 88 90 94 95 92 97 97 99 99 97 94 94 96 94 96 96 98 98 98 98 98 98 98 96 87 74 66 59 60 91 98 97 90 85 75 66 65 63 62
89 84 86 86 80 84 87 90 89 84 84 91 93 97 95 92 93 89 91 95 92 95 95 98 98 98 98 95 93 76 64 58 57 81 97 97 95 90 83 68 66 64 62
89 88 83 72 83 79 81 83 80 83 85 84 85 94 94 91 92 89 89 90 89 96 94 97 96 98 98 98 96 82 64 57 55 64 95 97 97 95 88 80 72 66 64
86 89 88 82 86 88 89 86 92 90 94 91 85 84 88 89 89 86 85 85 93 91 92 90 95 94 97 97 93 84 70 59 57 54 91 96 96 96 95 85 83 78 73
43 60 75 87 89 90 92 94 95 97 97 97 98 95 84 78 83 88 87 87 92 94 95 97 91 97 94 91 78 71 70 65 62 64 75 90 95 94 93 92 92 85 81
51 48 48 50 47 93 96 97 98 97 97 98 98 94 95 95 90 88 88 91 94 96 93 95 95 95 97 90 87 82 69 65 63 62 70 87 95 91 91 85 85 92 84
64 63 58 52 48 47 58 64 89 97 97 97 96 96 95 95 96 97 97 97 95 93 95 94 92 96 97 96 95 87 81 78 66 62 70 61 74 95 90 84 79 84 84
65 66 64 63 60 54 49 52 56 60 70 92 96 98 96 96 97 97 97 97 96 96 96 94 97 96 94 98 95 92 84 83 83 71 64 67 63 91 93 91 86 83 82
70 71 66 60 60 59 58 55 51 53 54 61 80 81 71 75 92 96 97 98 98 98 98 96 95 95 97 98 98 93 95 84 84 88 70 69 71 72 82 95 90 85 78
69 70 66 66 67 67 65 65 66 64 64 65 65 62 62 67 73 88 95 98 99 99 98 98 98 98 97 96 98 97 95 95 86 88 86 85 85 86 83 80 82 77 72
76 74 73 70 74 74 74 76 75 75 76 76 76 77 82 82 93 93 92 95 99 99 99 98 98 98 98 98 97 96 91 91 93 92 92 88 92 85 88 82 83 82 79

GFSSE_sfc_rhum_060.txt.gz
RH
98 97 88 83 82 82 82 81 80 82 81 78 77 74 72 70 68 67 74 76 72 70 67 67 66 67 66 67 66 66 70 71 73 75 76 73 66 70 74 77 78 78 71
94 96 88 85 83 83 83 83 86 87 85 79 77 73 70 69 66 72 75 72 69 67 66 67 69 66 67 68 70 71 74 75 73 75 79 81 76 66 69 71 73 74 70
94 92 88 87 87 87 87 86 86 85 82 79 75 72 70 71 69 76 74 71 71 69 66 66 67 65 70 70 69 70 71 72 77 78 82 91 81 67 69 66 64 65 66
95 91 91 90 90 89 87 85 85 82 77 76 74 69 71 71 71 76 74 71 72 70 66 68 67 66 71 71 71 70 70 69 71 79 94 92 79 69 73 75 74 72 65
97 94 92 91 90 89 87 87 84 78 76 74 72 67 78 71 72 75 76 74 74 71 68 69 68 68 70 70 70 71 72 76 80 88 94 94 89 71 74 76 78 77 75
99 97 94 92 91 90 88 85 81 77 76 73 70 73 76 70 72 79 80 78 77 72 68 68 70 70 72 71 71 71 72 79 86 95 96 90 85 76 74 75 73 73 77
97 94 93 93 91 89 87 85 82 77 75 72 69 74 79 76 74 82 80 78 77 72 70 72 73 73 73 71 70 72 76 82 94 95 93 91 86 68 73 73 72 70 69
96 90 81 93 92 90 88 86 83 76 72 70 71 75 76 73 76 77 78 78 76 73 71 72 73 73 72 70 70 71 75 80 85 92 92 92 76 65 70 69 67 67 67
97 95 84 96 95 93 90 88 84 80 75 74 76 80 84 85 85 80 81 79 75 73 71 72 74 74 73 71 69 71 76 80 88 94 88 95 77 62 64 65 64 64 65
99 98 98 99 98 98 96 91 88 86 83 82 82 84 84 88 87 83 85 83 77 74 74 76 75 74 73 73 72 72 77 79 88 92 96 96 70 60 64 63 63 64 64
89 85 88 99 98 98 97 95 92 89 87 86 88 90 92 94 92 92 92 87 84 82 79 80 78 74 78 80 78 75 71 80 92 97 98 87 73 64 63 62 62 61 62
90 87 90 99 97 98 90 98 97 94 96 95 94 93 96 95 96 92 94 90 87 88 88 82 79 80 84 88 85 77 78 70 83 96 98 87 75 67 64 62 63 61 61
97 99 99 98 96 97 96 99 99 99 98 97 94 95 95 94 98 98 98 97 97 96 98 95 94 95 90 86 80 79 75 69 80 98 95 89 77 69 67 64 65 62 62
95 96 97 96 97 97 98 99 99 99 99 99 97 95 97 98 98 98 99 97 98 98 98 98 99 96 92 85 84 78 70 67 71 97 96 92 85 72 68 66 66 64 62
94 94 95 96 96 97 97 99 99 99 99 98 98 96 97 97 97 97 97 97 98 98 98 99 99 98 96 94 83 76 74 73 67 88 98 95 91 83 70 68 67 65 64
93 93 92 95 95 96 97 97 99 99 99 99 99 98 96 97 97 97 97 97 97 98 98 98 98 99 98 97 95 90 78 74 69 68 96 97 92 89 80 71 68 66 64
93 90 91 90 91 95 95 96 98 98 96 99 99 98 96 96 96 94 97 97 96 97 96 98 98 98 99 97 97 96 86 73 65 63 82 97 96 93 89 73 69 67 66
91 91 91 78 85 92 93 93 94 93 93 94 97 98 97 96 96 97 97 97 96 97 97 98 97 98 98 98 98 97 92 76 65 59 73 94 98 96 92 86 78 70 67
92 92 92 89 90 90 92 90 94 92 92 93 94 95 95 96 96 96 96 94 96 97 98 96 96 96 97 97 97 97 97 87 74 58 65 84 95 96 98 92 88 84 78
45 66 90 92 91 94 95 95 97 96 97 97 95 90 89 90 95 97 96 94 97 98 98 98 96 98 96 95 92 89 93 85 75 68 64 74 94 96 97 96 94 87 85
48 48 52 75 78 96 97 98 98 98 98 98 98 96 96 94 92 96 97 97 96 96 93 96 97 96 98 96 93 95 87 77 72 67 66 70 86 95 97 96 94 95 92
57 57 54 52 49 61 81 90 96 97 97 97 97 96 95 96 96 97 96 96 96 96 96 96 97 97 98 98 96 92 96 88 77 69 72 67 69 94 96 95 95 94 94
66 65 62 62 60 55 52 55 58 60 68 86 95 97 97 96 97 98 98 98 98 97 97 96 97 97 96 99 95 96 93 91 82 77 67 72 71 84 94 96 95 93 94
76 74 63 62 62 62 61 56 52 55 56 64 75 76 68 67 72 86 96 99 99 98 98 97 97 97 98 98 99 97 96 80 89 93 71 60 62 69 74 86 95 94 92
77 74 71 70 70 68 67 66 68 67 68 71 70 70 73 78 89 92 93 95 97 98 96 98 99 99 98 98 99 98 97 96 89 94 96 92 81 78 77 74 79 94 90
80 78 77 76 78 78 80 80 77 76 78 78 78 79 87 90 95 94 93 95 96 92 94 98 99 99 99 99 98 98 94 95 96 97 98 95 94 88 87 82 86 88 88

GFSSE_sfc_rhum_063.txt.gz
RH
75 76 87 85 83 83 82 78 81 78 76 76 75 73 71 69 67 74 75 72 72 71 66 65 67 68 67 67 69 70 69 71 72 74 72 73 72 73 75 77 75 61 72
71 74 88 86 84 84 84 84 86 86 84 78 74 71 68 66 71 75 74 70 68 66 66 65 67 69 70 71 73 75 76 75 75 76 78 79 76 69 69 72 73 63 68
75 71 71 87 86 86 87 85 86 84 82 77 73 70 71 70 75 75 71 71 69 65 66 67 68 70 70 71 71 72 72 75 78 85 84 59 61 73 74 66 67 66 64
78 71 68 87 87 88 88 86 86 81 78 77 72 71 70 73 77 73 72 73 70 66 69 68 69 72 73 72 72 71 71 72 84 86 67 58 58 74 74 74 72 67 73
76 72 73 90 90 89 87 87 83 78 76 75 68 73 72 73 76 75 74 75 72 69 70 69 69 72 72 72 72 71 75 79 86 74 68 63 69 69 73 75 74 76 76
78 72 85 92 90 90 89 86 81 77 74 72 71 75 77 73 76 80 78 78 73 71 69 69 71 73 74 73 72 72 76 81 82 68 67 68 67 75 74 74 72 72 73
81 74 75 90 91 90 87 84 82 77 74 71 71 77 76 72 80 81 80 78 75 72 72 71 72 74 73 72 71 74 77 85 65 66 67 65 62 70 70 71 70 70 68
78 77 74 91 91 89 86 86 83 77 73 71 76 79 80 79 80 77 78 78 76 72 72 73 73 73 72 71 71 71 77 81 65 62 64 62 70 66 70 67 65 65 67
74 74 76 76 83 92 90 87 84 79 76 77 80 82 77 80 82 81 81 78 76 73 72 75 75 74 73 71 70 71 78 79 55 60 63 59 76 62 67 65 65 65 66
79 75 82 78 74 74 72 89 87 84 82 82 82 85 88 89 85 84 86 83 76 74 75 77 76 75 74 74 71 73 82 78 55 65 64 60 71 60 65 64 63 63 63
84 78 76 80 78 76 74 77 86 88 86 85 84 90 85 70 72 75 88 88 85 79 78 78 77 75 78 80 76 74 72 52 55 60 62 81 79 64 64 63 62 61 62
83 78 77 88 81 81 77 76 75 73 69 67 68 70 71 72 71 74 84 90 86 87 88 82 78 77 76 56 54 66 51 47 50 61 62 86 81 68 64 62 63 61 61
78 79 81 87 82 82 79 83 81 78 74 71 71 71 72 73 75 75 76 73 75 88 76 77 75 67 67 58 53 48 52 50 43 50 66 87 84 72 68 65 65 62 62
89 84 86 85 84 82 79 82 81 81 78 76 73 71 71 69 73 76 75 76 76 73 78 78 75 73 70 64 54 49 48 46 42 46 62 91 87 78 69 68 67 65 63
86 84 84 85 84 82 83 82 83 81 79 74 75 73 70 71 68 68 69 70 71 73 74 76 75 74 73 69 64 56 48 46 44 43 51 91 91 87 76 69 68 67 65
84 80 79 82 82 80 80 82 81 81 79 80 78 75 75 71 70 70 68 68 66 68 68 70 72 73 72 71 68 65 61 55 48 47 44 53 91 91 85 74 69 68 67
88 76 78 79 79 80 78 78 79 80 81 82 80 78 76 75 74 71 70 70 66 66 66 70 72 74 75 73 71 65 65 61 58 47 45 48 55 89 91 82 72 69 68
83 80 75 71 76 78 76 76 75 78 76 77 78 80 80 77 77 76 74 72 68 70 71 71 70 72 74 71 68 66 65 65 62 56 50 47 51 54 74 89 84 74 70
76 80 79 76 72 74 78 75 77 76 76 74 71 71 74 77 78 78 75 73 72 74 74 74 72 74 72 70 70 68 69 68 65 62 58 55 53 56 57 77 92 89 83
51 76 76 76 75 75 74 80 85 85 83 81 77 70 68 69 74 80 78 78 75 76 76 78 77 76 73 71 74 74 71 68 67 64 59 56 59 60 58 64 65 70 90
35 42 56 72 79 80 83 84 87 81 84 86 84 75 74 73 73 80 84 83 84 82 79 79 80 81 81 85 88 78 72 68 64 61 58 57 57 58 57 60 62 65 67
40 42 43 53 58 79 82 83 83 86 82 80 84 82 80 82 83 85 84 85 82 83 80 79 82 83 86 88 85 84 86 66 63 60 56 54 52 51 55 58 59 64 68
49 50 48 49 48 47 56 56 57 57 61 72 83 86 82 75 86 91 91 91 91 90 90 86 85 87 90 89 85 84 91 81 69 63 54 50 50 50 51 59 62 65 70
58 64 58 57 56 55 51 47 45 50 54 55 59 61 53 54 56 66 73 82 89 95 97 95 93 90 91 92 94 89 87 79 93 87 65 55 54 53 55 59 64 65 66
67 66 64 62 61 60 59 55 54 54 55 58 57 58 62 69 78 78 78 79 83 87 88 88 93 97 96 94 94 93 92 93 88 96 95 87 79 72 67 54 54 53 60
70 69 70 66 68 67 67 65 63 62 62 62 64 64 71 75 80 78 78 79 82 84 86 86 89 96 97 96 91 89 86 88 88 93 97 92 85 73 76 64 65 64 64

GFSSE_sfc_rhum_069.txt.gz
RH
47 62 87 82 80 80 79 79 81 80 77 75 74 71 68 75 75 74 71 70 71 71 72 70 70 71 70 70 70 71 70 70 70 72 77 78 73 74 74 73 67 54 66
43 56 88 85 83 83 81 83 81 81 79 75 70 66 70 75 75 69 68 66 67 67 73 70 68 71 71 72 74 76 78 79 72 71 74 81 81 68 68 69 72 67 71
42 52 66 87 86 86 84 82 82 80 77 73 69 66 76 75 71 71 68 65 65 67 71 69 70 72 72 72 72 73 79 81 79 76 72 61 64 77 69 68 76 74 74
39 49 54 90 88 86 85 84 82 78 76 73 71 74 76 72 72 68 66 66 67 69 71 68 74 74 74 73 72 73 74 79 78 79 47 54 57 75 75 74 73 75 72
38 42 61 90 88 88 85 84 81 79 75 74 73 76 79 75 74 74 68 71 72 72 73 74 75 75 74 74 74 72 72 73 78 59 62 70 60 68 74 75 71 71 75
37 38 80 90 90 90 89 85 79 76 73 73 74 74 80 78 78 76 71 72 73 73 73 74 75 75 75 74 74 72 73 74 80 45 47 56 61 69 70 68 68 68 70
35 46 57 89 91 90 87 85 79 74 71 76 76 73 78 80 80 78 74 73 73 72 74 74 74 74 74 75 75 73 73 76 42 44 47 54 63 67 66 65 67 66 67
37 48 58 88 91 89 87 85 81 74 73 75 79 77 78 83 81 80 77 73 74 73 72 73 73 73 72 70 70 73 72 75 44 43 48 56 70 68 67 66 64 63 65
38 45 52 64 80 91 90 88 84 78 78 80 81 82 85 84 82 79 78 75 72 75 75 74 73 72 71 69 69 70 73 73 49 42 38 52 72 66 67 66 64 62 64
46 50 59 58 56 60 62 88 86 83 83 87 87 87 88 84 84 85 85 81 75 74 76 76 73 73 72 70 68 69 76 78 43 42 42 58 73 64 66 65 63 62 63
60 59 63 55 55 54 52 68 82 84 84 87 83 89 82 49 57 63 86 86 80 77 77 77 75 73 73 75 70 69 74 43 37 38 39 76 72 66 64 64 62 61 61
66 67 61 58 57 58 55 58 50 50 44 42 50 56 44 40 44 54 74 87 82 81 82 79 77 76 76 41 51 69 46 36 36 38 42 73 73 73 66 65 64 61 61
65 54 59 62 56 60 57 57 45 46 42 37 33 35 34 36 44 45 51 58 59 84 56 69 68 58 44 43 39 34 35 37 35 36 50 74 73 73 70 69 66 64 62
60 63 59 51 60 56 58 59 43 42 44 42 41 39 39 39 40 36 38 44 48 46 42 43 42 42 44 44 41 38 34 35 34 35 42 76 75 74 73 71 71 68 65
70 66 67 60 60 56 59 58 57 46 45 44 46 44 42 42 41 39 37 37 39 38 37 38 42 43 44 44 42 41 39 37 35 37 38 80 78 77 77 74 69 71 70
65 62 63 59 58 55 56 59 46 42 42 44 46 48 46 44 45 45 45 45 38 38 37 39 43 46 47 46 46 45 44 43 42 43 43 47 80 79 77 77 73 68 66
58 56 55 56 57 56 61 61 46 43 42 45 46 46 50 49 49 47 47 48 48 44 42 43 46 47 50 49 49 47 46 44 45 44 47 48 53 84 81 71 73 72 69
51 56 54 52 53 58 54 56 51 48 45 45 46 47 49 49 51 51 51 51 50 50 50 51 52 53 52 50 49 48 46 46 46 46 48 49 53 48 74 80 75 72 72
51 53 58 59 58 56 54 58 58 54 50 48 48 48 49 50 51 54 53 52 49 52 53 54 54 54 58 57 58 57 57 52 49 47 48 50 52 56 56 72 84 83 85
44 50 54 58 59 56 58 59 65 60 55 51 48 47 48 48 50 54 54 54 52 56 57 58 59 62 68 62 60 56 55 54 54 54 52 48 50 55 56 59 64 66 87
24 44 50 58 60 58 61 66 67 72 68 61 55 53 52 51 50 54 58 58 59 63 61 59 61 67 68 69 74 71 66 59 57 56 54 53 52 53 54 56 57 57 57
21 22 34 51 56 57 58 61 63 62 59 55 60 59 57 57 58 59 62 68 74 78 72 73 78 84 83 81 87 82 84 62 53 57 55 54 52 53 52 50 50 52 57
24 26 25 32 48 54 58 60 66 68 71 68 65 64 63 63 65 74 80 86 90 93 93 91 91 92 94 89 87 91 86 73 64 63 60 56 51 53 52 52 52 52 54
30 38 35 33 36 43 53 68 68 69 71 63 58 61 64 51 52 53 59 66 73 81 86 87 86 88 90 88 85 83 84 88 85 74 64 62 57 54 56 57 53 52 54
41 51 45 40 38 39 41 45 54 59 50 46 43 42 40 45 51 53 53 55 59 63 67 70 72 75 79 85 82 81 88 90 92 99 93 79 68 65 60 58 54 53 55
46 55 56 46 43 42 41 39 40 43 41 47 52 50 47 49 56 58 59 59 63 64 67 72 75 77 78 77 84 80 80 89 90 96 97 83 83 71 60 59 61 61 61

GFSSE_sfc_rhum_072.txt.gz
RH
80 86 87 84 81 82 80 79 79 80 77 76 71 70 76 76 74 70 70 72 76 74 72 73 69 68 70 71 73 72 67 69 70 73 79 78 72 70 67 74 75 68 66
74 78 87 85 83 83 82 81 84 84 82 73 67 72 76 73 69 67 67 68 71 74 74 74 67 69 71 73 75 77 75 71 70 74 83 85 80 70 71 78 79 76 67
69 74 79 86 85 85 84 82 83 80 78 75 70 77 75 72 70 66 65 67 70 71 72 66 71 72 72 72 75 76 77 77 77 80 77 78 80 76 76 76 79 73 66
62 71 77 89 86 87 85 83 81 78 75 76 75 78 73 71 69 65 67 68 70 66 66 70 74 74 74 74 71 71 74 75 82 81 67 63 59 74 76 73 70 75 76
62 62 77 89 88 88 86 84 80 77 76 78 79 81 78 75 73 67 71 72 74 73 70 74 75 75 75 75 70 69 72 75 77 70 70 76 80 68 70 69 69 71 73
54 79 92 90 89 89 88 86 80 76 75 76 80 83 82 78 74 70 73 74 76 78 76 76 76 76 76 75 71 70 71 76 76 63 72 74 78 65 64 65 64 66 68
72 78 86 90 91 90 88 85 81 75 77 77 78 81 81 80 77 72 74 74 74 76 75 75 75 74 77 76 72 70 72 80 67 64 71 80 76 67 66 65 63 65 67
65 70 79 91 91 89 87 85 82 78 79 80 81 81 84 81 80 77 74 76 74 74 74 74 74 73 72 71 71 73 76 78 64 60 74 80 76 68 66 66 63 62 64
56 69 83 87 89 91 90 88 84 82 85 84 85 85 88 84 83 79 77 74 76 75 75 75 74 74 72 71 70 73 77 79 79 57 63 77 75 68 66 65 64 62 62
63 63 76 80 78 80 89 88 85 86 89 88 89 90 88 86 88 87 86 82 77 78 78 76 75 74 73 71 69 72 76 81 80 56 72 84 76 67 67 65 63 62 61
64 61 75 71 67 70 77 84 86 85 89 87 88 89 87 79 81 86 87 86 84 82 79 78 76 74 79 78 76 74 74 70 64 56 76 80 73 66 66 66 63 62 61
80 78 75 61 60 62 62 81 74 72 86 84 78 83 75 70 78 73 90 88 85 84 85 80 80 80 80 74 79 76 74 66 56 54 79 77 69 70 68 66 65 62 62
78 78 74 68 64 65 64 72 63 66 56 58 67 72 66 62 74 80 95 92 96 93 91 92 93 89 80 67 65 61 57 52 56 57 75 75 68 66 70 72 68 65 63
82 76 73 72 72 68 65 74 67 62 64 60 54 51 56 58 64 63 76 81 82 87 83 85 80 79 67 61 61 58 54 53 54 54 75 77 74 66 68 70 75 71 68
82 76 75 75 73 73 68 67 72 67 63 63 61 57 59 64 61 58 58 64 67 66 62 63 63 62 63 61 60 58 57 56 53 54 59 83 77 75 68 69 70 73 73
80 76 75 74 72 67 69 67 70 64 58 64 66 66 59 64 65 66 64 63 60 58 58 58 63 68 68 67 64 63 63 63 62 60 62 74 83 77 74 68 70 69 69
73 75 74 74 67 66 68 69 64 61 57 64 67 63 63 64 67 67 69 73 67 61 56 62 64 68 71 68 70 66 65 65 66 65 66 68 76 84 79 68 68 71 71
68 72 70 66 73 72 72 74 73 63 63 66 65 66 63 63 66 69 72 72 72 71 70 73 75 77 78 77 76 72 69 65 63 65 65 68 71 65 80 79 78 72 70
63 67 72 66 68 73 67 71 72 64 65 62 67 66 63 63 64 72 74 74 70 74 77 77 76 76 66 66 69 67 70 66 69 64 68 66 69 71 74 85 85 82 82
61 66 71 78 80 74 80 77 78 74 76 69 67 66 64 66 66 73 76 74 63 66 66 70 70 74 77 77 72 72 74 77 79 76 74 66 70 67 68 72 85 89 87
36 69 71 75 82 82 84 92 93 90 85 79 76 64 63 61 60 70 78 75 68 71 70 72 73 77 79 86 93 93 90 84 78 77 77 77 72 66 67 70 78 80 77
30 45 68 73 77 81 77 80 84 88 89 86 82 75 70 70 72 74 79 80 84 90 88 90 88 92 90 87 93 95 93 82 76 76 79 71 69 69 66 63 66 66 73
30 34 38 60 74 77 77 80 85 86 88 91 87 86 83 75 78 85 89 91 94 96 98 96 96 96 97 94 90 92 94 94 92 79 74 73 69 72 70 68 64 65 68
36 42 38 42 58 62 74 87 90 92 93 90 85 86 78 63 63 63 67 75 85 94 97 96 96 93 96 98 94 96 95 96 95 94 87 78 72 67 74 75 70 67 70
53 58 50 48 50 59 62 80 85 87 72 61 59 60 55 61 64 66 66 69 73 78 81 84 86 90 94 96 95 92 89 94 97 99 96 95 82 77 78 75 67 66 67
63 67 62 55 52 54 55 53 59 63 54 59 62 62 64 70 75 72 69 73 77 79 83 87 88 90 93 92 90 88 90 91 95 95 93 92 94 88 73 74 71 81 84

GFSSE_sfc_rhum_075.txt.gz
RH
91 91 87 84 80 80 80 79 80 79 77 71 74 76 75 72 71 72 78 77 78 74 72 65 68 68 70 72 64 67 69 71 77 81 81 77 70 75 77 79 76 64 65
88 86 88 85 83 83 82 79 83 84 80 74 76 77 70 68 67 69 72 73 74 73 65 66 68 70 72 74 74 72 72 72 72 78 86 84 82 77 76 78 76 65 67
87 82 84 86 86 85 83 81 81 78 77 76 79 73 72 67 65 66 68 68 67 64 66 69 70 71 72 74 76 77 77 76 78 79 82 87 80 76 74 75 76 75 73
82 82 84 88 87 86 83 82 80 76 73 80 80 76 70 67 67 66 68 71 65 66 68 73 74 74 72 70 72 72 71 74 79 78 73 75 62 71 71 72 69 73 70
81 82 85 88 88 87 83 80 78 77 75 83 81 80 74 68 69 69 72 74 67 67 71 75 76 76 73 70 70 70 70 77 81 76 83 86 83 64 64 64 66 71 70
81 87 90 89 90 89 87 83 77 77 77 84 83 84 77 70 71 73 75 77 74 74 76 76 77 76 75 72 69 69 72 76 75 79 84 78 78 65 63 64 65 67 70
90 90 88 89 90 90 88 84 80 78 78 83 84 81 79 73 69 73 76 78 78 77 76 75 75 78 77 74 71 70 73 79 72 82 85 85 77 66 64 63 62 64 65
90 89 85 91 91 89 86 84 81 82 81 82 86 84 79 77 73 74 75 76 77 76 75 75 74 73 72 70 69 70 76 80 69 82 85 88 77 66 66 64 63 62 64
85 90 93 92 91 91 89 87 84 86 85 86 86 88 85 85 80 74 77 77 75 75 76 76 75 73 72 70 68 72 76 81 80 79 70 84 76 67 66 65 64 62 63
88 93 97 95 89 93 93 88 89 90 89 88 90 91 90 90 88 86 84 83 80 78 78 77 75 74 72 69 68 73 72 75 78 72 79 90 73 67 67 64 64 62 62
85 90 92 93 91 94 94 86 90 89 90 93 92 90 90 92 91 90 90 86 86 83 80 78 77 74 77 78 75 72 74 73 75 71 82 83 71 68 67 66 64 62 62
89 92 88 83 85 87 72 90 93 89 94 89 88 90 87 88 89 83 91 89 87 87 86 81 80 80 80 80 80 79 78 70 68 72 82 79 68 68 70 69 65 64 63
89 88 82 71 70 78 81 88 86 90 97 94 88 86 84 80 90 96 98 96 97 93 96 94 94 94 88 84 77 78 71 66 61 62 75 77 68 62 67 74 71 67 65
88 85 77 75 70 73 77 80 78 70 71 79 84 80 75 83 90 97 98 97 97 96 96 96 98 94 90 80 68 67 62 58 59 59 75 80 74 63 62 68 76 74 70
84 84 80 77 78 73 71 79 77 73 67 59 66 70 65 69 69 71 81 92 93 94 92 91 89 82 79 71 69 68 63 62 60 58 66 87 78 75 65 64 68 74 75
83 79 79 80 81 82 77 70 72 66 61 69 68 66 65 69 67 67 67 71 74 73 67 66 68 71 74 77 73 71 70 70 68 65 66 73 84 79 76 66 65 68 69
84 89 86 80 78 77 78 71 73 74 62 67 68 66 66 71 71 72 74 75 70 64 60 66 68 75 79 75 78 74 73 73 73 71 69 72 76 86 80 69 67 68 70
87 84 85 80 79 79 78 76 71 72 68 66 65 71 67 66 70 73 74 78 79 74 70 75 79 80 83 84 83 79 76 70 64 62 64 73 77 69 79 81 78 73 71
75 76 80 82 83 78 78 81 81 75 74 68 66 71 64 67 68 75 77 76 75 81 83 81 82 79 75 73 74 72 74 78 76 66 73 76 80 76 70 82 85 83 82
75 72 84 85 84 80 85 85 86 83 79 73 72 70 69 70 70 77 79 79 76 74 73 73 74 77 78 78 76 77 87 86 88 87 81 74 77 78 80 75 86 89 90
72 81 84 88 89 91 93 94 93 82 84 80 80 74 68 68 67 71 81 79 72 71 72 73 78 79 81 86 90 92 94 91 90 88 86 85 80 77 74 75 80 84 82
48 83 88 85 88 87 90 91 91 96 94 93 92 85 80 74 74 73 78 85 84 86 85 86 92 92 90 86 90 92 94 85 81 81 88 86 77 73 70 70 70 73 81
38 62 75 80 83 88 88 90 94 92 93 94 94 93 89 82 89 87 90 91 93 95 95 96 96 97 98 96 90 91 95 95 95 83 79 79 71 74 69 68 66 73 85
35 41 50 67 85 90 88 94 95 96 97 97 93 92 82 74 72 70 70 74 84 92 97 97 95 97 98 98 96 96 96 96 97 90 90 87 74 66 77 70 72 81 84
50 49 45 51 68 73 86 93 97 96 95 80 79 72 64 69 70 71 72 74 74 80 83 87 88 90 96 97 97 96 92 93 94 98 95 93 93 91 83 80 80 81 78
61 60 58 52 54 60 71 84 95 94 76 67 67 74 76 78 78 76 75 80 81 83 87 89 90 91 94 95 95 94 95 95 96 93 97 93 90 91 79 76 75 83 86

GFSSE_sfc_rhum_078.txt.gz
RH
95 91 87 84 80 79 79 79 79 76 73 76 74 74 73 74 80 80 78 77 76 70 69 68 69 68 64 68 70 73 78 78 78 75 78 82 77 75 76 68 68 69 68
92 87 87 84 83 82 81 80 82 80 78 79 73 69 68 71 77 78 76 74 70 66 68 69 71 71 72 73 74 74 73 74 76 82 87 87 82 75 73 75 77 76 74
92 86 84 86 85 84 83 81 80 75 77 80 74 70 66 68 72 71 72 70 66 68 68 70 71 74 75 77 78 75 74 76 78 83 84 84 82 74 69 71 71 70 74
87 86 85 88 87 84 82 81 78 73 78 80 76 69 66 66 70 67 67 66 66 70 71 72 72 73 74 74 73 72 74 77 80 82 81 79 69 66 65 69 68 68 67
89 87 87 88 87 85 82 80 77 76 82 81 79 70 68 67 69 71 66 68 71 72 74 75 74 71 72 73 71 73 74 77 82 80 86 86 82 63 63 66 69 70 69
96 95 90 89 88 87 84 82 78 80 82 83 81 72 70 69 71 75 71 73 78 77 76 75 74 73 74 72 71 71 72 76 80 87 89 80 80 63 62 64 67 68 70
97 95 90 89 87 86 83 83 82 82 84 82 80 74 70 72 73 77 76 77 78 77 76 77 76 75 74 72 70 70 74 79 83 90 90 87 78 66 65 62 63 64 67
95 92 88 90 90 89 84 84 84 84 85 86 84 77 71 71 74 76 78 78 78 77 76 75 74 74 72 69 68 69 76 77 78 88 91 92 75 66 66 64 63 64 64
93 94 94 94 92 91 88 86 86 85 87 88 87 84 82 78 77 75 77 78 77 76 76 76 74 73 71 67 65 70 75 82 83 86 79 91 76 66 65 65 63 62 63
95 94 94 98 94 96 94 90 92 90 90 89 90 91 91 89 84 84 86 83 78 78 78 77 75 73 71 68 69 72 74 76 84 80 83 93 73 67 66 64 64 62 62
95 95 98 98 97 96 94 92 92 91 92 94 93 94 94 96 94 91 91 88 87 83 80 78 76 74 78 78 74 74 75 74 79 80 87 85 71 67 68 66 64 62 62
98 98 95 95 96 95 76 95 96 92 97 96 93 94 96 96 96 88 93 90 88 88 86 80 79 81 80 82 83 80 82 73 73 79 86 83 69 65 70 70 67 64 63
96 94 90 87 91 90 87 96 99 98 98 96 94 94 92 89 96 98 98 97 97 94 97 94 94 96 91 88 83 83 76 74 70 68 77 81 70 61 65 75 73 68 66
96 96 91 82 84 86 84 86 91 98 98 98 95 91 94 96 98 98 99 98 98 98 96 96 98 95 93 90 87 76 70 66 64 64 72 84 78 64 60 65 75 76 72
86 92 92 88 75 79 81 87 85 82 85 89 90 89 82 92 97 98 98 98 98 97 97 96 96 94 94 91 81 76 73 70 66 62 66 85 84 77 66 62 65 72 77
80 84 89 91 77 74 76 84 79 73 70 71 76 80 72 78 81 82 83 93 96 95 97 90 92 88 79 82 79 77 74 74 72 69 66 68 87 82 77 65 64 66 68
78 81 81 84 87 80 82 76 76 72 67 68 63 69 68 69 70 71 75 77 80 77 74 73 72 77 83 81 84 80 79 80 79 78 74 66 73 88 83 70 68 67 68
87 86 85 80 87 91 91 78 80 78 76 69 59 60 68 70 70 75 78 80 80 76 70 71 76 82 86 87 86 82 81 76 69 72 67 68 73 69 80 83 79 73 71
92 93 91 90 83 83 86 81 82 81 76 74 64 70 68 70 72 76 77 78 78 84 83 79 82 80 77 76 76 74 76 76 78 76 79 80 82 84 80 81 85 82 82
88 87 87 86 84 88 92 92 90 87 81 75 77 69 71 68 72 78 80 78 79 84 85 80 78 81 80 78 78 80 88 89 92 91 89 82 84 83 85 86 92 90 90
87 92 92 90 88 90 94 93 95 88 83 84 82 73 74 68 67 70 80 82 80 77 73 74 77 80 82 86 88 84 89 92 91 92 95 95 90 83 79 86 86 88 86
79 90 94 88 91 88 90 92 92 95 95 93 90 91 82 75 76 72 76 82 84 85 81 82 87 90 91 86 88 90 92 87 85 88 90 90 92 81 72 70 68 74 93
72 88 87 87 85 84 90 94 97 96 96 97 95 95 91 85 84 84 86 88 92 93 92 94 96 96 98 96 92 91 92 97 96 88 80 82 79 81 70 68 69 78 90
50 71 90 90 92 90 96 95 93 96 94 97 97 97 95 91 90 90 86 93 95 95 96 97 97 98 99 99 96 96 97 97 96 91 88 86 88 72 70 72 81 82 86
44 48 63 83 94 94 96 94 96 98 98 97 97 94 86 87 84 79 82 82 80 79 80 88 90 91 96 98 98 97 95 95 96 99 97 94 91 94 82 77 81 85 78
57 57 57 60 77 91 94 96 96 95 95 94 95 94 90 88 87 82 83 83 86 87 89 92 91 92 95 96 97 97 97 96 96 98 98 95 94 95 89 78 82 86 84

GFSSE_sfc_rhum_081.txt.gz
RH
94 91 85 82 80 80 79 78 74 75 76 73 74 77 79 81 80 77 75 73 72 68 68 66 66 68 71 72 75 76 76 73 76 82 83 81 74 71 71 72 73 74 67
92 87 86 84 81 80 79 80 77 81 81 78 73 73 78 80 79 76 72 70 69 68 68 67 68 72 73 74 75 75 75 79 82 83 86 85 75 71 75 76 76 73 71
90 87 84 85 84 82 81 81 76 78 81 76 70 71 74 79 78 76 71 69 68 69 70 70 72 72 76 77 74 75 76 78 81 79 80 86 81 72 67 67 66 69 70
89 88 86 86 84 82 81 79 74 80 77 74 69 68 71 73 73 70 70 70 69 71 72 73 75 77 75 74 77 77 76 79 80 80 84 80 67 64 65 68 67 68 66
93 89 87 87 85 82 80 78 74 81 78 75 71 70 70 71 67 68 68 71 73 74 75 75 75 75 74 75 77 75 76 79 80 80 87 87 82 63 65 68 71 70 68
98 96 90 88 86 85 82 78 77 81 77 74 71 72 72 70 66 67 70 74 77 77 76 74 74 74 74 74 74 75 78 80 82 92 92 82 80 63 62 64 66 68 70
98 95 91 88 86 82 81 80 82 83 79 76 71 70 70 71 68 71 73 77 78 77 75 73 73 73 73 72 71 73 77 80 86 93 92 89 80 66 64 63 63 65 68
96 96 89 90 88 86 83 83 84 84 83 79 74 71 72 74 73 74 75 77 77 77 76 76 75 73 70 69 69 74 76 80 81 92 92 91 75 66 65 64 64 64 66
98 98 97 92 93 90 88 87 87 87 87 85 80 76 79 80 78 76 78 78 77 77 76 75 73 71 69 66 66 72 80 81 91 91 84 94 77 65 65 64 64 64 63
98 98 99 98 97 97 95 91 90 89 90 88 88 87 86 87 84 82 85 83 78 78 78 76 74 71 69 67 68 69 76 79 86 89 88 94 71 65 64 64 64 64 63
94 91 98 98 97 96 95 96 93 91 93 93 94 94 94 95 94 93 93 87 86 82 79 77 74 73 79 75 74 75 76 77 82 83 90 84 73 65 67 65 64 62 62
98 98 96 97 97 95 83 97 96 95 97 98 95 97 98 97 96 90 94 92 90 88 86 79 78 81 82 85 84 80 82 77 77 79 90 81 74 64 68 70 66 64 63
97 95 97 94 93 92 90 98 99 99 99 99 96 97 96 94 98 98 98 97 97 95 97 94 94 96 92 91 88 87 80 78 76 71 79 80 75 63 63 74 74 70 67
86 92 95 93 90 87 84 92 97 99 98 99 97 95 97 98 98 98 99 98 98 98 96 96 98 95 94 92 92 86 79 74 71 68 71 82 80 67 61 64 75 77 74
85 84 83 92 95 84 79 83 88 98 98 96 97 95 95 97 98 98 98 98 98 98 97 96 96 95 95 94 94 88 81 78 73 68 69 77 87 78 68 62 64 70 78
68 66 78 86 95 89 83 80 74 82 86 89 93 92 90 90 97 98 98 98 98 97 97 97 96 96 94 85 84 83 80 79 76 74 72 70 77 85 79 66 65 65 68
79 74 85 77 81 89 88 88 83 74 69 73 74 81 84 80 88 89 90 88 92 94 93 96 84 82 85 86 89 84 84 84 83 83 82 75 71 86 86 70 69 68 68
84 83 85 79 82 85 90 92 95 86 76 71 65 69 73 71 76 76 77 77 78 79 77 76 78 83 87 88 89 85 85 85 79 72 80 77 74 73 79 84 82 74 74
82 84 84 80 86 85 86 80 88 88 85 75 73 70 70 67 69 73 78 81 83 86 82 77 79 83 78 77 78 76 75 76 75 76 88 86 86 86 86 86 90 85 81
85 84 80 78 82 84 88 88 89 92 83 80 73 69 75 66 72 75 80 79 81 88 89 91 81 84 82 80 79 80 80 81 89 92 91 87 92 90 89 91 92 92 87
95 94 88 91 92 90 95 95 94 90 85 88 83 76 68 71 70 71 79 83 84 86 86 85 81 82 84 87 93 88 83 80 89 90 96 96 94 93 92 94 94 85 87
96 92 93 83 85 88 88 90 92 92 96 95 92 84 77 77 75 74 77 83 83 88 82 80 87 88 88 85 89 90 91 88 85 88 91 89 92 92 87 84 85 77 88
89 95 91 87 86 90 89 98 99 98 98 98 96 94 93 89 86 80 86 88 91 92 91 92 92 92 92 96 93 92 96 95 97 88 85 86 83 87 84 79 78 82 87
54 88 94 94 95 94 97 97 95 97 96 98 98 98 98 97 98 96 96 97 97 98 97 97 98 98 98 99 97 97 98 99 97 94 89 91 92 82 81 78 88 81 82
48 62 93 94 95 95 97 94 96 97 97 98 98 98 97 97 95 94 94 93 95 94 93 90 92 95 98 98 98 98 96 97 97 100 97 94 91 95 90 80 80 78 79
56 53 58 77 91 95 98 97 96 95 96 96 97 97 96 96 95 88 84 85 85 89 92 92 93 92 95 97 98 98 98 96 95 98 99 98 97 95 95 94 92 91 85

GFSSE_sfc_rhum_084.txt.gz
RH
95 91 85 82 79 78 79 75 74 73 78 76 80 80 80 80 79 76 74 71 69 67 66 67 70 74 72 70 71 72 76 81 81 82 81 77 73 75 76 75 76 71 66
93 88 86 83 81 79 79 75 79 80 80 78 79 79 80 78 76 74 73 69 67 67 65 68 70 70 70 73 74 76 80 80 79 82 84 86 75 70 69 70 77 61 73
89 86 83 84 84 82 81 76 80 80 78 77 78 79 81 80 76 72 70 69 68 68 67 70 69 69 76 75 76 77 78 78 79 80 79 84 78 68 67 68 70 62 64
89 88 85 85 84 82 82 76 80 80 72 73 76 80 79 80 74 71 70 69 70 70 71 73 72 75 76 78 76 76 77 78 78 79 84 80 68 64 66 67 66 66 62
95 91 86 87 85 82 80 75 81 78 74 71 75 78 78 76 74 72 70 71 73 74 76 77 77 76 79 78 78 76 76 77 79 82 89 86 82 65 66 69 71 69 66
97 96 90 88 85 83 82 78 81 76 75 70 71 75 77 73 71 71 73 76 78 79 77 76 75 76 77 78 75 76 78 78 84 93 93 84 82 63 63 65 68 69 68
97 95 89 87 85 83 80 80 82 77 74 71 70 69 70 70 69 73 76 78 78 76 75 75 74 74 74 74 74 77 76 80 91 93 92 90 81 65 64 64 64 65 69
97 95 88 89 87 85 81 82 84 82 76 72 73 68 71 67 70 74 77 78 78 76 73 73 73 72 71 71 73 76 79 80 85 92 92 92 76 65 65 65 65 64 66
96 96 97 94 91 90 88 88 86 86 83 79 77 77 80 75 72 74 76 78 77 76 77 76 73 71 68 68 71 76 80 84 91 93 86 95 77 64 65 65 65 65 64
98 98 96 98 97 97 95 90 90 90 89 84 83 86 86 86 81 75 75 82 79 79 78 77 74 72 70 68 68 73 79 81 88 91 91 95 73 64 64 64 64 64 64
96 94 98 98 98 97 96 96 92 93 93 92 92 90 92 95 93 92 92 87 86 82 79 77 74 73 75 76 75 77 75 79 83 84 94 82 78 64 65 65 64 63 63
98 98 97 97 97 96 92 98 97 92 95 92 97 96 97 96 97 93 95 91 89 87 87 78 76 80 83 89 87 80 84 80 79 79 93 80 78 66 67 69 67 65 63
96 98 96 96 96 95 98 99 99 99 99 97 93 98 97 96 98 98 98 98 98 96 98 94 95 96 92 92 91 91 86 83 82 74 74 81 76 69 62 72 74 71 68
98 96 96 93 93 91 96 99 99 99 99 99 94 97 98 99 98 98 99 98 98 98 96 96 98 94 93 92 92 92 86 82 78 72 71 75 78 72 64 62 70 78 76
93 96 94 92 92 90 87 96 97 99 99 98 98 97 97 98 98 98 99 99 98 98 98 97 96 95 94 93 93 94 91 85 83 76 74 78 75 80 70 65 64 66 75
90 92 91 89 88 91 91 85 88 98 98 98 98 98 96 95 97 98 98 99 98 98 97 97 96 96 96 92 84 86 85 84 82 78 78 78 77 77 76 69 65 65 67
85 87 87 85 88 90 91 90 80 78 82 89 92 95 95 92 95 95 98 98 98 97 95 97 96 90 91 85 90 88 87 88 87 86 85 84 83 84 80 75 68 66 68
83 80 78 69 79 77 89 93 90 86 78 73 78 83 83 84 86 93 96 94 88 95 96 92 90 82 85 89 90 86 87 87 82 76 74 76 84 77 79 82 80 74 73
78 81 86 84 86 84 89 87 87 87 90 81 76 75 76 80 78 82 82 80 78 85 83 78 77 82 86 87 81 77 76 76 74 75 82 89 91 92 90 84 86 89 86
90 89 88 91 89 87 88 91 95 94 86 84 81 81 77 68 72 75 79 82 84 92 92 88 84 90 90 84 80 82 88 86 87 91 91 90 93 93 94 94 95 94 90
92 91 89 88 88 92 96 93 90 75 96 94 92 83 72 69 68 72 76 75 85 88 88 92 93 91 87 88 91 94 92 87 89 93 94 94 92 93 94 95 96 97 94
95 90 90 85 84 84 85 90 92 92 95 95 95 93 87 79 73 74 75 79 86 85 88 89 87 88 87 92 92 94 95 88 87 88 92 89 90 94 91 90 91 91 96
98 98 91 84 84 86 84 95 99 98 97 99 98 99 97 95 95 94 94 93 95 96 97 94 94 91 90 96 91 84 93 95 96 91 87 88 88 90 90 86 88 91 88
68 95 95 96 95 88 90 89 89 91 90 88 94 99 99 99 99 99 99 99 99 99 95 96 99 98 98 98 98 97 97 98 99 98 89 90 93 86 88 86 91 89 90
52 68 94 95 95 95 98 97 97 96 94 96 98 96 97 99 97 98 98 99 99 99 97 95 96 97 98 98 98 98 97 98 99 98 98 95 94 96 96 93 91 90 88
56 58 72 90 93 96 98 98 98 97 97 98 98 97 98 98 98 97 97 97 96 94 94 95 95 94 95 96 97 98 98 96 95 97 98 95 97 95 96 96 95 95 96

GFSSE_sfc_rhum_087.txt.gz
RH
78 72 84 82 77 76 76 72 73 78 79 77 77 78 79 79 78 75 72 70 69 68 65 69 72 69 68 70 71 78 79 79 78 78 80 80 75 70 71 74 70 56 68
73 69 84 83 80 79 76 76 78 81 81 80 81 78 78 78 76 73 70 68 67 66 67 71 71 68 70 72 75 78 78 78 79 80 82 80 79 69 69 73 71 62 76
75 70 71 84 83 83 77 79 78 79 80 81 81 78 79 78 75 70 69 67 67 66 69 70 68 68 73 75 76 76 76 75 77 76 75 53 57 67 66 70 70 66 72
74 70 68 84 84 83 77 79 79 77 77 79 82 82 80 76 74 69 68 68 68 71 71 74 69 76 77 76 76 76 74 73 76 74 53 54 49 66 66 66 66 63 63
76 72 73 85 85 83 78 81 80 75 74 78 80 84 81 77 74 68 69 73 76 78 77 73 77 80 79 80 76 75 72 75 79 65 59 60 54 59 66 70 67 65 66
79 74 81 87 86 84 81 84 80 74 72 74 80 82 80 77 75 70 73 80 81 78 76 76 78 80 82 78 76 74 73 80 76 62 62 63 56 63 64 67 68 68 67
83 76 75 87 86 84 82 85 82 75 72 71 75 76 77 75 74 72 74 79 79 77 77 75 76 76 76 77 76 74 75 81 59 63 63 63 58 64 65 65 64 66 68
83 78 73 86 87 85 83 86 82 76 72 72 76 74 73 68 74 72 74 75 76 76 76 74 73 73 73 74 76 77 77 79 62 61 64 63 70 64 64 66 64 64 64
80 77 77 77 81 87 88 87 84 80 78 77 70 75 68 78 72 74 73 74 76 76 76 76 72 70 70 72 74 77 81 82 58 59 60 60 77 64 64 65 65 64 64
85 83 83 79 73 73 75 90 90 86 83 84 82 87 76 76 73 77 76 83 80 79 78 76 73 71 69 68 69 73 81 80 57 64 59 59 75 62 63 64 64 64 64
91 87 88 80 77 77 76 81 91 92 89 88 86 90 86 66 66 67 86 87 87 83 80 77 75 73 74 77 76 75 76 50 50 52 58 76 78 64 64 64 63 62 62
93 96 87 79 77 77 77 79 79 79 77 70 68 71 70 74 73 74 84 91 88 86 85 78 77 79 75 54 55 67 49 50 48 49 53 80 74 69 66 69 67 65 63
91 95 91 83 80 77 81 83 84 85 88 81 72 72 73 79 82 78 79 78 77 86 72 74 73 66 65 59 59 55 55 52 46 46 53 76 76 70 65 68 74 72 70
93 94 91 83 82 80 82 82 83 83 85 88 79 77 79 82 80 78 75 78 78 73 72 70 67 64 65 64 61 59 58 54 50 49 52 72 70 72 68 64 66 77 77
90 95 93 88 84 81 87 83 79 80 80 83 81 80 77 79 78 76 74 75 75 75 73 67 64 61 64 64 63 62 59 56 54 53 51 78 73 70 71 68 65 66 71
72 92 88 89 84 79 82 80 79 80 79 83 84 81 78 76 75 76 77 79 78 74 70 67 63 64 64 62 58 56 57 57 56 56 54 56 81 78 74 72 67 66 66
82 91 89 89 84 84 79 80 76 78 80 81 81 80 79 79 75 74 76 78 76 74 71 72 72 70 66 62 59 58 61 58 59 57 58 59 63 87 83 77 75 70 68
80 85 86 83 87 88 87 81 76 74 75 77 78 78 81 78 75 74 74 72 73 74 72 72 71 69 62 58 56 58 58 60 58 59 68 64 61 62 74 82 81 78 73
81 84 82 84 83 79 81 83 77 76 72 64 68 74 78 73 72 71 69 67 68 68 68 70 68 62 57 58 61 59 60 66 59 56 54 61 64 66 62 76 88 86 86
72 76 77 78 79 77 82 85 87 84 78 75 69 66 68 60 66 68 66 67 64 65 65 66 62 62 59 61 66 75 67 61 61 60 57 61 61 66 66 70 69 68 91
81 82 78 83 81 84 93 92 94 84 88 86 81 74 70 68 64 68 65 71 73 67 63 65 64 69 81 80 81 69 64 60 60 61 61 59 62 65 67 68 67 67 65
84 82 86 85 79 86 83 90 90 88 90 89 91 87 84 81 79 79 75 75 76 75 77 72 77 81 86 87 72 78 68 57 58 61 61 61 60 62 64 67 68 69 70
85 81 75 82 84 83 89 94 95 96 94 96 94 91 90 95 97 97 90 89 88 94 91 92 91 84 78 82 84 73 74 75 74 63 65 62 61 59 60 63 65 69 70
96 92 85 90 81 84 92 94 88 88 88 85 82 87 94 96 98 99 99 99 99 99 99 99 96 94 95 92 93 95 91 85 82 79 69 69 68 66 64 62 64 71 70
74 84 93 96 96 93 91 84 90 89 89 85 90 92 94 96 95 97 97 98 97 96 98 99 98 98 99 99 98 94 87 84 87 92 79 74 68 70 71 68 68 66 72
55 57 70 88 91 95 96 96 92 90 94 96 96 97 96 96 96 95 95 94 92 91 94 97 98 97 97 91 86 87 82 80 80 85 88 81 80 72 73 73 74 71 71

GFSSE_sfc_rhum_090.txt.gz
RH
48 54 83 81 78 78 73 71 74 76 78 81 79 76 78 78 77 74 71 70 75 73 68 71 68 69 71 75 77 77 74 76 78 80 79 79 72 71 67 66 69 53 69
45 52 84 82 80 77 74 76 82 82 80 83 82 78 78 78 76 73 70 67 71 69 70 68 67 69 71 77 77 74 77 77 77 76 78 78 78 69 70 70 76 64 72
46 52 64 81 83 81 79 79 81 80 82 84 82 80 79 77 74 72 69 69 69 71 71 64 68 69 76 79 74 74 72 74 72 70 69 40 50 66 68 69 69 70 71
46 51 56 84 85 82 82 80 81 81 80 83 82 81 81 77 72 71 69 68 71 73 73 70 74 75 76 76 76 70 69 71 70 69 39 36 39 66 65 65 66 65 67
48 49 55 85 85 83 82 81 80 80 81 82 83 84 82 78 71 69 72 74 78 78 74 77 79 78 77 77 73 68 71 74 70 54 44 46 43 59 67 63 62 65 70
48 47 78 86 85 84 85 85 79 78 80 80 84 84 82 77 71 72 77 79 84 83 76 80 80 81 79 77 71 70 74 74 70 43 45 51 48 64 65 67 67 67 68
50 48 64 86 86 84 86 84 79 76 79 83 82 81 80 75 69 70 79 81 83 80 76 78 79 80 78 78 73 72 74 73 42 44 46 46 53 64 64 64 64 66 67
51 53 57 84 86 85 87 84 81 78 77 81 83 82 79 79 75 74 73 79 81 76 76 76 76 75 76 77 75 74 77 74 47 44 46 47 66 63 64 64 64 63 64
52 53 60 66 72 88 88 85 82 79 78 80 81 80 80 82 79 78 78 79 78 78 76 75 73 73 73 74 76 78 78 75 41 44 42 44 72 63 64 64 64 64 65
61 58 62 65 54 54 68 88 84 83 83 81 82 82 85 85 85 81 80 82 76 79 78 75 72 70 70 70 71 75 80 79 40 47 43 48 73 61 63 63 63 63 64
81 70 69 61 47 44 56 75 86 89 88 86 84 84 78 56 60 65 79 83 86 82 79 76 74 72 74 77 72 72 76 37 36 37 39 73 76 65 64 63 63 62 62
91 86 72 51 46 45 66 65 58 57 51 49 55 52 45 46 46 49 75 91 88 86 84 76 74 74 72 36 43 66 36 37 34 36 37 74 73 72 67 69 67 66 64
96 92 74 51 46 50 69 63 58 60 54 44 44 47 46 48 56 52 57 61 60 81 49 59 57 41 40 38 40 36 38 37 33 35 44 70 75 70 68 67 75 73 70
97 96 85 61 50 49 64 68 59 63 56 52 50 43 45 48 50 51 49 53 52 46 45 45 40 40 43 43 42 41 42 42 39 39 44 69 68 68 68 68 67 74 78
93 91 88 75 63 53 62 60 60 63 58 53 58 52 48 48 48 49 47 47 44 44 41 40 39 36 40 43 44 45 44 43 42 41 42 76 74 71 68 68 68 67 69
89 95 93 75 66 59 56 59 59 60 59 64 63 60 56 53 53 55 54 56 52 51 46 43 42 41 44 44 43 42 43 43 44 44 42 46 80 80 77 75 73 70 68
82 91 89 73 65 62 56 54 54 59 58 60 58 59 59 60 60 60 56 57 52 49 48 48 48 48 48 44 45 42 44 42 44 43 43 43 48 90 84 79 76 76 73
84 94 79 75 73 70 67 64 55 56 54 52 54 56 60 59 60 58 58 54 51 51 50 51 51 52 49 43 40 42 46 44 42 40 39 40 41 43 68 84 82 79 77
83 91 93 78 73 67 68 68 73 64 49 45 49 52 56 58 59 55 54 51 50 53 51 50 49 49 46 44 47 47 45 45 42 38 40 41 44 49 47 62 84 88 84
81 85 87 75 76 78 75 71 73 75 56 48 50 52 56 55 58 59 57 50 48 52 51 49 49 49 47 48 50 48 56 44 43 43 42 42 44 48 47 52 53 54 88
84 78 80 76 76 70 72 71 71 78 75 69 58 54 53 53 55 65 74 63 55 53 50 48 48 51 54 58 74 52 48 44 43 42 45 43 44 46 47 50 50 51 53
82 66 71 78 76 71 66 68 64 75 79 77 71 63 59 63 67 70 73 75 70 78 71 60 57 63 68 70 65 64 56 44 40 45 44 45 46 46 46 50 51 56 59
87 81 78 79 81 75 71 78 84 86 84 87 81 76 74 71 76 77 79 78 95 94 88 80 82 84 77 71 64 59 61 58 51 43 47 47 48 46 47 50 50 56 59
93 93 94 89 89 72 77 82 72 77 79 83 83 87 88 81 84 87 88 82 96 99 99 97 97 99 96 84 73 81 75 72 73 70 53 49 51 46 48 47 50 54 58
91 86 93 93 92 83 93 89 90 88 92 91 87 83 79 87 87 87 83 86 92 95 95 95 97 97 96 96 95 95 96 91 78 84 59 50 50 50 53 54 55 53 57
70 67 78 85 83 81 89 90 90 80 88 87 88 93 93 90 88 86 87 89 91 92 90 83 80 82 88 88 92 87 82 70 63 62 71 58 58 53 58 53 56 58 60

GFSSE_sfc_rhum_093.txt.gz
RH
43 60 84 81 78 78 76 75 73 76 83 82 78 78 79 79 76 73 72 77 76 74 71 70 74 71 75 75 73 73 76 78 77 77 80 79 73 71 70 75 69 56 69
42 58 84 83 80 77 75 76 79 80 85 82 81 78 78 78 75 71 71 73 74 72 68 68 70 72 74 72 73 75 75 75 72 76 80 79 79 71 69 74 77 65 69
43 57 65 84 82 80 78 81 82 81 85 83 82 81 78 77 74 70 70 73 74 71 68 63 64 76 74 76 73 71 71 67 63 66 64 43 57 68 68 70 75 72 72
44 56 60 85 84 81 81 82 81 82 84 84 83 82 79 77 72 69 72 74 76 73 67 74 76 76 73 75 69 66 66 66 63 66 38 36 43 67 66 68 69 72 73
52 58 58 85 85 83 82 82 81 82 83 83 82 82 81 78 72 69 74 78 80 78 77 76 76 77 77 72 68 68 67 66 68 52 44 47 49 61 66 67 61 70 73
52 54 81 86 85 85 84 85 82 81 82 82 83 84 82 78 74 74 77 80 78 78 80 80 77 79 78 70 69 70 69 68 74 43 45 52 56 64 66 67 68 68 69
52 59 67 87 86 86 85 86 83 82 82 82 83 83 80 76 68 67 81 80 79 80 80 80 80 79 79 73 71 70 69 70 39 44 45 51 59 65 65 65 65 66 67
50 65 60 84 86 87 86 84 83 83 82 84 84 83 79 76 74 71 76 81 79 78 78 78 79 79 79 75 73 73 70 72 44 42 46 54 69 65 65 65 65 64 64
54 67 59 66 75 91 88 84 82 84 85 85 86 86 82 81 81 71 78 82 78 78 78 77 76 75 76 78 76 76 73 75 47 42 40 51 72 64 65 65 64 64 65
83 62 66 69 63 57 72 88 86 85 87 88 90 89 88 87 86 85 86 85 82 81 79 76 74 74 74 74 74 76 80 78 41 45 43 59 66 62 63 64 64 63 64
93 88 82 70 54 46 63 74 85 88 88 90 86 90 81 67 67 69 77 87 85 84 78 75 73 73 77 77 74 74 79 41 34 37 41 78 75 64 62 62 62 62 62
90 88 86 78 66 43 58 65 53 53 53 49 53 55 49 54 51 50 76 90 88 86 84 76 75 73 72 40 49 68 45 35 34 37 46 75 70 71 67 68 66 65 64
91 93 87 88 78 40 60 68 45 46 43 40 44 44 40 44 51 55 65 66 67 84 60 67 66 49 38 35 36 35 35 36 34 37 57 75 72 68 69 68 74 74 72
93 88 80 91 87 41 60 76 42 40 39 43 46 41 41 46 49 48 52 53 52 50 44 46 41 38 40 37 36 36 38 39 40 40 53 70 68 67 67 68 69 71 77
89 82 86 94 89 66 76 68 58 42 41 40 43 42 43 47 46 46 45 47 45 42 43 40 38 36 36 34 36 40 40 40 40 41 43 78 74 70 67 66 67 69 70
80 94 96 94 90 64 79 77 70 56 42 46 45 43 40 43 46 48 46 44 43 43 41 40 37 35 34 39 40 38 38 39 40 42 42 55 81 79 77 75 74 73 71
65 85 94 94 83 52 68 74 73 70 46 53 57 50 48 50 51 50 46 52 50 47 43 42 38 39 41 40 40 39 40 40 41 40 48 44 57 88 84 77 75 74 73
76 82 91 90 74 60 60 70 72 68 73 62 60 57 55 52 53 54 52 52 49 48 48 46 46 48 46 43 40 39 42 44 41 39 39 39 45 42 76 83 81 77 76
81 88 93 95 70 60 54 58 56 58 63 57 54 57 58 56 55 53 54 52 48 53 51 49 48 47 46 46 42 42 44 50 43 37 37 40 44 49 52 65 84 83 84
84 91 88 93 75 62 72 68 66 64 51 46 50 50 54 50 51 55 48 48 48 56 54 52 49 46 47 44 42 47 56 47 46 45 40 40 44 50 50 54 57 58 88
88 91 91 93 87 75 81 85 83 72 66 61 63 56 53 52 54 58 62 59 57 56 61 56 53 52 53 52 65 60 53 48 44 43 45 44 44 47 47 49 52 54 56
90 90 89 81 75 76 74 75 78 79 71 61 68 63 55 57 59 61 70 72 69 82 74 68 75 77 66 73 77 75 71 63 46 45 45 45 45 46 47 46 49 54 62
92 91 82 78 73 79 75 83 79 80 82 85 85 80 69 72 75 75 75 79 84 88 95 95 95 96 92 83 78 79 78 70 63 50 48 48 45 48 48 50 50 52 58
98 96 91 84 84 78 78 82 76 93 89 82 79 80 81 81 81 82 85 84 88 92 93 97 97 98 98 98 95 83 75 76 78 72 64 57 50 48 50 54 51 52 60
96 97 96 98 92 90 91 85 94 93 96 96 94 92 86 86 82 84 86 83 89 93 95 95 98 97 94 91 92 91 91 91 93 93 84 64 55 54 56 57 55 55 56
98 96 96 98 97 95 95 96 96 94 90 87 87 92 90 90 89 86 87 89 90 91 93 93 92 91 89 88 85 82 80 84 87 83 79 72 66 61 62 62 60 61 66

GFSSE_sfc_rhum_096.txt.gz
RH
70 82 85 80 78 77 75 74 78 85 84 83 79 77 80 79 77 76 74 75 76 74 74 73 74 75 74 70 72 77 78 77 78 78 81 79 75 74 73 72 75 67 73
68 77 86 83 80 77 76 79 80 87 86 83 82 75 79 77 73 76 78 76 74 72 74 72 76 70 71 72 73 74 74 72 73 80 80 81 80 73 73 76 77 71 75
67 72 79 84 83 81 81 81 82 86 86 84 83 78 79 76 72 74 74 76 74 72 71 71 76 76 71 73 73 69 64 62 66 76 76 75 75 70 71 75 79 74 75
61 70 72 86 84 82 82 83 84 84 86 84 84 82 80 76 72 73 75 77 74 68 70 76 76 75 73 69 66 62 62 62 68 71 56 55 62 68 66 70 74 74 73
64 66 72 86 85 83 84 85 84 84 87 85 83 83 82 78 71 71 76 79 74 68 70 75 78 77 72 68 66 64 63 68 75 60 65 70 75 66 71 69 71 73 74
64 65 86 87 85 84 86 86 84 84 84 85 84 84 82 78 74 76 80 77 74 79 80 77 79 77 71 71 68 66 67 69 74 60 68 72 74 66 66 68 69 70 70
63 79 79 87 86 86 86 87 86 85 84 84 83 84 82 77 75 79 80 77 77 81 83 78 78 78 72 71 67 65 65 75 59 64 70 77 74 66 66 66 66 66 66
66 78 78 87 87 87 87 88 87 87 86 84 83 83 82 76 66 77 72 70 78 81 81 80 78 79 76 73 71 68 73 77 58 64 73 81 75 65 65 66 66 66 66
69 76 79 83 86 90 90 88 88 87 86 84 84 84 80 78 67 66 71 73 77 80 81 81 80 80 79 76 75 74 76 77 81 60 61 79 75 65 66 66 66 66 67
90 94 93 85 82 85 90 89 88 89 87 84 86 88 85 83 81 71 82 76 82 84 83 82 78 76 77 79 78 82 79 80 73 57 72 81 69 63 65 66 65 65 66
91 94 91 93 85 75 83 87 90 91 93 94 94 92 84 75 74 71 84 85 85 85 83 78 75 77 80 80 78 77 78 73 64 60 75 83 70 63 62 63 63 63 63
95 96 94 93 86 74 73 84 85 84 90 88 85 80 66 67 70 65 87 90 88 87 84 79 78 79 78 75 79 75 75 66 54 58 78 80 73 68 67 66 66 65 64
87 95 96 93 94 91 85 76 68 75 77 85 76 73 67 66 75 82 89 86 93 92 90 88 88 81 71 65 65 64 60 55 57 58 76 77 70 66 69 69 74 74 72
87 87 92 94 93 92 92 79 59 60 56 56 64 62 59 66 71 79 82 89 90 90 82 84 80 71 62 52 54 54 52 55 59 62 77 79 76 68 66 68 70 71 75
88 85 92 89 95 90 88 85 54 53 50 54 56 54 53 64 69 67 73 73 72 70 70 67 63 57 54 53 50 55 57 58 58 60 66 81 75 72 66 65 66 68 70
87 89 91 89 85 90 92 85 50 46 50 56 56 58 61 64 69 68 67 69 68 64 59 59 55 53 51 51 53 55 56 57 57 56 68 73 83 79 78 73 72 72 71
85 89 90 86 86 91 96 90 81 60 45 54 59 56 55 62 63 66 64 67 64 63 59 58 56 55 56 57 59 56 55 57 54 54 54 59 76 88 85 77 74 73 72
85 93 94 90 94 96 96 94 83 84 74 56 56 61 58 59 63 68 69 71 69 68 64 65 64 65 65 63 62 59 57 60 56 49 49 56 63 61 85 83 82 78 73
84 91 93 86 84 87 88 90 77 81 87 82 70 62 66 62 64 72 73 72 67 68 68 66 66 65 67 65 60 58 60 59 54 49 50 49 57 65 68 74 86 87 83
94 91 92 89 79 73 80 89 92 91 86 90 90 79 66 68 68 69 68 66 66 72 73 70 65 68 65 64 51 51 59 57 60 63 53 50 58 62 63 64 73 76 86
96 95 86 86 85 79 87 93 92 92 93 87 82 69 68 67 67 69 75 70 68 72 76 72 69 64 72 66 81 83 71 61 66 60 58 61 60 60 62 64 70 76 82
92 94 91 84 92 86 87 90 92 89 84 81 78 75 70 73 75 75 81 83 82 88 83 80 88 91 83 86 90 93 91 85 81 55 63 59 61 61 60 59 64 68 79
96 96 88 92 89 84 81 91 90 90 92 92 90 87 81 80 83 83 85 89 91 92 93 92 95 94 97 98 96 97 97 93 77 70 63 63 56 62 61 59 59 67 73
96 97 92 91 92 87 89 87 84 90 90 93 92 95 95 88 85 86 90 92 95 97 97 97 97 96 96 97 99 98 98 94 90 89 76 68 59 56 63 63 67 68 73
98 98 95 97 93 92 97 96 97 96 95 97 96 95 95 95 88 87 90 94 96 98 97 98 98 98 97 98 97 99 98 97 93 91 90 84 71 69 68 68 68 72 73
99 99 99 97 98 97 96 98 98 98 95 98 98 98 97 97 98 94 92 95 96 96 96 97 97 96 95 96 95 95 93 95 98 98 97 88 75 70 72 73 72 76 82

GFSSE_sfc_rhum_099.txt.gz
RH
85 85 85 82 77 78 80 84 86 86 85 81 75 76 82 82 79 73 72 72 73 76 75 76 75 68 68 74 76 74 76 77 78 78 80 80 76 72 72 72 75 76 76
81 81 85 82 80 79 80 84 88 87 85 82 75 76 80 79 76 74 75 75 76 75 74 76 71 68 70 74 76 74 69 74 75 80 81 84 81 76 76 76 81 76 76
79 80 80 84 83 82 82 83 89 88 86 84 78 78 78 75 75 76 77 77 74 74 75 72 69 72 73 71 68 66 66 67 72 76 80 80 81 73 75 79 78 76 76
77 81 81 86 85 84 84 83 86 88 87 85 82 81 80 74 76 78 78 76 76 74 78 77 75 71 69 66 62 63 64 66 74 70 67 70 66 67 72 74 74 73 73
81 79 82 87 86 84 84 84 84 88 86 86 84 85 82 78 75 74 77 75 75 78 82 78 74 70 68 65 64 65 67 72 75 70 76 82 82 70 71 73 74 74 75
80 79 89 88 86 86 87 86 84 85 87 87 86 85 82 78 77 79 80 78 76 75 81 79 75 71 71 68 67 67 67 72 71 77 83 77 78 65 67 69 69 69 70
76 82 86 88 86 87 88 88 86 84 86 85 84 85 81 79 79 82 80 78 73 79 80 78 75 71 72 69 66 67 71 78 70 81 84 83 76 65 66 66 66 65 66
84 87 84 88 88 88 87 89 88 86 86 85 85 85 82 79 81 83 76 76 75 81 79 77 78 74 74 70 68 68 75 79 69 81 85 87 75 65 66 67 67 67 67
84 89 90 89 89 91 91 91 89 87 87 86 85 83 82 80 81 80 64 74 76 84 84 81 80 78 76 74 72 73 75 79 76 77 72 85 76 66 66 67 67 68 69
93 93 96 96 92 95 96 92 91 91 90 87 86 85 87 80 80 68 67 73 80 86 86 85 82 82 81 80 77 79 79 78 76 73 80 84 70 65 66 67 66 66 68
95 92 90 89 90 96 95 91 92 92 91 90 91 92 84 68 66 68 74 79 85 87 86 82 79 80 84 81 77 77 78 76 78 79 84 79 69 63 64 65 65 65 64
98 98 95 89 91 89 80 95 97 94 94 89 87 82 71 71 64 67 81 83 86 88 86 81 80 82 81 84 84 76 77 73 67 79 86 83 71 67 68 68 67 66 66
96 97 97 96 96 90 89 96 98 99 96 93 86 80 74 69 70 78 86 84 83 93 95 91 90 86 84 77 74 75 66 65 65 78 78 80 72 70 71 73 76 74 73
95 94 95 96 95 96 97 92 87 94 92 95 89 84 80 73 85 82 76 86 86 98 96 96 97 86 76 68 68 67 62 60 65 72 85 82 77 67 67 69 72 73 75
87 91 95 95 94 92 95 94 93 79 83 92 84 92 74 75 82 85 88 93 97 97 95 95 90 80 73 61 57 59 62 59 64 66 76 87 81 77 70 67 67 68 70
88 90 93 96 94 91 92 95 96 88 64 71 88 76 91 71 77 83 84 87 87 82 82 79 76 68 64 59 56 60 60 64 64 59 66 76 83 80 78 70 69 70 70
89 92 94 93 93 91 90 93 93 97 69 57 64 66 62 65 73 77 77 78 76 71 67 66 61 58 58 58 63 60 59 59 62 62 61 61 72 87 84 77 75 72 72
90 94 92 82 88 90 91 91 93 90 91 55 60 61 61 62 66 68 68 69 66 65 68 68 68 68 69 69 67 62 62 62 61 61 58 61 72 73 88 85 82 78 74
92 96 96 94 91 92 96 95 93 91 86 77 63 57 59 61 62 66 70 74 76 75 74 70 72 69 71 69 67 65 61 65 62 50 56 59 63 68 79 83 90 86 86
92 96 93 94 90 87 93 94 97 94 87 86 86 69 61 60 63 68 77 74 73 73 73 74 70 72 69 70 59 58 64 69 59 59 64 57 62 63 70 70 78 80 83
87 94 95 90 87 86 90 96 98 96 96 77 81 74 68 66 65 73 81 77 74 74 78 75 71 70 74 72 82 89 84 69 60 72 66 62 67 66 67 71 77 83 90
91 87 95 93 86 82 88 90 93 96 97 89 94 81 74 73 73 75 83 90 87 90 86 82 84 89 85 88 91 94 90 85 85 77 73 63 66 68 65 66 70 77 92
88 88 86 94 88 78 79 92 95 96 98 97 93 92 92 88 88 86 87 91 93 93 94 94 96 94 95 97 92 92 99 93 88 77 71 70 64 62 64 65 66 69 75
94 95 87 94 92 84 77 86 88 92 93 97 96 97 97 94 95 94 93 95 95 96 96 95 96 96 96 98 99 99 96 91 95 90 77 69 66 62 60 64 69 70 77
98 97 98 99 98 98 92 88 90 92 94 97 97 96 98 97 94 91 92 94 96 97 96 96 98 98 98 97 97 99 97 97 95 92 88 78 72 71 69 74 78 83 83
98 97 98 98 99 97 95 93 93 96 97 98 98 98 98 97 98 96 92 94 96 97 97 97 97 97 98 97 97 96 96 95 98 97 94 91 79 74 75 78 80 87 91

GFSSE_sfc_rhum_102.txt.gz
RH
92 90 86 84 84 87 87 87 86 85 84 81 79 80 79 77 72 71 75 76 76 76 75 74 67 69 69 69 70 75 78 76 78 80 82 81 73 70 74 79 80 78 73
84 85 86 84 84 86 87 88 88 87 86 83 80 80 82 77 72 70 73 76 78 77 76 71 68 69 75 70 71 72 72 74 77 80 85 87 84 74 78 79 81 76 74
86 84 83 84 85 86 88 88 89 88 85 79 73 78 80 77 74 75 73 78 76 77 73 69 70 71 74 72 70 70 72 72 73 79 82 86 84 77 74 77 79 73 76
83 84 84 85 84 84 87 90 89 88 86 83 79 80 79 75 76 80 79 79 76 77 72 72 72 71 67 66 66 66 66 66 73 76 78 79 70 74 72 75 74 75 72
83 82 85 87 86 85 84 88 89 89 87 85 82 84 82 80 78 78 78 80 82 83 78 74 70 67 65 69 68 69 69 72 77 75 86 88 88 71 73 74 74 74 72
86 85 90 88 87 87 87 86 88 89 88 86 85 84 82 80 80 80 80 82 88 85 78 74 70 69 69 72 70 70 71 76 80 88 90 80 80 66 68 68 68 70 72
89 90 89 89 88 88 88 87 86 87 88 87 86 85 81 80 80 80 81 78 86 86 79 73 71 71 71 71 69 72 73 79 81 90 89 87 78 66 66 66 66 66 65
87 92 88 89 89 90 90 89 87 88 87 87 87 85 82 81 83 81 80 78 81 82 79 73 71 71 70 68 68 72 78 76 77 88 90 90 75 66 67 68 68 68 67
89 92 91 90 90 92 92 91 89 87 89 87 87 86 83 82 85 81 79 78 78 83 80 78 74 74 73 72 70 73 82 81 87 86 79 90 77 67 67 69 69 70 69
99 96 94 96 91 92 96 94 93 92 91 88 89 89 88 90 88 81 79 78 84 86 85 85 80 78 77 76 75 74 78 81 85 81 86 88 72 67 67 68 67 68 68
98 99 99 98 98 96 96 94 94 94 94 93 93 91 90 79 81 71 76 77 82 87 88 86 84 86 88 84 76 73 76 80 84 85 88 82 70 65 66 66 66 66 66
99 98 98 97 97 97 88 97 97 95 98 96 92 88 72 67 72 60 75 83 84 88 88 84 84 86 85 89 87 80 77 74 73 86 89 83 71 66 67 67 67 67 66
97 98 97 95 95 96 98 99 100 99 99 97 94 86 81 69 76 69 70 77 80 94 97 93 94 93 90 84 80 80 71 69 72 83 81 84 75 69 72 74 74 73 73
98 97 97 96 95 96 98 98 92 95 96 98 91 88 81 80 74 79 71 81 75 98 97 97 98 92 83 78 79 75 68 68 70 79 85 86 81 69 70 74 75 77 78
98 97 98 97 94 94 93 93 95 89 96 94 93 86 81 84 81 79 75 76 74 98 98 98 96 90 83 77 72 72 67 65 68 70 80 89 84 79 73 69 70 71 72
94 94 96 97 96 94 96 91 90 87 87 95 95 89 87 87 79 79 80 82 87 96 97 97 93 88 80 75 66 64 65 64 68 71 72 81 86 83 80 72 69 69 69
92 88 96 97 95 97 97 97 95 89 82 90 94 94 89 94 87 81 80 82 84 91 92 88 86 79 75 66 65 61 66 66 67 70 66 65 76 88 85 74 74 73 72
89 94 88 85 93 94 96 96 94 93 92 88 77 91 90 90 95 89 83 81 80 84 78 79 77 71 67 70 69 69 66 66 63 66 68 70 66 72 87 85 83 79 75
88 94 95 90 92 96 93 94 94 90 92 90 83 72 74 76 87 92 80 77 78 76 72 70 75 73 75 77 72 69 67 64 63 61 65 66 74 79 84 87 92 88 84
94 95 95 95 90 90 92 93 93 93 92 90 83 65 63 66 76 81 72 72 71 74 73 76 75 80 77 75 64 62 66 68 67 70 58 62 71 72 74 78 87 84 84
95 98 97 99 96 95 95 94 95 92 94 92 87 70 62 64 68 72 70 70 71 71 72 78 76 76 79 76 82 86 86 79 70 71 70 71 73 69 73 77 83 86 92
92 94 97 93 95 94 91 89 91 90 93 90 87 80 69 67 68 65 74 83 83 90 84 84 83 88 83 88 89 93 89 86 88 84 80 72 74 77 70 73 80 87 95
95 94 86 88 94 89 89 90 94 97 98 96 94 87 77 78 80 79 84 91 93 90 90 92 93 91 95 98 96 93 97 94 91 83 79 78 75 76 75 74 70 75 83
92 93 90 83 86 91 92 87 90 94 98 96 93 94 97 94 93 91 91 94 94 96 94 93 96 96 95 93 98 98 97 92 92 91 83 82 72 66 72 68 75 75 89
93 95 94 91 85 87 91 92 95 97 98 98 99 96 95 96 95 96 96 98 98 98 98 98 98 98 98 96 97 99 99 98 95 91 94 91 82 80 76 72 80 88 93
96 96 97 94 92 88 89 95 95 97 97 98 99 98 99 99 99 98 96 95 95 95 96 97 97 98 97 97 98 98 97 97 98 96 95 92 81 75 78 80 86 92 91

GFSSE_sfc_rhum_105.txt.gz
RH
96 92 86 84 84 86 84 82 84 85 84 82 80 80 80 78 73 74 74 74 75 75 71 66 65 63 69 71 73 70 74 77 80 83 82 77 73 75 78 78 80 72 69
89 90 86 86 85 86 86 86 87 87 86 84 80 78 76 72 71 76 73 78 78 77 70 64 68 65 69 70 73 72 75 78 80 84 88 87 82 78 78 78 80 73 71
87 86 83 86 87 87 88 88 89 88 87 85 82 79 76 71 70 77 77 79 78 75 71 68 69 67 68 70 71 70 70 76 79 82 82 89 88 72 77 79 73 74 76
84 85 86 87 88 87 88 90 89 88 85 82 81 83 78 73 70 76 79 79 77 72 71 71 72 72 72 71 69 68 68 70 75 80 86 85 78 70 71 75 75 75 73
86 85 85 87 88 88 89 90 88 87 84 80 82 83 80 77 75 76 80 80 81 79 75 73 71 68 69 70 70 69 69 72 78 81 91 91 88 68 71 74 71 69 70
91 88 88 88 87 88 90 89 88 86 84 84 84 85 83 82 80 81 83 86 86 82 73 70 67 69 74 74 72 69 72 76 82 92 92 82 83 69 68 69 70 72 73
93 92 89 88 88 88 88 90 89 88 85 84 85 84 81 81 80 82 86 89 87 81 73 70 68 71 74 72 72 71 76 80 90 93 92 89 80 65 65 66 65 65 64
95 95 90 89 89 90 88 88 90 89 87 85 85 84 82 82 82 84 88 89 85 78 73 70 70 72 72 71 73 74 79 81 82 92 92 91 76 66 67 68 68 68 67
96 95 95 93 91 92 91 89 88 90 88 86 86 85 84 84 84 81 82 87 84 79 74 73 71 71 71 72 73 78 81 84 92 92 84 92 77 66 68 69 70 69 68
96 94 89 96 96 95 94 94 92 92 92 90 90 90 90 91 88 82 84 85 86 85 84 80 75 74 75 76 77 81 83 86 90 89 90 92 73 67 67 68 68 69 69
99 97 94 96 98 98 98 95 95 94 95 93 93 94 92 94 87 86 81 86 87 87 87 83 80 82 85 82 78 79 81 85 89 88 91 84 72 67 67 68 67 66 66
96 99 97 95 99 98 93 98 98 97 98 97 96 97 92 91 86 74 78 89 89 90 91 87 87 90 90 93 89 79 82 81 86 90 90 85 70 66 66 68 68 67 67
94 96 96 98 98 97 99 100 99 100 100 99 97 94 90 77 85 76 72 81 83 90 92 95 96 97 93 90 86 85 79 78 80 89 81 86 75 66 67 70 72 72 72
98 96 94 96 98 98 99 99 94 96 98 100 98 93 84 75 79 73 71 82 80 90 95 98 99 95 91 83 83 77 73 72 76 87 87 88 85 70 70 74 77 79 79
97 94 95 94 96 97 98 99 98 96 96 98 98 92 85 82 78 72 69 83 81 94 92 96 98 95 91 81 77 77 74 72 73 76 86 88 87 83 75 70 72 73 73
88 97 97 96 94 93 97 97 98 97 97 96 96 94 91 86 84 84 80 82 90 88 96 93 97 96 88 81 77 72 71 72 69 72 76 80 89 85 82 73 70 70 69
75 94 98 95 96 95 95 96 96 95 94 94 96 93 90 90 89 89 92 86 85 93 97 92 92 94 89 80 79 69 66 69 71 72 73 70 76 90 88 76 74 72 72
77 93 94 89 94 96 96 97 97 96 96 94 93 95 94 90 93 94 94 88 85 86 89 91 96 90 85 79 74 71 70 70 68 68 72 72 72 70 82 86 83 79 76
80 88 94 93 95 94 94 93 95 95 98 93 93 93 88 91 95 97 98 89 84 87 88 86 88 84 79 75 75 73 74 71 68 64 72 72 74 76 80 86 91 89 80
78 86 92 92 91 91 93 96 97 96 96 94 91 83 86 85 88 94 97 97 90 85 87 81 76 81 77 74 66 69 73 70 71 73 71 63 72 80 80 85 92 88 84
84 95 96 96 96 97 98 95 94 90 95 96 92 79 80 82 84 90 92 87 78 79 77 74 73 78 82 82 85 84 86 81 75 73 72 72 76 79 87 84 88 88 93
78 92 96 97 92 91 91 91 94 92 92 91 90 89 77 75 83 84 86 90 85 84 81 79 76 88 84 91 90 94 90 87 88 86 83 77 76 79 80 79 82 89 95
97 95 96 96 96 95 86 90 91 93 95 95 92 89 83 75 81 84 87 88 86 87 87 85 84 88 93 96 93 89 97 93 91 85 85 85 80 83 80 79 82 84 88
96 95 94 96 96 95 95 94 93 91 93 92 90 90 84 81 79 82 85 85 89 87 87 89 90 92 93 95 98 98 96 89 93 92 82 83 85 84 80 82 83 83 91
90 95 91 88 89 94 94 94 94 92 97 95 97 95 97 98 86 84 85 87 89 94 94 97 99 98 98 97 98 99 99 98 96 95 94 92 89 90 85 83 83 87 90
92 94 93 92 88 92 94 94 94 93 96 99 99 99 99 98 99 98 97 96 97 98 98 98 98 98 98 98 98 98 97 98 98 98 97 92 92 84 86 90 91 92 93

GFSSE_sfc_rhum_108.txt.gz
RH
96 95 87 85 83 83 82 82 84 86 86 84 80 81 81 78 74 71 73 75 77 74 65 67 61 71 67 67 68 74 77 79 80 78 80 80 76 74 77 73 74 74 69
94 95 87 86 85 85 84 84 86 87 86 84 79 79 79 76 72 72 72 76 77 72 63 64 67 64 75 76 68 74 76 80 82 86 89 86 83 77 77 75 76 72 69
94 90 86 88 87 86 85 87 88 87 86 85 79 77 75 71 73 73 77 78 77 70 65 65 61 67 69 71 72 74 77 80 81 82 83 91 84 77 76 77 79 75 75
89 87 83 89 88 86 86 87 88 87 86 84 81 79 74 71 74 76 79 79 75 73 70 72 69 70 72 73 71 69 73 77 80 84 90 87 74 72 69 66 67 71 70
93 91 85 89 88 87 87 87 88 87 86 85 85 83 78 74 76 77 80 80 79 76 76 73 72 73 72 71 70 68 68 75 82 85 92 91 89 70 70 68 69 66 68
96 94 92 89 89 88 88 88 88 87 84 83 85 84 81 78 76 81 83 83 82 80 75 73 71 72 76 74 72 70 72 77 84 93 92 85 87 69 69 71 73 72 72
96 95 94 89 89 91 89 90 89 87 85 84 85 83 81 82 81 83 86 86 84 79 71 68 70 74 75 74 71 72 76 82 93 93 92 89 82 65 65 65 64 65 64
97 97 95 90 90 91 92 90 90 89 87 85 86 85 83 82 83 85 87 88 82 73 69 68 72 74 74 74 72 76 81 84 86 93 92 91 78 66 66 68 68 67 67
97 98 97 96 94 92 92 93 91 90 89 88 87 87 86 85 87 86 88 86 81 75 74 74 74 74 74 74 76 81 83 85 93 95 86 94 78 67 68 70 69 68 68
96 97 98 97 97 98 96 93 95 93 92 91 91 91 91 90 91 88 91 88 85 80 79 79 77 75 76 77 79 84 85 86 92 93 94 95 74 66 68 69 69 69 69
91 96 97 98 98 98 98 97 94 96 95 94 94 94 94 96 92 89 91 92 88 85 83 81 80 81 84 82 81 82 86 93 91 92 96 84 73 67 67 68 68 67 67
82 91 97 97 99 98 95 98 98 98 98 97 97 96 97 96 92 82 87 93 91 89 88 84 84 88 89 95 91 84 86 88 91 92 92 82 74 66 66 68 68 68 67
82 94 94 96 98 98 93 99 98 99 100 99 98 97 98 94 94 87 87 92 97 96 98 95 96 98 95 94 90 90 84 83 84 92 83 83 77 66 66 68 70 70 71
75 86 95 94 96 98 99 98 97 98 97 100 99 98 98 97 95 82 77 95 97 98 98 98 99 97 94 90 87 83 79 76 78 82 92 85 83 72 68 70 73 75 77
73 86 93 95 96 96 99 97 96 96 97 97 99 97 92 92 88 78 76 93 87 98 95 98 97 97 94 90 84 83 80 76 77 77 92 88 88 84 76 71 73 75 75
62 83 92 97 95 95 98 95 95 97 95 98 98 96 93 92 85 79 74 87 90 92 97 94 93 91 95 88 80 80 79 80 76 72 75 84 85 87 82 75 71 71 70
56 70 91 96 94 94 95 96 96 97 96 98 98 96 93 94 94 85 87 93 92 91 95 93 93 92 94 86 85 79 75 74 74 71 73 74 78 89 87 76 74 73 72
65 73 88 92 93 94 94 97 98 98 97 96 96 95 90 91 93 93 92 92 93 90 96 95 93 92 88 88 90 82 74 72 71 73 73 76 75 71 81 85 83 79 77
62 72 90 96 90 93 94 97 95 95 98 98 97 94 95 94 96 96 98 97 95 96 94 93 93 91 89 87 83 79 76 76 72 65 72 74 77 75 77 82 88 88 86
69 79 87 95 96 93 94 98 99 99 98 96 95 90 88 91 96 94 97 96 96 98 97 89 89 86 85 84 70 68 78 76 74 74 72 71 72 76 80 83 88 94 89
74 76 86 95 95 97 97 98 97 94 98 98 94 88 90 86 89 95 97 94 92 87 93 92 86 84 86 88 87 87 87 79 75 73 74 74 72 72 85 89 91 93 87
69 75 84 93 94 94 92 93 96 95 95 92 93 90 85 88 89 91 95 96 89 86 87 90 90 87 83 92 91 93 91 86 90 81 83 75 76 84 88 88 91 90 93
77 80 79 90 92 88 94 95 97 97 98 99 95 95 94 86 89 88 90 92 92 86 87 86 89 86 87 95 92 89 96 94 90 86 85 87 82 87 88 84 84 88 95
81 86 86 90 92 86 89 88 89 91 92 92 90 92 93 89 87 91 90 89 90 89 86 88 88 87 85 87 97 94 96 92 91 87 82 86 88 85 88 90 90 90 94
87 96 97 94 95 96 93 92 90 88 89 89 91 92 94 92 83 90 91 90 92 89 88 87 90 91 90 84 89 99 99 99 97 96 96 88 88 89 91 92 94 90 92
92 96 98 96 97 98 98 98 97 93 94 97 98 98 95 92 88 86 90 91 91 89 89 94 93 91 90 92 96 98 98 98 99 99 99 97 92 92 91 90 93 94 96

GFSSE_sfc_rhum_111.txt.gz
RH
78 76 86 85 83 83 82 83 85 86 85 84 79 79 80 79 74 71 74 77 76 72 64 61 64 71 70 66 69 77 79 77 75 78 82 81 75 75 70 73 72 57 71
72 76 87 85 84 84 84 85 86 87 86 83 79 78 78 76 72 73 74 78 74 68 63 70 72 68 64 68 73 73 75 79 82 86 88 86 83 76 73 73 75 61 69
76 76 68 86 86 86 85 86 87 87 86 83 83 78 77 75 70 70 74 78 74 68 65 67 70 76 67 70 72 73 77 81 83 85 85 63 65 77 76 78 80 75 75
79 75 67 88 87 86 86 86 86 86 86 83 83 79 76 72 72 73 76 79 75 70 70 70 71 71 72 73 74 76 78 79 83 84 62 60 59 70 66 68 68 71 72
77 75 74 88 87 86 86 86 86 86 86 84 82 81 78 76 73 79 80 80 78 75 75 75 73 74 73 73 70 70 75 80 84 74 64 64 59 61 64 69 67 69 69
79 74 78 87 88 87 87 86 86 86 85 85 86 82 79 78 77 79 82 83 80 80 78 74 74 74 75 74 70 69 72 81 82 64 64 67 60 69 70 71 72 71 70
87 79 72 87 87 88 88 87 86 86 86 86 87 83 80 79 81 81 85 83 82 81 78 74 73 74 76 76 71 72 74 83 62 63 63 62 60 64 65 65 64 64 64
88 82 76 84 88 88 89 89 89 88 85 86 86 85 83 81 83 84 86 86 82 76 73 72 74 75 75 73 73 76 80 81 65 61 64 62 71 65 65 67 67 67 67
89 90 79 72 78 92 93 90 90 90 88 88 88 87 86 86 83 86 87 84 77 74 74 77 77 76 75 75 78 80 83 85 58 60 62 61 78 66 67 69 68 68 68
66 84 86 80 75 73 76 96 94 93 93 91 91 91 92 91 89 89 90 87 82 78 77 79 80 78 77 81 84 85 86 87 56 64 61 60 73 66 68 69 69 68 68
58 63 77 89 80 80 79 82 94 96 96 95 92 94 91 72 73 76 86 92 86 82 81 81 81 81 84 85 86 85 86 55 56 57 60 80 76 66 67 68 68 68 68
54 60 71 83 92 86 82 81 78 80 82 77 78 79 75 73 71 71 85 94 89 86 86 83 82 86 82 59 60 79 59 58 56 57 56 81 79 67 67 69 69 68 67
51 63 63 74 89 94 89 88 91 83 86 91 82 80 79 77 75 72 74 82 74 86 65 71 73 66 69 63 61 57 58 58 54 58 63 81 78 69 66 68 70 70 70
57 54 60 72 84 95 97 90 89 92 89 93 87 83 82 84 80 71 69 74 74 74 75 80 88 72 71 64 58 56 57 56 53 53 62 85 81 75 67 68 71 73 74
56 55 60 67 82 85 94 95 87 84 89 88 90 86 81 80 78 74 65 68 70 74 72 74 74 75 72 63 58 54 52 50 49 50 52 87 87 82 77 71 71 75 76
49 54 59 64 77 83 91 94 91 87 82 87 91 89 83 81 77 75 67 67 70 72 77 83 72 76 72 66 58 54 51 49 49 50 50 54 86 85 81 77 75 73 72
46 52 58 59 74 85 85 94 94 93 88 88 91 94 87 81 79 77 72 74 75 78 82 75 76 71 68 67 61 54 54 50 52 49 51 52 57 86 86 76 73 74 74
52 52 52 50 69 83 87 90 91 94 93 91 90 92 88 86 83 82 80 83 87 93 84 84 81 85 79 71 66 60 53 54 51 48 50 51 56 56 73 86 82 77 78
53 55 58 60 69 77 82 88 92 92 91 90 92 88 88 85 85 88 87 84 85 92 95 92 80 80 72 71 69 56 56 56 54 49 50 53 56 61 59 72 87 86 84
60 60 61 64 68 74 81 88 96 97 95 89 91 86 85 84 87 89 88 88 84 87 90 96 92 88 85 74 68 59 59 59 56 53 50 51 55 60 62 65 63 62 87
69 67 66 67 69 82 85 94 97 97 95 93 89 90 87 86 86 89 91 88 86 86 87 86 92 93 90 83 76 70 69 62 56 55 56 56 59 60 58 62 64 60 61
64 67 66 65 68 80 81 82 90 89 89 88 90 86 87 86 88 88 88 93 87 84 83 79 79 85 87 90 90 89 85 70 75 62 61 60 56 67 65 69 62 64 65
73 70 61 62 69 76 83 87 89 94 92 94 90 88 86 85 88 88 88 88 89 86 83 78 79 81 82 91 85 78 90 83 81 75 74 73 68 68 70 70 67 71 71
76 76 68 63 69 77 85 86 86 88 88 86 83 84 85 83 81 88 87 89 88 87 85 83 80 80 76 83 94 86 77 77 85 81 79 82 82 79 76 69 69 74 78
77 84 79 71 75 79 85 80 85 88 87 84 85 85 84 84 82 82 85 85 90 86 83 80 80 81 81 76 85 95 85 90 88 91 86 80 74 73 84 84 73 74 76
88 83 86 84 84 83 79 86 82 85 84 86 88 90 89 88 89 83 83 85 85 84 84 82 79 79 81 87 86 85 80 86 90 95 95 93 90 84 84 83 83 80 84

GFSSE_sfc_rhum_114.txt.gz
RH
56 58 84 84 81 83 83 83 84 83 86 83 77 79 80 78 72 73 77 70 72 68 63 63 68 73 68 69 75 77 76 75 75 80 81 80 75 67 71 71 72 54 71
54 56 85 85 83 85 85 86 87 88 86 84 82 80 78 76 70 74 76 74 68 64 62 63 71 70 67 72 74 76 76 79 83 84 86 85 82 70 69 70 71 59 70
58 55 60 86 85 85 86 87 87 88 86 83 84 80 77 75 71 73 76 75 71 68 70 71 68 64 70 72 70 74 77 81 84 82 79 56 62 77 76 77 79 76 76
58 56 55 86 86 86 87 87 87 87 85 82 85 81 76 75 70 72 77 78 73 73 73 76 77 73 70 73 74 76 79 82 84 80 48 53 52 70 70 70 71 71 72
57 56 52 84 86 85 86 87 87 87 85 83 85 84 80 74 71 71 78 81 76 74 77 75 74 74 73 74 75 76 77 82 82 63 48 48 45 60 68 67 68 70 70
57 55 68 85 85 86 86 86 86 86 86 84 84 84 80 78 74 78 82 84 82 81 79 74 73 74 74 71 69 69 77 80 80 48 44 54 46 70 69 71 70 70 68
81 63 54 85 86 86 87 86 86 85 85 85 86 82 80 80 80 81 85 85 83 81 78 73 74 74 74 73 69 70 75 81 43 43 44 45 51 64 64 65 64 65 65
89 79 57 78 86 86 88 87 86 86 86 86 87 84 81 81 82 84 86 84 83 79 75 74 73 75 74 74 72 74 79 80 48 40 43 45 67 64 65 66 67 66 66
57 84 66 58 66 89 92 87 88 87 88 88 88 87 85 84 86 85 86 85 81 79 79 78 75 76 75 74 76 79 82 80 38 39 41 44 75 65 67 68 67 67 66
31 40 66 66 55 55 58 92 91 91 91 90 91 92 91 91 90 90 88 86 82 80 79 80 80 76 76 81 82 82 85 82 38 45 41 47 71 66 68 69 68 67 67
32 34 38 61 62 54 56 63 92 96 96 95 90 95 89 57 59 65 78 89 84 81 80 82 83 82 84 86 88 84 86 38 38 38 39 77 77 66 67 69 68 67 68
34 32 35 39 64 70 60 54 58 60 63 58 59 60 57 52 50 56 74 95 88 85 84 84 84 86 82 44 54 78 47 41 40 41 40 78 79 68 67 69 69 68 67
37 34 36 34 45 70 74 72 52 49 57 55 52 55 51 48 53 56 74 79 66 82 56 64 67 54 48 43 42 41 42 43 38 42 51 77 76 73 67 68 70 71 70
34 36 35 34 36 54 80 77 60 52 49 57 61 56 56 54 52 54 62 71 64 55 50 47 47 44 49 45 41 40 42 42 39 39 46 80 79 75 70 68 70 72 73
34 36 35 35 35 44 63 86 76 57 55 52 57 55 51 52 53 52 54 60 65 56 49 48 46 47 50 43 41 40 39 39 38 37 37 85 85 80 76 74 71 73 76
32 33 35 35 33 41 55 79 88 78 53 54 57 56 58 50 54 54 51 53 57 56 52 49 42 41 43 45 43 39 36 35 36 37 36 40 84 84 79 75 77 76 75
27 32 36 36 34 33 47 63 84 87 69 69 70 64 61 66 58 59 61 55 55 56 56 62 57 52 55 45 43 38 37 34 35 35 38 40 45 88 85 76 74 72 74
33 34 33 31 32 32 39 52 76 84 76 77 76 75 77 75 66 69 66 55 54 58 63 65 60 57 53 53 46 41 37 36 37 36 36 38 42 40 71 84 82 77 76
33 34 37 39 36 28 34 45 60 85 89 84 81 85 78 78 75 82 76 61 57 68 76 89 79 67 61 69 58 46 40 39 38 37 37 37 41 45 44 66 86 88 84
40 36 36 36 38 30 33 46 68 77 92 89 78 74 80 78 74 73 77 74 70 79 74 85 90 85 70 59 55 58 47 41 41 44 42 38 39 43 48 50 51 58 88
47 45 42 41 39 38 35 50 75 83 87 93 85 72 66 75 83 75 83 82 80 82 78 71 69 69 80 87 88 81 74 57 48 49 46 47 45 43 46 49 55 54 57
49 46 46 42 40 40 36 40 60 77 80 89 89 84 72 70 75 86 84 84 78 82 76 78 76 77 68 68 68 68 57 47 48 48 43 44 47 43 47 50 49 56 57
51 49 45 45 44 42 43 50 66 81 88 96 96 92 78 72 75 83 86 87 85 79 84 79 75 75 69 63 66 55 60 60 49 61 50 49 52 48 53 54 58 64 66
57 56 52 48 46 45 47 55 64 83 87 89 86 82 78 76 83 87 85 86 83 86 84 75 72 71 69 66 69 64 54 50 59 71 69 57 61 58 59 62 65 67 67
64 63 62 57 51 46 51 53 55 72 71 80 77 72 72 74 73 74 80 79 86 87 86 83 80 76 72 66 66 67 68 68 63 75 72 60 61 59 64 66 64 59 64
67 69 70 65 58 49 51 55 58 71 77 82 76 73 68 67 70 67 68 70 73 76 80 78 80 80 73 70 66 65 69 78 72 79 92 73 73 64 74 84 80 70 79

GFSSE_sfc_rhum_117.txt.gz
RH
48 65 84 84 82 83 83 83 83 85 84 81 75 77 79 76 70 71 69 71 68 66 64 66 68 73 69 73 75 78 77 76 80 80 83 78 70 71 70 69 71 56 71
44 55 84 85 84 84 84 85 84 86 86 84 80 77 80 74 70 76 73 70 67 65 64 67 72 67 72 73 76 76 77 81 82 85 86 82 79 69 68 77 74 64 74
48 51 67 87 86 86 86 87 86 87 87 85 84 81 76 73 70 75 78 71 70 64 65 69 69 72 73 73 74 72 78 81 80 81 77 72 69 76 75 78 81 78 76
49 53 62 86 87 86 88 88 88 87 86 85 84 83 78 74 71 73 78 74 73 71 74 75 74 72 74 73 74 76 79 81 77 76 56 53 56 72 70 71 71 70 72
59 54 56 85 86 87 88 89 88 88 85 84 85 84 80 76 71 72 78 79 77 79 80 79 75 73 74 75 76 77 80 80 79 61 43 49 51 66 68 68 68 71 71
67 64 77 86 84 86 89 89 88 87 86 84 84 84 83 76 71 74 81 82 81 82 80 76 76 73 75 76 75 76 77 77 82 42 47 49 57 68 70 71 69 67 67
66 65 66 85 85 85 86 87 88 87 86 84 85 81 78 77 77 80 84 84 85 82 80 75 74 74 73 70 67 69 76 78 56 41 43 46 59 66 65 65 66 66 66
49 65 67 79 85 85 85 85 86 87 86 85 86 84 82 82 82 83 86 85 84 81 77 74 74 74 74 73 70 72 77 80 46 38 42 51 70 64 66 67 67 66 66
32 47 63 62 68 89 87 86 86 85 84 85 87 88 86 86 86 86 88 85 83 81 80 79 76 76 75 74 76 78 79 78 55 38 38 49 74 66 67 68 67 66 66
28 32 39 58 59 60 59 89 88 88 87 87 89 91 93 90 90 86 91 86 84 84 83 82 81 78 78 80 82 82 82 79 44 42 41 62 71 66 67 68 67 66 66
30 29 32 39 57 55 57 66 89 92 93 93 90 96 91 65 61 65 76 89 86 86 83 83 84 82 85 89 88 83 82 43 36 38 39 80 73 66 67 68 68 67 66
31 30 30 33 40 58 60 53 62 65 66 58 58 61 63 56 56 57 70 94 89 86 85 85 86 87 85 54 68 80 54 41 38 40 44 80 78 68 67 69 69 68 68
27 29 33 31 32 40 65 68 56 50 58 59 53 52 52 46 51 57 80 79 72 84 62 73 75 64 52 42 43 47 45 39 37 40 57 80 74 75 68 69 71 71 71
32 30 30 30 30 34 47 75 66 48 54 54 54 51 50 51 53 54 67 82 77 62 54 54 48 49 47 41 40 39 38 42 40 40 52 79 78 72 72 69 71 72 73
28 31 34 31 31 30 37 56 75 61 44 42 50 48 48 52 55 50 62 66 71 63 51 47 44 42 42 42 41 38 37 37 37 39 40 85 82 79 74 74 71 72 73
27 30 31 31 30 32 35 44 67 71 62 50 55 52 51 49 54 58 50 66 66 64 53 52 43 42 42 42 39 36 35 34 34 35 36 50 85 85 80 74 75 76 74
23 28 31 32 31 28 34 41 48 82 77 68 62 58 56 59 53 55 57 57 66 68 60 54 46 41 39 38 41 39 36 33 34 32 35 39 54 88 85 76 73 72 74
31 32 32 27 28 28 31 36 42 68 82 82 74 72 66 71 74 67 61 58 57 69 73 70 56 50 54 46 44 42 37 36 34 33 35 36 42 41 78 83 82 77 77
31 33 35 33 31 27 25 30 40 49 84 86 78 74 68 68 71 81 80 65 61 76 74 76 66 58 53 57 48 47 42 41 39 34 36 38 41 45 47 75 85 85 84
37 35 36 31 31 29 30 30 38 46 75 89 87 71 65 67 75 84 84 85 80 81 74 76 73 67 64 58 59 54 57 48 44 44 41 37 39 44 48 54 62 69 88
43 41 39 38 33 33 35 34 40 49 65 89 90 74 68 69 76 73 88 84 81 77 81 75 73 71 75 68 71 69 67 67 57 50 46 45 46 45 45 50 54 57 62
44 43 43 40 37 35 37 35 37 48 58 69 84 85 74 68 68 70 75 83 81 83 81 80 79 81 78 76 80 77 71 60 62 55 48 47 47 46 46 47 50 57 62
52 45 43 43 43 40 40 44 43 50 68 78 82 92 89 74 71 71 72 80 85 86 87 85 83 84 89 82 76 67 68 66 48 46 48 47 43 46 48 48 52 56 60
58 61 51 47 45 43 44 45 46 56 71 73 82 91 93 86 77 76 79 82 86 87 86 86 82 84 81 81 75 67 63 56 63 62 49 49 51 48 53 56 56 60 65
61 66 62 55 52 46 46 47 50 53 60 64 76 84 90 91 88 86 82 82 82 86 82 81 82 84 82 80 78 72 70 68 63 70 68 58 60 60 61 65 65 62 65
66 60 71 61 60 52 47 46 51 55 55 72 77 84 92 92 91 88 86 84 82 84 88 86 82 81 81 78 75 74 73 77 74 74 74 64 59 60 71 75 76 67 71

GFSSE_sfc_rhum_120.txt.gz
RH
68 78 85 86 84 85 86 84 85 86 84 80 76 79 78 72 68 69 70 69 68 66 66 68 70 67 71 76 79 78 80 80 81 80 81 78 75 70 68 73 74 68 71
56 67 87 86 86 86 86 86 87 88 87 82 75 79 78 72 72 71 71 70 66 64 67 70 71 72 74 78 76 78 79 80 82 85 83 82 79 72 74 79 79 77 72
62 62 74 88 88 88 87 87 87 88 88 85 83 81 74 71 73 78 71 70 67 66 67 75 70 73 75 75 73 72 80 80 81 85 80 86 85 77 78 81 81 78 72
66 66 67 89 89 88 88 87 87 88 88 86 83 82 76 72 72 76 76 72 73 71 75 75 76 76 74 73 70 76 79 78 80 79 72 68 66 72 73 73 73 72 72
68 72 65 86 87 89 90 89 87 89 88 86 83 83 81 75 71 74 79 78 79 83 82 77 75 77 76 78 77 78 78 77 83 76 62 69 78 69 73 70 70 70 70
70 72 82 85 85 88 90 90 89 88 87 86 84 83 83 78 72 74 82 82 84 86 83 79 77 77 78 78 77 76 76 77 82 62 62 75 77 69 70 68 67 67 67
48 62 72 84 83 85 87 90 90 88 87 86 83 83 82 78 78 78 84 84 86 84 82 78 75 74 76 74 69 73 76 79 74 61 61 76 76 66 65 66 67 67 67
45 43 69 80 84 83 84 85 86 87 87 86 84 84 84 82 82 82 86 86 83 84 80 76 75 76 75 73 72 74 78 79 64 56 71 79 75 65 66 68 68 68 68
37 44 53 72 80 88 86 85 86 84 86 86 85 85 86 87 85 84 88 86 83 83 82 81 78 76 76 78 80 80 78 75 82 63 62 79 76 66 67 68 68 67 67
38 39 36 43 71 78 79 89 89 88 86 86 87 90 92 92 91 90 91 88 84 85 84 84 82 79 80 83 84 83 79 77 79 57 72 80 75 67 68 69 68 67 67
42 41 39 40 39 56 74 82 90 90 90 90 92 94 98 89 83 85 91 89 86 86 86 86 85 85 85 88 88 84 80 74 62 58 79 83 73 68 69 70 69 68 68
44 42 43 42 46 41 57 72 87 84 89 85 81 87 90 83 79 70 82 91 89 88 88 87 87 88 88 95 97 86 86 72 64 56 82 84 74 69 69 71 71 70 69
42 44 42 43 44 44 50 86 91 81 80 78 71 70 79 68 70 75 96 91 92 93 88 91 96 96 91 78 82 83 76 67 60 60 77 82 76 72 69 71 72 72 72
42 43 42 43 43 46 53 71 88 90 80 74 71 68 70 68 71 74 88 94 90 83 78 86 88 90 80 68 67 68 63 62 60 60 80 84 80 72 72 70 72 73 73
40 42 45 46 47 44 45 59 84 89 89 65 64 64 60 61 66 71 86 94 87 86 71 69 67 69 70 64 58 56 56 58 57 58 76 86 83 80 73 73 72 72 74
35 41 45 46 45 46 50 50 68 82 87 87 66 60 59 59 69 71 77 88 90 87 74 65 61 61 60 62 61 56 55 54 55 54 60 80 87 83 80 73 73 74 73
35 38 45 47 47 43 47 51 54 83 81 95 86 66 60 67 67 62 68 77 75 80 79 73 55 52 61 59 61 55 53 51 50 48 51 62 78 88 86 75 73 73 75
44 44 44 38 42 46 46 51 50 62 88 89 93 90 76 76 76 75 69 78 85 89 88 86 76 60 55 63 64 62 56 54 50 48 48 52 64 61 82 82 80 79 77
49 49 49 48 48 41 40 47 50 56 88 90 92 95 91 82 79 89 89 76 78 87 92 91 92 85 68 64 66 63 60 58 54 43 50 48 54 59 69 80 86 85 83
54 53 53 49 48 43 46 47 52 56 77 96 96 96 87 80 80 87 95 92 89 91 92 91 90 91 85 75 63 64 71 69 64 57 52 47 52 56 60 66 81 79 87
56 55 57 55 52 51 52 58 56 55 69 97 97 88 82 82 82 93 94 94 94 96 88 86 89 92 96 88 92 93 88 75 71 68 61 61 59 58 64 67 70 80 78
62 59 58 56 52 50 54 53 57 56 69 88 96 93 83 82 84 88 91 91 88 89 95 91 89 92 92 97 97 95 95 88 79 67 64 58 64 64 62 58 67 71 77
68 63 59 60 57 55 55 60 61 64 79 87 90 95 86 85 86 86 88 89 90 91 94 93 92 92 94 97 91 90 96 92 74 77 74 65 56 61 61 60 62 70 75
72 66 62 60 66 58 59 64 63 67 77 88 91 89 94 88 89 90 86 87 92 93 95 96 95 93 90 94 98 91 88 84 89 87 76 71 61 61 67 72 70 73 77
76 74 68 63 67 66 64 63 68 69 70 82 88 91 94 96 92 90 87 88 93 96 94 93 95 97 96 93 92 93 88 90 90 96 83 84 82 81 81 80 78 79 80
81 83 75 67 72 72 67 65 65 69 72 84 86 92 96 94 92 94 94 89 90 92 94 95 96 96 97 95 90 94 93 92 93 92 92 83 74 83 84 86 92 91 88